[[{"header":{"parameterUnit":"m.s-1","parameterCategory":1,"la1":31.0,"la2":29.5877,"lo1":-88.7671,"lo2":-86.6584,"dy":0.0162,"dx":0.0185,"nx":115,"ny":88,"refTime":"2023-04-01T12:00:00:Z","depth":0,"parameterNumber":2,"parameterNumberName":"U-component_of_WINDS"},"data":[0.0,0.0,0.0,0.0,0.0,0.0,0.0,0.0,0.0,0.0,0.0,0.0,0.0,0.0,0.0,0.0,0.0,0.0,0.0,0.0,0.0,0.0,0.0,0.0,0.0,0.0,0.0,0.0,0.0,0.0,0.0,0.0,0.0,0.0,0.0,0.0,0.0,0.0,0.0,0.0,0.0,0.0,0.0,0.0,0.0,0.0,0.0,0.0,0.0,0.0,0.0,0.0,0.0,0.0,0.0,0.0,0.0,0.0,0.0,0.0,0.0,0.0,0.0,0.0,0.0,0.0,0.0,0.0,0.0,0.0,0.0,0.0,0.0,0.0,0.0,0.0,0.0,0.0,0.0,0.0,0.0,0.0,0.0,0.0,0.0,0.0,0.0,0.0,0.0,0.0,0.0,0.0,0.0,0.0,0.0,0.0,0.0,0.0,0.0,0.0,0.0,0.0,0.0,0.0,0.0,0.0,0.0,0.0,0.0,0.0,0.0,0.0,0.0,0.0,0.0,0.0,0.0,0.0,0.0,0.0,0.0,0.0,0.0,0.0,0.0,0.0,0.0,0.0,0.0,0.0,0.0,0.0,0.0,0.0,0.0,0.0,0.0,0.0,0.0,0.0,0.0,0.0,0.0,0.0,0.0,0.0,0.0,0.0,0.0,0.0,0.0,0.0,0.0,0.0,0.0,0.0,0.0,0.0,0.0,0.0,0.0,0.0,0.0,0.0,0.0,0.0,0.0,0.0,0.0,0.0,0.0,0.0,0.0,0.0,0.0,0.0,0.0,0.0,0.0,0.0,0.0,0.0,0.0,0.0,0.0,0.0,0.0,0.0,0.0,0.0,0.0,0.0,0.0,0.0,0.0,0.0,0.0,0.0,0.0,0.0,0.0,0.0,0.0,0.0,0.0,0.0,0.0,0.0,0.0,0.0,0.0,0.0,0.0,0.0,0.0,0.0,0.0,0.0,0.0,0.0,0.0,0.0,0.0,0.0,0.0,0.0,0.0,0.0,0.0,0.0,0.0,0.0,0.0,0.0,0.0,0.0,0.0,0.0,0.0,0.0,0.0,0.0,0.0,0.0,0.0,0.0,0.0,0.0,0.0,0.0,0.0,0.0,0.0,0.0,0.0,0.0,0.0,0.0,0.0,0.0,0.0,0.0,0.0,0.0,0.0,0.0,0.0,0.0,0.0,0.0,0.0,0.0,0.0,0.0,0.0,0.0,0.0,0.0,0.0,0.0,0.0,0.0,0.0,0.0,0.0,0.0,0.0,0.0,0.0,0.0,0.0,0.0,0.0,0.0,0.0,0.0,0.0,0.0,0.0,0.0,0.0,0.0,0.0,0.0,0.0,0.0,0.0,0.0,0.0,0.0,0.0,0.0,0.0,0.0,0.0,0.0,0.0,0.0,0.0,0.0,0.0,0.0,0.0,0.0,0.0,0.0,0.0,0.0,0.0,0.0,0.0,0.0,0.0,0.0,0.0,0.0,0.0,0.0,0.0,0.0,0.0,0.0,0.0,0.0,0.0,0.0,0.0,0.0,0.0,0.0,0.0,0.0,0.0,0.0,0.0,0.0,0.0,0.0,0.0,0.0,0.0,0.0,0.0,0.0,0.0,0.0,0.0,0.0,0.0,0.0,0.0,0.0,0.0,0.0,0.0,0.0,0.0,0.0,0.0,0.0,0.0,0.0,0.0,0.0,0.0,0.0,0.0,0.0,0.0,0.0,0.0,0.0,0.0,0.0,0.0,0.0,0.0,0.0,0.0,0.0,0.0,0.0,0.0,0.0,0.0,0.0,0.0,0.0,0.0,0.0,0.0,0.0,0.0,0.0,0.0,0.0,0.0,0.0,0.0,0.0,0.0,0.0,0.0,0.0,0.0,0.0,0.0,0.0,0.0,0.0,0.0,0.0,0.0,0.0,0.0,0.0,0.0,0.0,0.0,0.0,0.0,0.0,0.0,0.0,0.0,0.0,0.0,0.0,0.0,0.0,0.0,0.0,0.0,0.0,0.0,0.0,0.0,0.0,0.0,0.0,0.0,0.0,0.0,0.0,0.0,0.0,0.0,0.0,0.0,0.0,0.0,0.0,0.0,0.0,0.0,0.0,0.0,0.0,0.0,0.0,0.0,0.0,0.0,0.0,0.0,0.0,0.0,0.0,0.0,0.0,0.0,0.0,0.0,0.0,0.0,0.0,0.0,0.0,0.0,0.0,0.0,0.0,0.0,0.0,0.0,0.0,0.0,0.0,0.0,0.0,0.0,0.0,0.0,0.0,0.0,0.0,0.0,0.0,0.0,0.0,0.0,0.0,0.0,0.0,0.0,0.0,0.0,0.0,0.0,0.0,0.0,0.0,0.0,0.0,0.0,0.0,0.0,0.0,0.0,0.0,0.0,0.0,0.0,0.0,0.0,0.0,0.0,0.0,0.0,0.0,0.0,0.0,0.0,0.0,0.0,0.0,0.0,0.0,0.0,0.0,0.0,0.0,0.0,0.0,0.0,0.0,0.0,0.0,0.0,0.0,0.0,0.0,0.0,0.0,0.0,0.0,0.0,0.0,0.0,0.0,0.0,0.0,0.0,0.0,0.0,0.0,0.0,0.0,0.0,0.0,0.0,0.0,0.0,0.0,0.0,0.0,0.0,0.0,0.0,0.0,0.0,0.0,0.0,0.0,0.0,0.0,0.0,0.0,0.0,0.0,0.0,0.0,0.0,0.0,0.0,0.0,0.0,0.0,0.0,0.0,0.0,0.0,0.0,0.0,0.0,0.0,0.0,0.0,0.0,0.0,0.0,0.0,0.0,0.0,0.0,0.0,0.0,0.0,0.0,0.0,0.0,0.0,0.0,0.0,0.0,0.0,0.0,0.0,0.0,0.0,0.0,0.0,0.0,0.0,0.0,0.0,0.0,0.0,0.0,0.0,0.0,0.0,0.0,0.0,0.0,0.0,0.0,0.0,0.0,0.0,0.0,0.0,0.0,0.0,0.0,0.0,0.0,0.0,0.0,0.0,0.0,0.0,0.0,0.0,0.0,0.0,0.0,0.0,0.0,0.0,0.0,0.0,0.0,0.0,0.0,0.0,0.0,0.0,0.0,0.0,0.0,0.0,0.0,0.0,0.0,0.0,0.0,0.0,0.0,0.0,0.0,0.0,0.0,0.0,0.0,0.0,0.0,0.0,0.0,0.0,0.0,0.0,0.0,0.0,0.0,0.0,0.0,0.0,0.0,0.0,0.0,0.0,0.0,0.0,0.0,0.0,0.0,0.0,0.0,0.0,0.0,0.0,0.0,0.0,0.0,0.0,0.0,0.0,0.0,0.0,0.0,0.0,0.0,0.0,0.0,0.0,0.0,0.0,0.0,0.0,0.0,0.0,0.0,0.0,0.0,0.0,0.0,0.0,0.0,0.0,0.0,0.0,0.0,0.0,0.0,0.0,0.0,0.0,0.0,0.0,0.0,0.0,0.0,0.0,0.0,0.0,0.0,0.0,0.0,0.0,0.0,0.0,0.0,0.0,0.0,0.0,0.0,0.0,0.0,0.0,0.0,0.0,0.0,0.0,0.0,0.0,0.0,0.0,0.0,0.0,0.0,0.0,0.0,0.0,0.0,0.0,0.0,0.0,0.0,0.0,0.0,0.0,0.0,0.0,0.0,0.0,0.0,0.0,0.0,0.0,0.0,0.0,0.0,0.0,0.0,0.0,0.0,0.0,0.0,0.0,0.0,0.0,0.0,0.0,0.0,0.0,0.0,0.0,0.0,0.0,0.0,0.0,0.0,0.0,0.0,0.0,0.0,0.0,0.0,0.0,0.0,0.0,0.0,0.0,0.0,0.0,0.0,0.0,0.0,0.0,0.0,0.0,0.0,0.0,0.0,0.0,0.0,0.0,0.0,0.0,0.0,0.0,0.0,0.0,0.0,0.0,0.0,0.0,0.0,0.0,0.0,0.0,0.0,0.0,0.0,0.0,0.0,0.0,0.0,0.0,0.0,0.0,0.0,0.0,0.0,0.0,0.0,0.0,0.0,0.0,0.0,0.0,0.0,0.0,0.0,0.0,0.0,0.0,0.0,0.0,0.0,0.0,0.0,0.0,0.0,0.0,0.0,0.0,0.0,0.0,0.0,0.0,0.0,0.0,0.0,0.0,0.0,0.0,0.0,0.0,0.0,0.0,0.0,0.0,0.0,0.0,0.0,0.0,0.0,0.0,0.0,0.0,0.0,0.0,0.0,0.0,0.0,0.0,0.0,0.0,0.0,0.0,0.0,0.0,0.0,0.0,-1.1139,0.0,0.0,0.0,0.0,0.0,0.0,0.0,0.0,0.0,0.0,0.0,0.0,0.0,0.0,0.0,0.0,0.0,0.0,0.0,0.0,0.0,0.0,0.0,0.0,0.0,0.0,0.0,0.0,0.0,0.0,0.0,0.0,0.0,0.0,0.0,0.0,0.0,0.0,0.0,0.0,0.0,0.0,0.0,0.0,0.0,0.0,0.0,0.0,0.0,0.0,0.0,0.0,0.0,0.0,0.0,0.0,0.0,0.0,0.0,0.0,0.0,0.0,0.0,0.0,0.0,0.0,0.0,0.0,0.0,0.0,0.0,0.0,0.0,0.0,0.0,0.0,0.0,0.0,0.0,0.0,0.0,0.0,0.0,0.0,0.0,0.0,0.0,0.0,0.0,0.0,0.0,0.0,0.0,0.0,0.0,0.0,0.0,0.0,0.0,0.0,0.0,0.0,0.0,0.0,0.0,0.0,0.0,0.0,0.0,0.0,-1.0458,-1.0946,-1.1611,-1.2331,-1.3174,0.0,0.0,0.0,0.0,0.0,0.0,0.0,0.0,0.0,0.0,0.0,0.0,0.0,0.0,0.0,0.0,0.0,0.0,0.0,0.0,0.0,0.0,0.0,0.0,0.0,0.0,0.0,0.0,0.0,0.0,0.0,0.0,0.0,0.0,0.0,0.0,0.0,0.0,0.0,0.0,0.0,0.0,0.0,0.0,0.0,0.0,0.0,0.0,0.0,0.0,0.0,0.0,0.0,0.0,0.0,0.0,0.0,0.0,0.0,0.0,0.0,0.0,0.0,0.0,0.0,0.0,0.0,0.0,0.0,0.0,0.0,0.0,0.0,0.0,0.0,0.0,0.0,0.0,0.0,0.0,0.0,0.0,0.0,0.0,0.0,0.0,0.0,0.0,0.0,0.0,0.0,0.0,0.0,0.0,0.0,0.0,0.0,0.0,0.0,0.0,0.0,0.0,0.0,0.0,0.0,0.0,0.0,0.0,0.0,0.0,0.0,0.0,-1.3113,-1.4076,-1.5222,0.0,0.0,0.0,0.0,0.0,0.0,0.0,0.0,0.0,0.0,0.0,0.0,0.0,0.0,0.0,0.0,0.0,0.0,0.0,0.0,0.0,0.0,0.0,0.0,0.0,0.0,0.0,0.0,0.0,0.0,0.0,0.0,0.0,0.0,0.0,0.0,0.0,0.0,0.0,0.0,0.0,0.0,0.0,0.0,0.0,0.0,0.0,0.0,0.0,0.0,0.0,0.0,0.0,0.0,0.0,0.0,0.0,0.0,0.0,0.0,0.0,0.0,0.0,0.0,0.0,0.0,0.0,0.0,0.0,0.0,0.0,0.0,0.0,0.0,0.0,0.0,0.0,0.0,0.0,0.0,0.0,0.0,0.0,0.0,0.0,0.0,0.0,0.0,0.0,0.0,0.0,0.0,0.0,0.0,0.0,0.0,0.0,0.0,0.0,0.0,0.0,0.0,0.0,0.0,0.0,0.0,0.0,0.0,0.0,0.0,-1.3283,-1.3715,-1.4465,0.0,-1.6994,0.0,0.0,0.0,0.0,0.0,0.0,0.0,0.0,0.0,0.0,0.0,0.0,0.0,0.0,0.0,0.0,0.0,0.0,0.0,0.0,0.0,0.0,0.0,0.0,0.0,0.0,0.0,0.0,0.0,0.0,0.0,0.0,0.0,0.0,0.0,0.0,0.0,0.0,0.0,0.0,0.0,0.0,0.0,0.0,0.0,0.0,0.0,0.0,0.0,0.0,0.0,0.0,0.0,0.0,0.0,0.0,0.0,0.0,0.0,0.0,0.0,0.0,0.0,0.0,0.0,0.0,0.0,0.0,0.0,0.0,0.0,0.0,0.0,0.0,0.0,0.0,0.0,0.0,0.0,0.0,0.0,0.0,0.0,0.0,0.0,0.0,0.0,0.0,0.0,0.0,0.0,0.0,0.0,0.0,0.0,0.0,0.0,0.0,0.0,0.0,0.0,0.0,0.0,0.0,0.0,0.0,0.0,0.0,0.0,0.0,-1.4039,-1.5045,-1.7174,-1.8824,0.0,0.0,0.0,0.0,0.0,0.0,0.0,0.0,0.0,0.0,0.0,0.0,0.0,0.0,0.0,0.0,0.0,0.0,0.0,0.0,0.0,0.0,0.0,0.0,0.0,0.0,0.0,0.0,0.0,0.0,0.0,0.0,0.0,0.0,0.0,0.0,0.0,0.0,0.0,0.0,0.0,0.0,0.0,0.0,0.0,0.0,0.0,0.0,0.0,0.0,0.0,0.0,0.0,0.0,0.0,0.0,0.0,0.0,0.0,0.0,0.0,0.0,0.0,0.0,0.0,0.0,0.0,0.0,0.0,0.0,0.0,0.0,0.0,0.0,0.0,0.0,0.0,0.0,0.0,0.0,0.0,0.0,0.0,0.0,0.0,0.0,0.0,0.0,0.0,0.0,0.0,0.0,0.0,0.0,0.0,0.0,0.0,0.0,0.0,0.0,0.0,0.0,0.0,0.0,0.0,0.0,0.0,0.0,0.0,0.0,-1.2861,-1.4675,-1.6713,-1.9488,-2.1212,-2.1994,0.0,0.0,0.0,0.0,0.0,0.0,0.0,0.0,0.0,0.0,0.0,0.0,0.0,0.0,0.0,0.0,0.0,0.0,0.0,0.0,0.0,0.0,0.0,0.0,0.0,0.0,0.0,0.0,0.0,0.0,0.0,0.0,0.0,0.0,0.0,0.0,0.0,0.0,0.0,0.0,0.0,0.0,0.0,0.0,0.0,0.0,0.0,0.0,0.0,0.0,0.0,0.0,0.0,0.0,0.0,0.0,0.0,0.0,0.0,0.0,0.0,0.0,0.0,0.0,0.0,0.0,0.0,0.0,0.0,0.0,0.0,0.0,0.0,0.0,0.0,0.0,0.0,0.0,0.0,0.0,0.0,0.0,0.0,0.0,0.0,0.0,0.0,0.0,0.0,0.0,0.0,0.0,0.0,0.0,0.0,0.0,0.0,0.0,0.0,0.0,0.0,0.0,0.0,0.0,0.0,0.0,0.0,0.0,-1.09,-1.2646,-1.5292,-1.8816,-2.0674,-2.2138,0.0,0.0,0.0,0.0,0.0,0.0,0.0,0.0,0.0,0.0,0.0,0.0,0.0,0.0,0.0,0.0,0.0,0.0,0.0,0.0,0.0,0.0,0.0,0.0,0.0,0.0,0.0,0.0,0.0,0.0,0.0,0.0,0.0,0.0,0.0,0.0,0.0,0.0,0.0,0.0,0.0,0.0,0.0,0.0,0.0,0.0,0.0,0.0,0.0,0.0,0.0,0.0,0.0,0.0,0.0,0.0,0.0,0.0,0.0,0.0,0.0,0.0,0.0,0.0,0.0,0.0,0.0,0.0,0.0,0.0,0.0,0.0,0.0,0.0,0.0,0.0,0.0,0.0,0.0,0.0,0.0,0.0,0.0,0.0,0.0,0.0,0.0,0.0,0.0,0.0,0.0,0.0,0.0,0.0,0.0,0.0,0.0,0.0,0.0,0.0,0.0,0.0,0.0,0.0,0.0,0.0,0.0,0.0,0.0,-1.1683,-1.4709,-1.7872,-2.0775,-2.2698,-2.4221,0.0,0.0,0.0,0.0,0.0,0.0,0.0,0.0,0.0,0.0,0.0,0.0,0.0,0.0,0.0,0.0,0.0,0.0,0.0,0.0,0.0,0.0,0.0,0.0,0.0,0.0,0.0,0.0,0.0,0.0,0.0,0.0,0.0,0.0,0.0,0.0,0.0,0.0,0.0,0.0,0.0,0.0,0.0,0.0,0.0,0.0,0.0,0.0,0.0,0.0,0.0,0.0,0.0,0.0,0.0,0.0,0.0,0.0,0.0,0.0,0.0,0.0,0.0,0.0,0.0,0.0,0.0,0.0,0.0,0.0,0.0,0.0,0.0,0.0,0.0,0.0,0.0,0.0,0.0,0.0,0.0,0.0,0.0,0.0,0.0,0.0,0.0,0.0,0.0,0.0,0.0,0.0,0.0,0.0,0.0,0.0,0.0,0.0,0.0,0.0,0.0,0.0,0.0,0.0,0.0,0.0,0.0,0.0,0.0,-1.2748,0.0,-1.9157,-2.1752,-2.375,-2.5443,0.0,0.0,0.0,0.0,0.0,0.0,0.0,0.0,0.0,0.0,0.0,0.0,0.0,0.0,0.0,0.0,0.0,0.0,0.0,0.0,0.0,0.0,0.0,0.0,0.0,0.0,0.0,0.0,0.0,0.0,0.0,0.0,0.0,0.0,0.0,0.0,0.0,0.0,0.0,0.0,0.0,0.0,0.0,0.0,0.0,0.0,0.0,0.0,0.0,0.0,0.0,0.0,0.0,0.0,0.0,0.0,0.0,0.0,0.0,0.0,0.0,0.0,0.0,0.0,0.0,0.0,0.0,0.0,0.0,0.0,0.0,0.0,0.0,0.0,0.0,0.0,0.0,0.0,0.0,0.0,0.0,0.0,0.0,0.0,0.0,0.0,0.0,0.0,0.0,0.0,0.0,0.0,0.0,0.0,0.0,0.0,0.0,0.0,0.0,0.0,0.0,0.0,0.0,0.0,0.0,0.0,0.0,0.0,-1.1673,-1.4292,-1.6504,-1.8959,-2.1496,-2.3664,-2.5348,0.0,0.0,0.0,0.0,0.0,0.0,0.0,0.0,0.0,0.0,0.0,0.0,0.0,0.0,0.0,0.0,0.0,0.0,0.0,0.0,0.0,0.0,0.0,0.0,0.0,0.0,0.0,0.0,0.0,0.0,0.0,0.0,0.0,0.0,0.0,0.0,0.0,0.0,0.0,0.0,0.0,0.0,0.0,0.0,0.0,0.0,0.0,0.0,0.0,0.0,0.0,0.0,0.0,0.0,0.0,0.0,0.0,0.0,0.0,0.0,0.0,0.0,0.0,0.0,0.0,0.0,0.0,0.0,0.0,0.0,0.0,0.0,0.0,0.0,0.0,0.0,0.0,0.0,0.0,0.0,0.0,0.0,0.0,0.0,0.0,0.0,0.0,0.0,0.0,0.0,0.0,0.0,0.0,0.0,0.0,0.0,0.0,0.0,0.0,0.0,0.0,0.0,0.0,0.0,0.0,0.0,0.0,0.0,0.0,-1.533,-1.736,-1.9629,-2.2054,-2.3846,-2.5348,0.0,0.0,0.0,0.0,0.0,0.0,0.0,0.0,0.0,0.0,0.0,0.0,0.0,0.0,0.0,0.0,0.0,0.0,0.0,0.0,0.0,0.0,0.0,0.0,0.0,0.0,0.0,0.0,0.0,0.0,0.0,0.0,0.0,0.0,0.0,0.0,0.0,0.0,0.0,0.0,0.0,0.0,0.0,0.0,0.0,0.0,0.0,0.0,0.0,0.0,0.0,0.0,0.0,0.0,0.0,0.0,0.0,0.0,0.0,0.0,0.0,0.0,0.0,0.0,0.0,0.0,0.0,0.0,0.0,0.0,0.0,0.0,0.0,0.0,0.0,0.0,0.0,0.0,0.0,0.0,0.0,0.0,0.0,0.0,0.0,0.0,0.0,0.0,0.0,0.0,0.0,0.0,0.0,0.0,0.0,0.0,0.0,0.0,0.0,0.0,0.0,0.0,0.0,0.0,0.0,0.0,0.0,0.0,0.0,-1.5377,-1.7153,-1.909,-2.1328,-2.3047,-2.4542,-2.5568,0.0,0.0,0.0,0.0,0.0,0.0,0.0,0.0,0.0,0.0,0.0,0.0,0.0,0.0,0.0,0.0,0.0,0.0,0.0,0.0,0.0,0.0,0.0,0.0,0.0,0.0,0.0,0.0,0.0,0.0,0.0,0.0,0.0,0.0,0.0,0.0,0.0,0.0,0.0,0.0,0.0,0.0,0.0,0.0,0.0,0.0,0.0,0.0,0.0,0.0,0.0,0.0,0.0,0.0,0.0,0.0,0.0,0.0,0.0,0.0,0.0,0.0,0.0,0.0,0.0,0.0,0.0,0.0,0.0,0.0,0.0,0.0,0.0,0.0,0.0,0.0,0.0,0.0,0.0,0.0,0.0,0.0,0.0,0.0,0.0,0.0,0.0,0.0,0.0,0.0,0.0,0.0,0.0,0.0,0.0,0.0,0.0,0.0,0.0,0.0,0.0,0.0,0.0,0.0,0.0,0.0,0.0,0.0,-1.4586,-1.6041,-1.7654,-1.9654,-2.1621,-2.3037,0.0,0.0,0.0,0.0,0.0,0.0,0.0,0.0,0.0,0.0,0.0,0.0,0.0,0.0,0.0,0.0,0.0,0.0,0.0,0.0,0.0,0.0,0.0,0.0,0.0,0.0,0.0,0.0,0.0,0.0,0.0,0.0,0.0,0.0,0.0,0.0,0.0,0.0,0.0,0.0,0.0,0.0,0.0,0.0,0.0,0.0,0.0,0.0,0.0,0.0,0.0,0.0,0.0,0.0,0.0,0.0,0.0,0.0,0.0,0.0,0.0,0.0,0.0,0.0,0.0,0.0,0.0,0.0,0.0,0.0,0.0,0.0,0.0,0.0,0.0,0.0,0.0,0.0,0.0,0.0,0.0,0.0,0.0,0.0,0.0,0.0,0.0,0.0,0.0,0.0,0.0,0.0,0.0,0.0,0.0,0.0,0.0,0.0,0.0,0.0,0.0,0.0,0.0,0.0,0.0,0.0,0.0,0.0,0.0,-1.3181,-1.4207,-1.5989,-1.8652,-2.0343,-2.156,0.0,0.0,0.0,0.0,0.0,0.0,0.0,0.0,0.0,0.0,0.0,0.0,0.0,0.0,0.0,0.0,0.0,0.0,0.0,0.0,0.0,0.0,0.0,0.0,0.0,0.0,0.0,0.0,0.0,0.0,0.0,0.0,0.0,0.0,0.0,0.0,0.0,0.0,0.0,0.0,0.0,0.0,0.0,0.0,0.0,0.0,0.0,0.0,0.0,0.0,0.0,0.0,0.0,0.0,0.0,0.0,0.0,0.0,0.0,0.0,0.0,0.0,0.0,0.0,0.0,0.0,0.0,0.0,0.0,0.0,0.0,0.0,0.0,0.0,0.0,0.0,0.0,0.0,0.0,0.0,0.0,0.0,0.0,0.0,0.0,0.0,0.0,0.0,0.0,0.0,0.0,0.0,0.0,0.0,0.0,0.0,0.0,0.0,0.0,0.0,0.0,0.0,0.0,0.0,0.0,0.0,0.0,0.0,-1.0839,-1.2633,-1.3347,-1.4874,-1.709,-1.8665,-1.9929,0.0,0.0,0.0,0.0,0.0,0.0,0.0,0.0,0.0,0.0,0.0,0.0,0.0,0.0,0.0,0.0,0.0,0.0,0.0,0.0,0.0,0.0,0.0,0.0,0.0,0.0,0.0,0.0,0.0,0.0,0.0,0.0,0.0,0.0,0.0,0.0,0.0,0.0,0.0,0.0,0.0,0.0,0.0,0.0,0.0,0.0,0.0,0.0,0.0,0.0,0.0,0.0,0.0,0.0,0.0,0.0,0.0,0.0,0.0,0.0,0.0,0.0,0.0,0.0,0.0,0.0,0.0,0.0,0.0,0.0,0.0,0.0,0.0,0.0,0.0,0.0,0.0,0.0,0.0,0.0,0.0,0.0,0.0,0.0,0.0,0.0,0.0,0.0,0.0,0.0,0.0,0.0,0.0,0.0,0.0,0.0,0.0,0.0,0.0,0.0,0.0,0.0,0.0,0.0,0.0,0.0,0.0,0.0,-1.0925,-1.2648,-1.3281,-1.4303,-1.5555,-1.714,-1.8305,0.0,0.0,0.0,0.0,0.0,0.0,0.0,0.0,0.0,0.0,0.0,0.0,0.0,0.0,0.0,0.0,0.0,0.0,0.0,0.0,0.0,0.0,0.0,0.0,0.0,0.0,0.0,0.0,0.0,0.0,0.0,0.0,0.0,0.0,0.0,0.0,0.0,0.0,0.0,0.0,0.0,0.0,0.0,0.0,0.0,0.0,0.0,0.0,0.0,0.0,0.0,0.0,0.0,0.0,0.0,0.0,0.0,0.0,0.0,0.0,0.0,0.0,0.0,0.0,0.0,0.0,0.0,0.0,0.0,0.0,0.0,0.0,0.0,0.0,0.0,0.0,0.0,0.0,0.0,0.0,0.0,0.0,0.0,0.0,0.0,0.0,0.0,0.0,0.0,0.0,0.0,0.0,0.0,0.0,0.0,0.0,0.0,0.0,0.0,0.0,0.0,0.0,0.0,0.0,0.0,0.0,0.0,0.0,-1.1021,-1.2651,-1.4084,-1.5257,-1.6103,-1.6857,-1.7661,0.0,0.0,0.0,0.0,0.0,0.0,0.0,0.0,0.0,0.0,0.0,0.0,0.0,0.0,0.0,0.0,0.0,0.0,0.0,0.0,0.0,0.0,0.0,0.0,0.0,0.0,0.0,0.0,0.0,0.0,0.0,0.0,0.0,0.0,0.0,0.0,0.0,0.0,0.0,0.0,0.0,0.0,0.0,0.0,0.0,0.0,0.0,0.0,0.0351,0.0,0.0,0.0,0.0,0.0,0.0,0.0,0.0,0.0,0.0,0.0,0.0,0.0,0.0,0.0,0.0,0.0,0.0,0.0,0.0,0.0,0.0,0.0,0.0,0.0,0.0,0.0,0.0,0.0,0.0,0.0,0.0,0.0,0.0,0.0,0.0,0.0,0.0,0.0,0.0,0.0,0.0,0.0,0.0,0.0,0.0,0.0,0.0,0.0,0.0,0.0,0.0,0.0,0.0,0.0,0.0,0.0,0.0,0.0,-1.1187,-1.2725,-1.4526,-1.5842,-1.6684,-1.7413,-1.8011,0.0,0.0,0.0,0.0,0.0,0.0,0.0,0.0,0.0,0.0,0.0,0.0,0.0,0.0,0.0,0.0,0.0,0.0,0.0,0.0,0.0,0.0,0.0,0.0,0.0,0.0,0.0,0.0,0.0,0.0,0.0,0.0,0.0,0.0,0.0,0.0,0.0,0.0,0.0,0.0,0.0,0.0,0.0,0.0,0.0,0.0,0.0,0.0,0.0,0.0,0.0,0.0,0.0,0.0,0.0,0.0,0.0,0.0,0.0,0.0,0.0,0.0,0.0,0.0,0.0,0.0,0.0,0.0,0.0,0.0,0.0,0.0,0.0,0.0,0.0,0.0,0.0,0.0,0.0,0.0,0.0,0.0,0.0,0.0,0.0,0.0,0.0,0.0,0.0,0.0,0.0,0.0,0.0,0.0,0.0,0.0,0.0,0.0,0.0,0.0,0.0,0.0,0.0,0.0,0.0,0.0,0.0,-1.0128,-1.1541,-1.3203,-1.4995,-1.6463,-1.7443,-1.8576,-1.9047,-1.8938,0.0,0.0,0.0,0.0,0.0,0.0,0.0,0.0,0.0,0.0,0.0,0.0,0.0,0.0,0.0,0.0,0.0,0.0,0.0,0.0,0.0,0.0,0.0,0.0,0.0,0.0,0.0,0.0,0.0,0.0,0.0,0.0,0.0,0.0,0.0,0.0,0.0,0.0,-0.9653,-0.8106,0.0,0.0,0.0,0.0,0.0,0.0,0.0,0.0,-0.6075,0.0,0.0,0.0,0.0,0.0,0.0,0.0,0.0,0.0,0.0,0.0,0.0,0.0,0.0,0.0,0.0,0.0,0.0,0.0,0.0,0.0,0.0,0.0,0.0,0.0,0.0,0.0,0.0,0.0,0.0,0.0,0.0,0.0,0.0,0.0,0.0,0.0,0.0,0.0,0.0,0.0,0.0,0.0,0.0,0.0,0.0,0.0,0.0,0.0,0.0,0.0,0.0,0.0,0.0,0.0,0.0,-0.9179,-1.1536,-1.3081,-1.396,-1.6535,-1.8262,-1.8945,-1.9937,-2.0496,-2.0473,0.0,0.0,0.0,0.0,0.0,0.0,0.0,0.0,0.0,0.0,0.0,0.0,0.0,0.0,0.0,0.0,0.0,0.0,0.0,0.0,0.0,0.0,0.0,0.0,0.0,0.0,0.0,0.0,0.0,0.0,0.0,0.0,0.0,0.0,0.0,0.0,0.0,0.0,0.0,-1.3946,-1.4014,0.0,0.0,0.0,0.0,0.0,0.0,0.0,0.0,-1.1194,0.0,0.0,0.0,0.0,0.0,0.0,0.0,0.0,0.0,0.0,0.0,0.0,0.0,0.0,0.0,0.0,0.0,0.0,0.0,0.0,0.0,0.0,0.0,0.0,0.0,0.0,0.0,0.0,0.0,0.0,0.0,0.0,0.0,0.0,0.0,0.0,0.0,0.0,0.0,0.0,0.0,0.0,0.0,0.0,0.0,0.0,0.0,0.0,0.0,0.0,0.0,0.0,0.0,0.0,0.0,-1.0551,-1.262,-1.43,-1.5287,-1.745,-1.8938,-1.968,-2.0806,-2.1278,0.0,0.0,0.0,0.0,0.0,0.0,0.0,0.0,0.0,0.0,0.0,0.0,0.0,0.0,0.0,0.0,0.0,0.0,0.0,0.0,0.0,0.0,0.0,0.0,0.0,0.0,0.0,0.0,0.0,0.0,0.0,0.0,0.0,0.0,0.0,0.0,0.0,0.0,0.0,0.0,-1.6382,-1.6556,-1.4418,0.0,0.0,0.0,0.0,0.0,0.0,-1.4991,-1.4671,0.0,0.0,0.0,0.0,0.0,0.0,0.0,0.0,0.0,0.0,0.0,0.0,0.0,0.0,0.0,0.0,0.0,0.0,0.0,0.0,0.0,0.0,0.0,0.0,0.0,0.0,0.0,0.0,0.0,0.0,0.0,0.0,0.0,0.0,0.0,0.0,0.0,0.0,0.0,0.0,0.0,0.0,0.0,0.0,0.0,0.0,0.0,0.0,0.0,0.0,0.0,0.0,0.0,0.0,0.0,-1.1897,-1.3767,-1.5374,-1.6461,-1.8178,-1.9487,-2.0385,-2.135,-2.1811,0.0,0.0,0.0,0.0,0.0,0.0,0.0,0.0,0.0,0.0,0.0,0.0,0.0,0.0,0.0,0.0,0.0,0.0,0.0,0.0,0.0,0.0,0.0,0.0,0.0,0.0,0.0,0.0,0.0,0.0,0.0,0.0,0.0,0.0,0.0,0.0,0.0,0.0,0.0,0.0,0.0,-1.7679,-1.7003,-1.6118,0.0,0.0,0.0,0.0,-1.6598,-1.7377,0.0,0.0,0.0,0.0,0.0,0.0,0.0,0.0,0.0,0.0,0.0,0.0,0.0,0.0,0.0,0.0,0.0,0.0,0.0,0.0,0.0,0.0,0.0,0.0,0.0,0.0,0.0,0.0,0.0,0.0,0.0,0.0,0.0,0.0,0.0,0.0,0.0,0.0,0.0,0.0,0.0,0.0,0.0,0.0,0.0,0.0,0.0,0.0,0.0,0.0,0.0,0.0,0.0,0.0,0.0,0.0,-1.3038,-1.5021,-1.6425,-1.7088,-1.8909,-2.0423,-2.1354,-2.2291,-2.2719,0.0,0.0,0.0,0.0,0.0,0.0,0.0,0.0,0.0,0.0,0.0,0.0,0.0,0.0,0.0,0.0,0.0,0.0,0.0,0.0,0.0,0.0,0.0,0.0,0.0,0.0,0.0,0.0,0.0,0.0,0.0,0.0,0.0,0.0,0.0,0.0,0.0,0.0,0.0,0.0,0.0,-1.8031,-1.7616,-1.7765,-1.7879,0.0,0.0,-2.0298,-1.9732,-2.148,0.0,0.0,0.0,0.0,0.0,0.0,0.0,0.0,0.0,0.0,0.0,0.0,0.0,0.0,0.0,0.0,0.0,0.0,0.0,0.0,0.0,0.0,0.0,0.0,0.0,0.0,0.0,0.0,0.0,0.0,0.0,0.0,0.0,0.0,0.0,0.0,0.0,0.0,0.0,0.0,0.0,0.0,0.0,0.0,0.0,0.0,0.0,0.0,0.0,0.0,0.0,0.0,0.0,0.0,0.0,-1.4358,-1.4581,-1.6219,-1.7539,-1.8297,-1.953,-2.0655,-2.1651,-2.2431,-2.2679,0.0,0.0,0.0,0.0,0.0,0.0,0.0,0.0,0.0,0.0,0.0,0.0,0.0,0.0,0.0,0.0,0.0,0.0,0.0,0.0,0.0,0.0,0.0,0.0,0.0,0.0,0.0,0.0,0.0,0.0,0.0,0.0,0.0,0.0,0.0,0.0,0.0,0.0,0.0,0.0,0.0,0.0,-2.0449,-2.0501,0.0,0.0,0.0,-2.3558,-2.3372,0.0,0.0,0.0,0.0,0.0,0.0,0.0,0.0,0.0,0.0,0.0,0.0,0.0,0.0,0.0,0.0,0.0,0.0,0.0,0.0,0.0,0.0,0.0,0.0,0.0,0.0,0.0,0.0,0.0,0.0,0.0,0.0,0.0,0.0,0.0,0.0,0.0,0.0,0.0,0.0,0.0,0.0,0.0,0.0,0.0,0.0,0.0,0.0,0.0,0.0,0.0,0.0,0.0,0.0,0.0,0.0,0.0,-1.5922,-1.7178,-1.8457,-1.9508,-2.0152,-2.1106,-2.2242,-2.2686,0.0,0.0,0.0,0.0,0.0,0.0,0.0,0.0,0.0,0.0,0.0,0.0,0.0,0.0,0.0,0.0,0.0,0.0,0.0,0.0,0.0,0.0,0.0,0.0,0.0,0.0,0.0,-1.5941,0.0,0.0,0.0,0.0,0.0,0.0,0.0,0.0,0.0,0.0,0.0,0.0,0.0,0.0,-2.1624,-2.2865,-2.3078,-2.3537,0.0,0.0,-2.6656,-2.6751,-2.7459,-2.7616,0.0,0.0,0.0,0.0,0.0,0.0,0.0,0.0,0.0,0.0,0.0,0.0,0.0,0.0,0.0,0.0,0.0,0.0,0.0,0.0,0.0,0.0,0.0,0.0,0.0,0.0,0.0,0.0,0.0,0.0,0.0,0.0,0.0,0.0,0.0,0.0,0.0,0.0,0.0,0.0,0.0,0.0,0.0,0.0,0.0,0.0,0.0,0.0,0.0,0.0,0.0,0.0,0.0,0.0,-1.6413,-1.674,-1.7997,-1.9186,-2.0128,-2.0907,-2.1972,-2.3269,-2.3186,-2.3241,0.0,0.0,0.0,0.0,0.0,0.0,0.0,0.0,0.0,0.0,0.0,0.0,0.0,0.0,0.0,0.0,0.0,0.0,0.0,0.0,0.0,0.0,0.0,0.0,0.0,0.0,0.0,0.0,0.0,0.0,0.0,0.0,0.0,0.0,0.0,0.0,0.0,0.0,0.0,0.0,0.0,-2.2995,-2.3992,-2.4887,-2.592,0.0,-2.8614,-2.9614,-2.9194,-3.0396,-3.0218,-2.7198,0.0,0.0,0.0,0.0,0.0,0.0,0.0,0.0,0.0,0.0,0.0,0.0,0.0,0.0,0.0,0.0,0.0,0.0,0.0,0.0,0.0,0.0,0.0,0.0,0.0,0.0,0.0,0.0,0.0,0.0,0.0,0.0,0.0,0.0,0.0,0.0,0.0,0.0,0.0,0.0,0.0,0.0,0.0,0.0,0.0,0.0,0.0,0.0,0.0,0.0,0.0,0.0,0.0,-1.692,-1.732,-1.8107,-1.9201,-2.037,-2.0903,-2.1781,-2.3023,-2.3018,-2.2774,0.0,0.0,0.0,0.0,0.0,0.0,0.0,0.0,0.0,0.0,0.0,0.0,0.0,0.0,0.0,0.0,0.0,0.0,0.0,0.0,0.0,0.0,0.0,0.0,0.0,0.0,0.0,0.0,-1.6367,-1.6944,-1.8156,0.0,0.0,0.0,0.0,0.0,0.0,0.0,0.0,0.0,0.0,-2.4439,-2.5895,-2.6811,0.0,0.0,-3.0089,-3.0626,-3.0711,-3.0789,-3.0327,-2.8626,-2.7643,0.0,0.0,0.0,0.0,0.0,0.0,0.0,0.0,0.0,0.0,0.0,0.0,0.0,0.0,0.0,0.0,0.0,0.0,0.0,0.0,0.0,0.0,0.0,0.0,0.0,0.0,0.0,0.0,0.0,0.0,0.0,0.0,0.0,0.0,0.0,0.0,0.0,0.0,0.0,0.0,0.0,0.0,0.0,0.0,0.0,0.0,0.0,0.0,0.0,0.0,0.0,0.0,-1.7369,-1.7853,-1.824,-1.9269,-2.088,-2.1248,-2.1963,-2.3067,-2.2862,-2.2581,0.0,0.0,0.0,0.0,0.0,0.0,0.0,0.0,0.0,0.0,0.0,0.0,0.0,0.0,0.0,0.0,0.0,0.0,0.0,0.0,0.0,0.0,0.0,0.0,0.0,0.0,0.0,0.0,-1.7047,-1.7911,-1.9017,0.0,0.0,0.0,0.0,0.0,0.0,0.0,0.0,0.0,0.0,-2.5969,-2.7562,-2.8518,-2.9555,-3.0658,-3.1173,-3.1467,-3.1528,-3.1178,-3.0459,-2.9437,0.0,0.0,0.0,0.0,0.0,0.0,0.0,0.0,0.0,0.0,0.0,0.0,0.0,0.0,0.0,0.0,0.0,0.0,0.0,0.0,0.0,0.0,0.0,0.0,0.0,0.0,0.0,0.0,0.0,0.0,-2.0374,0.0,0.0,0.0,0.0,0.0,0.0,0.0,0.0,0.0,0.0,0.0,0.0,0.0,0.0,0.0,0.0,0.0,0.0,0.0,0.0,0.0,0.0,-1.7566,-1.8382,-1.8604,-1.965,-2.1433,-2.2048,-2.2664,-2.3432,-2.2893,-2.2495,-2.245,0.0,0.0,0.0,0.0,0.0,0.0,0.0,0.0,0.0,0.0,0.0,0.0,0.0,0.0,0.0,0.0,0.0,0.0,0.0,0.0,0.0,0.0,0.0,0.0,0.0,0.0,-1.7173,-1.7905,-1.8534,0.0,0.0,0.0,0.0,0.0,0.0,0.0,0.0,0.0,0.0,-2.5905,-2.7556,-2.874,-3.0097,-3.1064,-3.1467,-3.2152,-3.2391,-3.1708,-3.1586,-3.1028,0.0,0.0,0.0,0.0,0.0,0.0,0.0,0.0,0.0,0.0,0.0,0.0,0.0,0.0,0.0,0.0,0.0,0.0,0.0,0.0,0.0,0.0,0.0,0.0,0.0,0.0,0.0,-1.8847,-1.9161,0.0,0.0,0.0,0.0,0.0,0.0,0.0,0.0,0.0,0.0,0.0,-1.6671,-1.6859,0.0,0.0,0.0,0.0,0.0,0.0,0.0,0.0,0.0,0.0,0.0,0.0,-1.7666,-1.8091,-1.8555,-1.9491,-2.0922,-2.1405,-2.1892,-2.2554,-2.2116,-2.1609,-2.0922,0.0,0.0,0.0,0.0,0.0,0.0,0.0,0.0,0.0,0.0,0.0,0.0,0.0,0.0,0.0,0.0,0.0,0.0,0.0,0.0,0.0,0.0,0.0,0.0,0.0,-1.716,0.0,0.0,0.0,0.0,0.0,0.0,0.0,0.0,0.0,0.0,0.0,-2.4948,-2.5766,-2.7008,-2.8332,-2.9458,-3.062,-3.1489,0.0,0.0,0.0,0.0,0.0,0.0,0.0,0.0,0.0,0.0,0.0,0.0,0.0,0.0,-2.6627,-2.6135,-2.5937,-2.5857,-2.5857,0.0,0.0,0.0,0.0,0.0,0.0,0.0,0.0,0.0,0.0,0.0,0.0,0.0,0.0,-1.8438,0.0,-1.8565,0.0,0.0,0.0,0.0,0.0,0.0,0.0,0.0,-1.6259,-1.6445,-1.6529,-1.7117,-1.7181,0.0,-1.6842,-1.6445,0.0,0.0,0.0,0.0,0.0,0.0,0.0,0.0,-1.7562,-1.8282,-1.8686,-1.9463,-2.0627,-2.0881,-2.1203,-2.1752,-2.1417,-2.0694,-1.9696,-1.8752,-1.8034,0.0,0.0,0.0,0.0,0.0,0.0,0.0,0.0,0.0,0.0,0.0,0.0,0.0,0.0,0.0,0.0,0.0,0.0,0.0,0.0,0.0,0.0,0.0,-1.7567,0.0,0.0,0.0,0.0,0.0,0.0,0.0,0.0,0.0,-2.3973,-2.4964,-2.5878,-2.6566,-2.8106,-2.9236,-2.9975,0.0,0.0,0.0,0.0,0.0,0.0,0.0,-3.004,-2.9716,-2.9379,-2.8826,-2.7929,-2.8135,-2.8342,-2.7953,0.0,0.0,-2.7166,-2.6917,-2.6837,-2.6844,-2.6837,-2.6844,-2.6844,-2.7127,-2.7341,0.0,0.0,0.0,0.0,0.0,0.0,0.0,0.0,-1.832,-1.8101,0.0,-1.813,0.0,0.0,0.0,0.0,0.0,-1.566,0.0,0.0,-1.5653,-1.5941,-1.624,-1.7403,-1.7557,-1.6996,-1.6984,-1.6857,-1.6556,-1.6365,0.0,0.0,0.0,0.0,0.0,0.0,-1.7373,-1.8763,-1.8783,-1.9339,-2.0587,-2.0608,-2.0723,-2.1081,-2.0622,-1.9672,-1.8597,-1.8242,-1.7535,-1.6448,-1.6642,0.0,0.0,0.0,0.0,0.0,0.0,0.0,0.0,0.0,0.0,0.0,0.0,0.0,0.0,0.0,0.0,0.0,0.0,0.0,0.0,-1.7967,0.0,0.0,0.0,0.0,0.0,0.0,0.0,0.0,0.0,0.0,-2.3977,-2.5448,-2.6663,-2.6712,0.0,0.0,0.0,0.0,-3.2364,-3.1703,-3.1582,-3.1211,-3.0155,-3.027,-3.0218,-2.9509,0.0,0.0,-2.8757,-2.9206,-2.9336,-2.8608,-2.8666,-2.8695,-2.8088,-2.7708,-2.751,-2.7503,-2.7503,-2.751,-2.7503,-2.7503,-2.7785,-2.0637,0.0,0.0,0.0,0.0,-1.8244,-1.7986,-1.7743,-1.7042,-1.7014,-1.7245,-1.6273,0.0,0.0,0.0,0.0,0.0,0.0,-1.5258,-1.6001,-1.5947,-1.6085,-1.6517,-1.7207,-1.7343,-1.6805,-1.6805,-1.6476,-1.5831,-1.5792,-1.5712,-1.5674,0.0,0.0,0.0,0.0,-1.7125,-1.7754,-1.8295,-1.8951,-1.9633,-1.9888,-1.9881,-1.9881,-1.9452,-1.9074,-1.8423,-1.8191,-1.7681,-1.6881,-1.6738,0.0,0.0,0.0,0.0,0.0,0.0,0.0,0.0,0.0,0.0,0.0,0.0,0.0,0.0,0.0,0.0,0.0,0.0,0.0,-1.7455,-1.8203,-1.8913,0.0,0.0,0.0,0.0,0.0,0.0,0.0,0.0,0.0,-2.4789,-2.5494,-2.6447,0.0,0.0,-2.9773,-3.0295,-3.1265,-3.1685,-3.1556,-3.1456,0.0,-3.075,-3.0576,-3.0296,-2.9749,-2.9792,-2.9712,-2.944,-2.9213,-2.9027,-2.8747,-2.8827,-2.882,-2.8659,-2.806,-2.7697,-2.7697,-2.769,-2.7697,-2.7697,-2.8147,-2.8384,-2.1362,-2.0736,-1.9563,-1.8889,-1.8414,-1.7981,-1.7633,-1.7434,-1.6517,-1.6501,-1.7166,-1.5533,-1.463,-1.4481,-1.448,0.0,0.0,0.0,-1.5281,-1.6211,-1.5713,-1.571,-1.6187,-1.6544,-1.649,-1.6172,-1.6149,-1.5951,-1.5486,-1.5063,-1.4814,-1.4817,0.0,0.0,-1.5523,-1.5797,-1.6302,-1.7047,-1.7436,-1.8021,-1.869,-1.8943,-1.9006,-1.8867,-1.8489,-1.8227,-1.7997,-1.7663,-1.7131,-1.6523,-1.6276,-1.5744,0.0,0.0,0.0,0.0,0.0,0.0,0.0,0.0,0.0,0.0,0.0,-1.7272,-1.6955,0.0,0.0,0.0,-1.6832,-1.7272,-1.7893,-1.8599,0.0,0.0,0.0,0.0,0.0,0.0,0.0,-2.3093,-2.4037,-2.4787,-2.5038,-2.5398,-2.6197,-2.7764,-2.9,-2.9868,-3.0165,0.0,-3.1591,-3.1339,-3.1328,-3.1119,-3.0609,-3.0451,-3.0365,-3.0147,-3.0044,-2.9993,-2.9572,-2.9318,-2.9167,-2.899,-2.879,-2.871,-2.871,-2.8139,-2.7717,-2.7946,-2.7841,-2.7685,-2.7678,-2.8298,-2.852,-2.2198,-2.181,-2.0365,-1.9287,-1.8327,-1.8117,-1.7792,-1.7396,-1.6396,-1.6562,-1.7351,-1.5505,-1.4522,-1.4212,-1.4171,0.0,-1.4434,-1.4937,-1.5654,-1.6263,-1.5355,-1.5144,-1.5585,-1.5411,-1.5145,-1.4836,-1.5047,-1.5165,-1.5191,-1.4203,-1.3761,-1.3727,-1.4374,-1.482,-1.4999,-1.4809,-1.5367,-1.6408,-1.6434,-1.6816,-1.7684,-1.7935,-1.8066,-1.8066,-1.767,-1.7414,-1.7426,-1.6924,-1.6323,-1.5771,-1.5362,-1.5122,-1.4772,0.0,0.0,0.0,0.0,0.0,0.0,0.0,0.0,0.0,0.0,0.0,0.0,0.0,0.0,0.0,-1.7253,0.0,-1.8453,-1.8953,0.0,0.0,0.0,-2.1033,-2.1498,-2.2228,-2.2792,-2.3085,0.0,0.0,-2.4966,-2.5293,-2.5997,-2.7324,-2.9044,-3.0138,-2.9979,-3.0943,-3.1626,-3.1,-3.0977,-3.0718,-2.9949,-3.0049,-3.0219,-3.0263,-3.0275,-2.9954,-2.9701,-2.9526,-2.9348,-2.899,-2.8644,-2.8447,-2.8447,-2.7726,-2.7516,-2.8067,-2.7855,-2.7542,-2.75,-2.7806,-2.818,-2.385,-2.3644,-2.2851,-2.1285,-1.9254,-1.8795,-1.8006,-1.7177,-1.6472,-1.6236,-1.6196,-1.4822,-1.4188,-1.407,-1.4275,-1.4844,-1.5731,-1.597,-1.6527,-1.7421,-1.6418,-1.5771,-1.5575,-1.4975,-1.4484,-1.3859,-1.392,-1.3797,-1.3628,-1.3288,-1.3166,-1.3012,-1.3149,-1.34,-1.3756,-1.4169,-1.4634,-1.5135,-1.5731,-1.6303,-1.6844,-1.6915,-1.7074,-1.7314,-1.7265,-1.7369,-1.7322,-1.7261,-1.6837,-1.5877,-1.5664,-1.5237,-1.454,-1.4659,0.0,0.0,0.0,0.0,0.0,0.0,0.0,0.0,0.0,-1.6825,-1.6825,0.0,-1.6739,0.0,-1.7761,-1.8399,-1.9006,-1.966,0.0,0.0,-2.0807,-2.1456,-2.1589,-2.2347,-2.2969,-2.3039,-2.3665,-2.404,-2.4253,-2.4804,-2.5426,-2.5952,-2.7532,-2.9045,-2.9683,-2.9918,-3.0153,-3.0522,-3.0385,-3.0042,-2.9547,-2.924,-2.9393,-2.9846,-2.95,-2.9102,-2.9518,-2.9232,-2.8961,-2.8856,-2.8644,-2.8461,-2.8417,-2.7552,-2.6918,-2.7058,-2.6941,-2.6787,-2.6487,-2.7254,-2.7835,-2.481,-2.4593,-2.3964,-2.2669,-2.0941,-2.0296,-1.937,-1.8164,-1.7108,-1.6187,-1.5482,-1.4761,-1.4298,-1.4045,-1.4595,-1.5438,-1.644,-1.6753,-1.7129,-1.7406,-1.627,-1.5408,-1.4771,-1.4032,-1.36,-1.3741,-1.3592,-1.3674,-1.3863,-1.3616,-1.3314,-1.2964,-1.2807,-1.2871,-1.3036,-1.3386,-1.377,-1.4192,-1.5027,-1.581,-1.628,-1.63,-1.6376,-1.6635,-1.6786,-1.6808,-1.6723,-1.6825,-1.65,-1.5814,-1.5687,-1.5363,-1.488,-1.4981,-1.5244,0.0,0.0,0.0,0.0,0.0,0.0,0.0,0.0,0.0,0.0,0.0,-1.7253,-1.765,-1.8295,-1.8859,-1.9413,-1.9691,-1.9873,-1.9872,-2.0519,-2.1022,-2.1321,-2.216,-2.2757,-2.2893,-2.3614,-2.3959,-2.3966,-2.4362,-2.4755,-2.4939,-2.6062,-2.7293,-2.8579,-2.9183,-2.9605,-2.9839,-2.978,-2.9636,-2.928,-2.9146,-2.9123,-2.9191,-2.8995,-2.8734,-2.8784,-2.8724,-2.8606,-2.8585,-2.8234,-2.8015,-2.8008,-2.7287,-2.646,-2.6304,-2.6161,-2.5965,-2.5915,-2.6572,-2.7136,-2.5491,-2.5227,-2.4588,-2.3911,-2.3068,-2.227,-2.0899,-1.9445,-1.7843,-1.6355,-1.5064,-1.4928,-1.4751,-1.4399,-1.5277,-1.6192,-1.6992,-1.7508,-1.7635,-1.7213,-1.5918,-1.4862,-1.4066,-1.315,-1.3004,-1.3793,-1.3747,-1.4142,-1.4955,-1.4515,-1.3947,-1.337,-1.3301,-1.3079,-1.2959,-1.2928,-1.3201,-1.3672,-1.4506,-1.5233,-1.5834,-1.5814,-1.5966,-1.6139,-1.6273,-1.6314,-1.6142,-1.6204,-1.6063,-1.5858,-1.5586,-1.5451,-1.5451,-1.5451,-1.5575,0.0,-1.5823,0.0,0.0,0.0,0.0,0.0,0.0,0.0,0.0,-1.765,-1.791,-1.8431,-1.8927,-1.9243,-1.9663,-1.9695,-1.9928,-2.0132,-2.0189,-2.0392,-2.0957,-2.1785,-2.2472,-2.2772,-2.3352,-2.3774,-2.3823,-2.4052,-2.4212,-2.4358,-2.4773,-2.5557,-2.707,-2.8204,-2.8866,-2.9002,-2.8919,-2.8826,-2.8838,-2.8956,-2.8837,-2.8613,-2.8555,-2.8389,-2.8161,-2.797,-2.8089,-2.8206,-2.7909,-2.7517,-2.7637,-2.693,-2.6275,-2.5842,-2.5568,-2.5276,-2.5375,-2.5944,-2.6507,-2.688,-2.6664,-2.5812,-2.5294,-2.4968,-2.3669,-2.1557,-1.8951,-1.8127,-1.6827,-1.5283,-1.5451,-1.5603,-1.5789,-1.6917,-1.7748,-1.8115,-1.8467,-1.8639,-1.8545,-1.7171,-1.6192,-1.5277,-1.4741,-1.4047,-1.3163,-1.3559,-1.377,-1.402,-1.4574,-1.463,-1.43,-1.4221,-1.427,-1.4285,0.0,0.0,0.0,-1.4007,-1.4465,-1.4651,-1.477,-1.5302,-1.6133,-1.6237,0.0,-1.708,-1.699,-1.6718,-1.6418,-1.6119,0.0,0.0,0.0,0.0,0.0,0.0,0.0,0.0,0.0,0.0,0.0,-1.7845,-1.8058,-1.7256,-1.7811,-1.8435,-1.8995,-1.9317,-1.9596,-1.9831,-2.044,-2.0628,-2.0469,-2.0895,-2.1254,-2.141,-2.1766,-2.2178,-2.2465,-2.264,-2.2863,-2.3092,-2.3324,-2.3625,-2.3646,-2.4172,-2.4746,-2.5091,-2.6073,-2.6986,-2.7434,-2.7437,-2.7385,-2.7555,-2.7624,-2.7763,-2.7814,-2.7833,-2.7808,-2.7954,-2.7955,-2.7832,-2.7927,-2.7693,-2.7466,-2.7466,-2.6614,-2.5946,-2.58,-2.5226,-2.4669,-2.4776,-2.539,-2.5947,-2.7093,0.0,-2.591,-2.5343,0.0,-2.3436,-2.1788,-2.0215,-1.9451,-1.7981,-1.6328,-1.6736,-1.6995,-1.7074,-1.7761,-1.8263,-1.8874,-1.8924,-1.8594,-1.815,-1.756,-1.658,-1.5512,-1.5152,-1.4735,-1.4157,-1.4135,-1.4436,-1.4949,-1.5575,-1.5579,-1.5042,-1.5263,-1.5309,-1.5307,-1.5282,-1.4959,-1.4205,-1.4538,-1.4952,-1.5178,-1.5216,-1.5752,-1.6646,-1.6679,0.0,0.0,0.0,0.0,0.0,0.0,0.0,0.0,-1.6773,0.0,-1.7041,-1.6938,-1.7016,-1.7138,-1.7277,-1.723,-1.7108,-1.7948,-1.8316,-1.8048,-1.8393,-1.8746,-1.9132,-1.9365,-1.9579,-1.9726,-1.9985,-2.0141,-2.0017,-2.0379,-2.0797,-2.0837,-2.1287,-2.1767,-2.1899,-2.2071,-2.2318,-2.2605,-2.2781,-2.2978,-2.3106,-2.3406,-2.3816,-2.3959,-2.4902,-2.5832,-2.6565,-2.6932,-2.7077,-2.737,-2.7277,-2.7237,-2.7572,-2.7493,-2.7438,-2.7459,-2.7356,-2.7169,-2.6999,-2.6877,-2.6629,-2.6453,-2.5898,-2.5513,-2.5653,-2.5366,-2.5079,-2.5072,-2.5366,-2.5513,-2.689,-2.6582,-2.567,-2.4889,-2.4326,-2.278,-2.1995,-2.1616,0.0,0.0,0.0,-1.8157,-1.8288,-1.8337,-1.8395,-1.8896,-1.9455,-1.9292,-1.87,-1.8033,-1.7867,-1.7056,-1.586,-1.5618,-1.5476,-1.5565,-1.5124,-1.5387,-1.6245,-1.6577,-1.6408,-1.5856,-1.5969,-1.6113,-1.6044,-1.6013,-1.5819,-1.5327,-1.5485,-1.5574,-1.5969,-1.5934,-1.6342,-1.7289,-1.7298,-1.7655,-1.847,-1.8264,-1.8127,-1.8175,-1.7621,-1.7298,-1.7347,-1.7394,-1.7391,-1.7451,-1.7558,-1.7544,-1.7585,-1.752,-1.7607,-1.7865,-1.8183,-1.8504,-1.9066,-1.9012,-1.8918,-1.909,-1.9314,-1.9464,-1.947,-1.9519,-1.9519,-1.9613,-1.9868,-1.9999,-2.0215,-2.0771,-2.13,-2.1358,-2.1648,-2.2017,-2.2164,-2.2345,-2.2425,-2.2788,-2.2855,-2.2949,-2.3393,-2.4224,-2.4989,-2.564,-2.6123,-2.677,-2.6954,-2.7008,-2.7028,-2.7168,-2.7154,-2.7041,-2.6888,-2.6692,-2.6385,-2.6428,-2.5932,-2.5793,-2.5478,-2.5366,-2.5373,-2.5653,-2.5513,-2.5233,-2.5513,-2.5513,-2.552,-2.7206,-2.6881,-2.567,-2.5,-2.4667,-2.3119,-2.2343,-2.1851,-2.0217,-1.9394,-1.9077,-1.8964,-1.8991,-1.9271,-1.9967,-2.0451,-2.0472,-2.0217,-2.0011,-1.9897,-1.9072,-1.8301,-1.7626,-1.7762,-1.7289,-1.6158,-1.6071,-1.6166,-1.6605,-1.6452,-1.6401,-1.6513,-1.614,-1.5982,-1.5936,-1.6022,-1.5923,-1.5928,-1.5689,-1.5574,-1.5574,-1.5663,-1.6313,-1.7404,-1.7417,-1.7893,-1.9073,-1.8922,-1.8794,-1.8674,-1.8144,-1.7997,-1.8107,-1.7481,-1.712,-1.732,-1.697,-1.6737,-1.7075,-1.7771,-1.8696,-1.9873,-1.9338,-1.8894,-1.9096,-1.9108,-1.9114,-1.909,-1.9307,-1.947,-1.9483,-1.9658,-1.9826,-1.9899,-2.0005,-2.0172,-2.0464,-2.0611,-2.0863,-2.1078,-2.1357,-2.1607,-2.1753,-2.1932,-2.2098,-2.2311,-2.258,-2.2585,-2.3079,-2.3679,-2.4245,-2.456,-2.4732,-2.4904,-2.5271,-2.5432,-2.5849,-2.6173,-2.6452,-2.6717,-2.6896,-2.6677,-2.6385,-2.6385,-2.6086,-2.5793,-2.5786,-2.5513,-2.5373,-2.5366,-2.538,-2.538,-2.552,-2.566,-2.58,-2.7116,-2.7088,-2.5999,-2.545,-2.5128,-2.3689,-2.2909,-2.2546,-2.1594,-2.0841,-2.038,-2.0274,-2.0153,-2.0046,-2.053,-2.0723,-2.0709,-2.0459,-2.0245,-2.0256,-1.9887,-1.9435,-1.8978,-1.8765,-1.8106,-1.7175,-1.6921,-1.6926,-1.685,-1.7097,-1.7161,-1.7132,-1.7154,-1.7297,-1.7619,-1.7529,-1.74,-1.74,-1.6094,-1.5438,-1.5443,-1.6126,-1.6845,-1.7845,-1.8232,-1.8859,-1.9749,-1.9498,-1.9189,-1.8969,-1.8447,-1.8112,-1.8343,-1.7744,-1.7546,-1.7649,-1.7676,-1.769,-1.7936,-1.8547,-1.9234,-1.9989,-1.9776,-1.9597,-1.9602,-1.9463,-1.9223,-1.9096,-1.9187,-1.9253,-1.9259,-1.9374,-1.9522,-1.9542,-1.9782,-2.0118,-2.0412,-2.0886,-2.1153,-2.1272,-2.155,-2.1663,-2.1687,-2.1852,-2.2064,-2.2338,-2.2478,-2.2712,-2.2839,-2.314,-2.3543,-2.3816,-2.4095,-2.4367,-2.4645,-2.4882,-2.5258,-2.5849,-2.6173,-2.6354,-2.6669,-2.6547,-2.6378,-2.6392,-2.61,-2.58,-2.5793,-2.566,-2.566,-2.5807,-2.5807,-2.596,-2.6107,-2.6399,-2.6392,-2.6996,-2.7182,-2.61,-2.5608,-2.5247,-2.4144,-2.336,-2.3135,-2.2883,-2.2397,-2.1616,-2.1509,-2.1174,-2.0923,-2.0945,-2.0845,-2.0723,-2.0615,-2.0507,-2.0507,-2.05,-2.027,-1.9924,-1.9455,-1.8874,-1.8286,-1.796,-1.7608,-1.7355,-1.7756,-1.7793,-1.7387,-1.7863,-1.8298,-1.8625,-1.8442,-1.8349,-1.8221,-1.6657,-1.5908,-1.5964,-1.6748,-1.7512,-1.8262,-1.9102,-1.9726,-2.0182,-2.0023,-1.96,-1.9218,-1.8782,-1.8577,-1.8514,-1.8251,-1.8118,-1.8252,-1.849,-1.8723,-1.8976,-1.9342,-1.977,-2.0081,-2.01,-2.0234,-2.0374,-2.0027,-1.9684,-1.9371,-1.934,-1.934,-1.9346,-1.9346,-1.9328,-1.9328,-1.9724,-2.0157,-2.0336,-2.1037,-2.1454,-2.15,-2.165,-2.175,-2.1924,-2.1984,-2.2091,-2.2365,-2.2625,-2.2916,-2.2846,-2.2866,-2.2996,-2.327,-2.3679,-2.3959,-2.4503,-2.4645,-2.4933,-2.5766,-2.5952,-2.6157,-2.6464,-2.6482,-2.6364,-2.6392,-2.6093,-2.58,-2.5793,-2.5793,-2.5946,-2.61,-2.6246,-2.6538,-2.6845,-2.6845,-2.6845,-2.6844,-2.6661,-2.5952,-2.5151,-2.4479,-2.4033,-2.3697,-2.3521,-2.3462,-2.3194,-2.2699,-2.2222,-2.1888,-2.1668,-2.1554,-2.1432,-2.1089,-2.1096,-2.1096,-2.1096,-2.1096,-2.0967,-2.0601,-2.0263,-1.9809,-1.9236,-1.8881,-1.8532,-1.8181,-1.7837,-1.7369,-1.7018,-1.7365,-1.7639,-1.74,-1.7577,-1.7685,-1.7679,-1.7174,-1.7036,-1.7254,-1.74,-1.7922,-1.8944,-1.9425,-1.9935,-2.0462,-2.0583,-2.008,-1.9362,-1.9431,-1.9399,-1.9082,-1.891,-1.8854,-1.9159,-1.8677,-1.8752,-1.9511,-1.9703,-2.0203,-2.1195,-2.0843,-2.0849,-2.1355,-2.1136,-2.0641,-2.0234,-1.9979,-1.9979,-1.9979,-1.9973,-1.9845,-1.9705,-1.9966,-2.033,-2.0786,-2.1013,-2.113,-2.1529,-2.1786,-2.1826,-2.172,-2.1879,-2.2124,-2.2425,-2.268,-2.2937,-2.2826,-2.2866,-2.2866,-2.2996,-2.327,-2.3406,-2.3672,-2.4088,-2.4624,-2.5048,-2.5659,-2.6105,-2.6413,-2.6576,-2.6385,-2.6677,-2.6239,-2.5946,-2.5939,-2.5793,-2.58,-2.6239,-2.6392,-2.6546,-2.6845,-2.6991,-2.6991,-2.6731,-2.6845,-2.6316,-2.5428,-2.4479,-2.4033,-2.3819,-2.3788,-2.326,-2.304,-2.2957,-2.2428,-2.2002,-2.201,-2.1782,-2.1561,-2.1211,-2.1211,-2.1211,-2.1211,-2.0967,-2.0838,-2.0716,-2.027,-1.9815,-1.9584,-1.9352,-1.9004,-1.8648,-1.8298,-1.7966,-1.7991,-1.8368,-1.8568,-1.8641,-1.8896,-1.903,-1.903,-1.877,-1.8569,-1.8664,-1.8664,-1.8914,-1.9431,-2.0456,-2.0883,-2.0618,-2.0723,-2.046,-1.9555,-1.953,-1.9582,-1.9549,-1.9075,-1.8928,-1.9002,-1.8826,-1.8841,-1.9344,-1.962,-2.0054,-2.0953,-2.098,-2.1166,-2.1839,-2.1727,-2.1607,-2.1362,-2.0982,-2.0609,-2.0482,-2.0361,-2.0227,-2.01,-2.0227,-2.0533,-2.0759,-2.1208,-2.1549,-2.1646,-2.1899,-2.2158,-2.1925,-2.1998,-2.2352,-2.2605,-2.2828,-2.2882,-2.2853,-2.2866,-2.2866,-2.2859,-2.2996,-2.3133,-2.34,-2.3816,-2.4438,-2.5005,-2.5812,-2.6498,-2.6788,-2.7244,-2.7405,-2.7412,-2.6969,-2.6969,-2.726,-2.6823,-2.6538,-2.6684,-2.6684,-2.6845,-2.6991,-2.7129,-2.7274,-2.6473,-2.6569,-2.6273,-2.5459,-2.4256,-2.3921,-2.3844,-2.3731,-2.3001,-2.2796,-2.2659,-2.2307,-2.2078,-2.1881,-2.1767,-2.1554,-2.1211,-2.1211,-2.1211,-2.1203,-2.0838,-2.0723,-2.0601,-2.004,-1.9815,-1.97,-1.9475,-1.9243,-1.9004,-1.8771,-1.8758,-1.8983,-1.9318,-1.9562,-1.973,-2.0052,-2.0245,-2.0232,-1.9979,-2.0011,-2.0322,-2.0322,-2.0176,-2.0049,-2.1461,-2.1881,-2.1044,-2.1197,-2.0767,-1.9857,-1.9843,-1.9833,-1.9813,-1.9549,-1.9292,-1.9283,-1.9187,-1.9311,-1.9592,-1.9866,-2.0274,-2.0985,-2.1286,-2.1658,-2.2159,-2.223,-2.2237,-2.2362,-2.1992,-2.1488,-2.1109,-2.0982,-2.0856,-2.0469,-2.0729,-2.0882,-2.1008,-2.152,-2.181,-2.173,-2.2031,-2.2271,-2.2184,-2.2358,-2.2619,-2.2799,-2.2853,-2.2866,-2.2866,-2.2866,-2.2866,-2.2866,-2.2866,-2.2996,-2.3263,-2.3679,-2.4231,-2.4775,-2.5702,-2.6556,-2.7036,-2.7567,-2.7985,-2.7695,-2.7695,-2.7695,-2.755,-2.7267,-2.7122,-2.7412,-2.7412,-2.7274,-2.7427,-2.7565,-2.7703,-2.594,-2.5809,-2.5182,-2.4565,-2.3921,-2.3697,-2.3488,-2.3473,-2.3134,-2.2613,-2.2048,-2.2075,-2.1814,-2.1274,-2.1539,-2.1554,-2.1211,-2.1211,-2.1211,-2.1089,-2.0838,-2.0716,-2.0716,-2.004,-1.9815,-1.9707,-1.9475,-1.9366,-1.9366,-1.9366,-1.9372,-1.9426,-1.982,-1.9973,-1.99,-2.0318,-2.0564,-2.0466,-2.0597,-2.1078,-2.2083,-2.2348,-2.1964,-2.1301,-2.2097,-2.2466,-2.2027,-2.1665,-2.1128,-2.0234,-2.0422,-2.0421,-2.0281,-2.0475,-2.0454,-2.0204,-2.0176,-2.0315,-2.0462,-2.0503,-2.0984,-2.1739,-2.1688,-2.2001,-2.2769,-2.2688,-2.2702,-2.2988,-2.2834,-2.2577,-2.2111,-2.1985,-2.172,-2.1188,-2.1342,-2.1484,-2.1612,-2.1659,-2.1704,-2.1844,-2.2096,-2.2131,-2.2352,-2.2659,-2.2786,-2.2853,-2.2866,-2.2866,-2.2866,-2.2866,-2.2866,-2.2866,-2.2866,-2.2866,-2.2996,-2.3679,-2.4095,-2.4768,-2.5665,-2.6424,-2.6929,-2.7461,-2.7757,-2.7962,-2.8068,-2.7917,-2.768,-2.7558,-2.755,-2.7695,-2.7848,-2.7848,-2.7855,-2.7992,-2.813,-2.5774,-2.5348,-2.4514,-2.4024,-2.3697,-2.3585,-2.3489,-2.3454,-2.2788,-2.246,-2.226,-2.1762,-2.1428,-2.1189,-2.131,-2.1325,-2.1203,-2.0967,-2.0838,-2.0838,-2.0385,-2.0155,-2.004,-1.9707,-1.9597,-1.9475,-1.9475,-1.9366,-1.9366,-1.9366,-1.9366,-1.9426,-1.9753,-1.998,-2.01,-2.0287,-2.0474,-2.0648,-2.0675,-2.1012,-2.1593,-2.2398,-2.2762,-2.269,-2.3003,-2.3135,-2.2806,-2.2262,-2.1711,-2.1166,-2.1078,-2.0914,-2.0808,-2.0779,-2.0621,-2.0291,-2.027,-2.0319,-2.0417,-2.0438,-2.073,-2.1467,-2.1405,-2.1775,-2.2551,-2.2682,-2.2755,-2.3018,-2.3155,-2.2893,-2.2827,-2.276,-2.2509,-2.1846,-2.1853,-2.1901,-2.1905,-2.1936,-2.1917,-2.2025,-2.2244,-2.2362,-2.2499,-2.2679,-2.2853,-2.2866,-2.2866,-2.2866,-2.2859,-2.2859,-2.2996,-2.2866,-2.2866,-2.2866,-2.2866,-2.3679,-2.4538,-2.5091,-2.5918,-2.6954,-2.7509,-2.7888,-2.8317,-2.8268,-2.8284,-2.8338,-2.8075,-2.8228,-2.8091,-2.7985,-2.813,-2.8282,-2.813,-2.8418,-2.8563,-2.5103,-2.4659,-2.3904,-2.3472,-2.3368,-2.336,-2.327,-2.3119,-2.2443,-2.2131,-2.2153,-2.1528,-2.1211,-2.1211,-2.1211,-2.1211,-2.1211,-2.0838,-2.0723,-2.0608,-2.004,-1.9815,-1.9822,-1.9482,-1.9366,-1.9366,-1.9366,-1.9366,-1.9366,-1.9366,-1.9366,-1.9386,-1.9659,-1.9893,-2.0074,-2.018,-2.0341,-2.0372,-2.0528,-2.0829,-2.1519,-2.2479,-2.3279,-2.3818,-2.3862,-2.3762,-2.3397,-2.2976,-2.2475,-2.1979,-2.1598,-2.132,-2.1225,-2.0967,-2.073,-2.0622,-2.0615,-2.0615,-2.0622,-2.0622,-2.088,-2.1291,-2.1334,-2.1683,-2.241,-2.2476,-2.2593,-2.2833,-2.3033,-2.311,-2.2992,-2.3074,-2.2923,-2.2556,-2.248,-2.2355,-2.2362,-2.2293,-2.23,-2.2251,-2.2438,-2.258,-2.2637,-2.2937,-2.3134,-2.3249,-2.3277,-2.3277,-2.327,-2.327,-2.327,-2.3277,-2.3277,-2.327,-2.3543,-2.4231,-2.4638,-2.5312,-2.6087,-2.71,-2.7878,-2.8277,-2.8466,-2.8545,-2.8624,-2.8546,-2.8664,-2.8694,-2.8644,-2.8395,-2.8563,-2.8715,-2.8707,-2.8851,-2.8995,-2.3904,-2.3801,-2.3239,-2.3022,-2.2901,-2.2901,-2.2796,-2.2601,-2.2237,-2.1911,-2.172,-2.1325,-2.1203,-2.1203,-2.1089,-2.1211,-2.1132,-2.078,-2.0637,-2.0608,-2.004,-1.9815,-1.9707,-1.9482,-1.9366,-1.9366,-1.9366,-1.9366,-1.9366,-1.9366,-1.9366,-1.9419,-1.9626,-1.978,-1.9813,-2.0047,-2.0059,-1.9965,-2.0106,-2.0956,-2.2241,-2.2486,-2.323,-2.4339,-2.4417,-2.4317,-2.407,-2.3635,-2.318,-2.2627,-2.2015,-2.1562,-2.1335,-2.1269,-2.1233,-2.114,-2.1233,-2.1233,-2.1211,-2.1096,-2.1227,-2.1569,-2.1672,-2.1789,-2.2096,-2.2176,-2.2206,-2.2399,-2.2722,-2.2968,-2.2864,-2.2999,-2.321,-2.3098,-2.3047,-2.3047,-2.2973,-2.2863,-2.2613,-2.2656,-2.2681,-2.2699,-2.3,-2.335,-2.3651,-2.3882,-2.3959,-2.3952,-2.3959,-2.3959,-2.3959,-2.3959,-2.3959,-2.3816,-2.4367,-2.4781,-2.5052,-2.5374,-2.6171,-2.7129,-2.7489,-2.796,-2.8134,-2.8237,-2.8419,-2.849,-2.8664,-2.8696,-2.8861,-2.8772,-2.8955,-2.9274,-2.929,-2.9282,-2.9282,-2.4016,-2.3239,-2.2909,-2.2562,-2.2335,-2.2335,-2.2335,-2.223,-2.1896,-2.1774,-2.1668,-2.1325,-2.1089,-2.0852,-2.0845,-2.0852,-2.0812,-2.0578,-2.048,-2.0312,-1.9822,-1.9482,-1.9475,-1.9482,-1.9366,-1.9366,-1.9366,-1.9366,-1.9366,-1.9366,-1.9366,-1.9392,-1.9459,-1.9613,-1.9766,-1.9706,-1.9713,-1.9787,-1.9933,-2.0369,-2.1246,-2.1723,-2.2586,-2.3782,-2.3877,-2.3986,-2.407,-2.3535,-2.3118,-2.2996,-2.237,-2.1986,-2.1869,-2.1664,-2.1547,-2.1547,-2.1547,-2.1437,-2.124,-2.1225,-2.1276,-2.135,-2.1379,-2.1518,-2.1789,-2.1854,-2.2068,-2.2327,-2.2719,-2.2822,-2.3187,-2.3588,-2.3681,-2.3467,-2.339,-2.3518,-2.369,-2.3736,-2.3355,-2.3017,-2.3398,-2.3592,-2.3782,-2.3969,-2.4278,-2.4431,-2.4503,-2.4631,-2.4503,-2.4638,-2.4638,-2.4638,-2.4503,-2.4503,-2.4788,-2.5275,-2.5635,-2.5899,-2.6602,-2.7087,-2.7429,-2.7613,-2.7786,-2.7992,-2.8166,-2.8479,-2.8514,-2.8711,-2.9036,-2.9266,-2.9567,-2.9615,-2.9695,-2.972,-2.9855,-2.3784,-2.2909,-2.2683,-2.2343,-2.2108,-2.2108,-2.1995,-2.1774,-2.1554,-2.1439,-2.1203,-2.0967,-2.0802,-2.0765,-2.0663,-2.0723,-2.0879,-2.055,-2.0447,-2.0379,-1.9787,-1.9479,-1.9386,-1.9366,-1.9366,-1.9366,-1.9366,-1.9366,-1.9366,-1.9366,-1.9366,-1.9366,-1.9366,-1.9452,-1.9613,-1.9479,-1.9472,-1.9619,-1.9633,-1.9945,-2.0762,-2.1406,-2.226,-2.3219,-2.3665,-2.3944,-2.4239,-2.3711,-2.3292,-2.3093,-2.2634,-2.2308,-2.2184,-2.1986,-2.1876,-2.1876,-2.1862,-2.1781,-2.1598,-2.1606,-2.1576,-2.1562,-2.1459,-2.1474,-2.1657,-2.1811,-2.2038,-2.2385,-2.2769,-2.3089,-2.3523,-2.3841,-2.3976,-2.4057,-2.3993,-2.4116,-2.4201,-2.4232,-2.4184,-2.4041,-2.4119,-2.4442,-2.458,-2.4803,-2.496,-2.5091,-2.5315,-2.5315,-2.5187,-2.5322,-2.5322,-2.5457,-2.5315,-2.5194,-2.5074,-2.5621,-2.6209,-2.6633,-2.6928,-2.7144,-2.7383,-2.7502,-2.759,-2.7747,-2.8098,-2.8427,-2.8611,-2.9055,-2.9413,-2.9721,-3.0036,-3.005,-3.0148,-3.0291,-3.0283,-2.3352,-2.257,-2.2578,-2.223,-2.1995,-2.1881,-2.1539,-2.1203,-2.1089,-2.0859,-2.0507,-2.0385,-2.041,-2.0634,-2.0641,-2.0726,-2.1018,-2.0791,-2.057,-2.0495,-2.008,-1.9581,-1.9466,-1.9392,-1.9366,-1.9366,-1.9366,-1.9359,-1.9366,-1.9366,-1.9366,-1.9366,-1.9366,-1.9366,-1.9406,-1.9372,-1.9379,-1.9406,-1.9399,-1.9856,-2.0751,-2.1262,-2.2134,-2.3016,-2.3543,-2.4095,-2.4322,-2.4112,-2.3635,-2.3127,-2.2725,-2.244,-2.2301,-2.2228,-2.2198,-2.2206,-2.2206,-2.2169,-2.2169,-2.2074,-2.2059,-2.1986,-2.1774,-2.1679,-2.1635,-2.1898,-2.2059,-2.2345,-2.3027,-2.3574,-2.3755,-2.4016,-2.4293,-2.4587,-2.4515,-2.4564,-2.4602,-2.4757,-2.4797,-2.5023,-2.4903,-2.4879,-2.562,-2.5611,-2.5794,-2.5897,-2.6138,-2.613,-2.6003,-2.6003,-2.6138,-2.613,-2.5996,-2.5861,-2.5742,-2.655,-2.7121,-2.7165,-2.7484,-2.7757,-2.7494,-2.7399,-2.7328,-2.7606,-2.8044,-2.8373,-2.872,-2.915,-2.965,-2.9988,-3.012,-3.0343,-3.0584,-3.0718,-3.071,-2.3111,-2.1888,-2.1668,-2.1425,-2.1067,-2.0845,-2.073,-2.0507,-2.0507,-2.0392,-2.027,-2.027,-2.0211,-2.0069,-2.0296,-2.0431,-2.0429,-2.0355,-2.0374,-2.0249,-1.9889,-1.9601,-1.9305,-1.9096,-1.901,-1.9017,-1.9127,-1.912,-1.9366,-1.9366,-1.9366,-1.9366,-1.9366,-1.9366,-1.9366,-1.9366,-1.9366,-1.9366,-1.9372,-1.9741,-2.0382,-2.0758,-2.1583,-2.2587,-2.2983,-2.3512,-2.4139,-2.3968,-2.3635,-2.3405,-2.2708,-2.2506,-2.2769,-2.263,-2.2506,-2.2506,-2.2506,-2.2403,-2.225,-2.2213,-2.2103,-2.1847,-2.1832,-2.1591,-2.1364,-2.1686,-2.2022,-2.244,-2.3027,-2.358,-2.4133,-2.4444,-2.4619,-2.4905,-2.4925,-2.4988,-2.5274,-2.559,-2.5782,-2.587,-2.5977,-2.6071,-2.6289,-2.633,-2.644,-2.6581,-2.6674,-2.68,-2.6666,-2.6666,-2.6666,-2.68,-2.6666,-2.6525,-2.6664,-2.7395,-2.7866,-2.786,-2.8084,-2.8575,-2.8068,-2.7447,-2.7335,-2.7343,-2.7972,-2.8486,-2.893,-2.9297,-2.9738,-3.0224,-3.0716,-3.0968,-3.0852,-3.1002,-3.0993,-2.2738,-2.1639,-2.1408,-2.1046,-2.0691,-2.0575,-2.028,-2.006,-1.9924,-1.9815,-1.9686,-1.9693,-1.9652,-1.9435,-1.9713,-1.99,-1.9988,-1.9916,-1.9904,-1.9963,-1.962,-1.9401,-1.9195,-1.9076,-1.9057,-1.892,-1.894,-1.9004,-1.9243,-1.9359,-1.9366,-1.9366,-1.9366,-1.9366,-1.9366,-1.9366,-1.9366,-1.9386,-1.9459,-1.9712,-2.0399,-2.0729,-2.1472,-2.2421,-2.2651,-2.3185,-2.3896,-2.3882,-2.3879,-2.3802,-2.317,-2.2852,-2.3266,-2.2937,-2.282,-2.2828,-2.2828,-2.274,-2.2623,-2.2571,-2.2491,-2.2308,-2.2191,-2.2008,-2.1898,-2.2105,-2.2438,-2.2729,-2.3337,-2.396,-2.4495,-2.468,-2.4897,-2.5048,-2.5103,-2.5234,-2.5357,-2.5517,-2.5915,-2.6149,-2.6288,-2.6616,-2.6803,-2.6883,-2.6854,-2.6871,-2.6808,-2.6934,-2.6926,-2.7067,-2.7067,-2.7067,-2.7067,-2.68,-2.702,-2.7677,-2.8108,-2.8157,-2.8712,-2.911,-2.8712,-2.7987,-2.7882,-2.7984,-2.8297,-2.8562,-2.8972,-2.9435,-2.9847,-3.0409,-3.1111,-3.1516,-3.1268,-3.1143,-3.1135,-2.2261,-2.1511,-2.1437,-2.1203,-2.0718,-2.0607,-2.022,-1.9781,-1.9488,-1.9236,-1.8997,-1.8874,-1.8992,-1.8915,-1.9266,-1.9445,-1.9632,-1.9376,-1.9375,-1.9451,-1.9375,-1.912,-1.9145,-1.912,-1.9005,-1.8835,-1.8828,-1.8894,-1.9135,-1.9336,-1.9392,-1.9419,-1.9412,-1.9366,-1.9366,-1.9366,-1.9366,-1.9399,-1.9415,-1.9863,-2.0557,-2.0996,-2.161,-2.2428,-2.2961,-2.3415,-2.3945,-2.4141,-2.419,-2.4718,-2.368,-2.342,-2.3544,-2.3355,-2.3216,-2.3201,-2.3186,-2.3054,-2.3084,-2.3018,-2.3025,-2.2879,-2.2674,-2.2601,-2.2462,-2.2697,-2.2877,-2.2983,-2.4024,-2.4386,-2.4671,-2.4956,-2.5079,-2.5103,-2.5103,-2.5103,-2.5111,-2.5135,-2.5545,-2.6168,-2.6288,-2.6671,-2.6946,-2.72,-2.72,-2.6894,-2.68,-2.68,-2.68,-2.68,-2.6934,-2.7067,-2.7067,-2.7067,-2.7335,-2.7653,-2.8156,-2.8549,-2.9162,-2.9601,-2.934,-2.8898,-2.8925,-2.8892,-2.8683,-2.8768,-2.9035,-2.9421,-3.008,-3.0642,-3.1234,-3.1439,-3.1559,-3.1418,-3.1418,-2.1439,-2.0845,-2.0634,-2.0503,-2.0378,-2.0149,-1.9871,-1.9784,-1.9206,-1.8997,-1.8874,-1.8648,-1.8693,-1.8881,-1.8964,-1.9157,-1.9286,-1.9114,-1.8955,-1.8938,-1.8938,-1.8908,-1.8846,-1.89,-1.8801,-1.8719,-1.8526,-1.8873,-1.9296,-1.9148,-1.9245,-1.9666,-1.9506,-1.9372,-1.9386,-1.9379,-1.9366,-1.9379,-1.9439,-1.9904,-2.0651,-2.1032,-2.1628,-2.2593,-2.3178,-2.3769,-2.4245,-2.4269,-2.4484,-2.4849,-2.4299,-2.3711,-2.387,-2.372,-2.3589,-2.3581,-2.3355,-2.323,-2.3355,-2.3223,-2.3003,-2.2806,-2.2848,-2.252,-2.2308,-2.2657,-2.2867,-2.317,-2.3771,-2.4471,-2.4857,-2.498,-2.5103,-2.5103,-2.5103,-2.498,-2.4757,-2.5326,-2.5894,-2.628,-2.6608,-2.6977,-2.7105,-2.7153,-2.7035,-2.6918,-2.6666,-2.6532,-2.6532,-2.6532,-2.6666,-2.68,-2.6934,-2.7067,-2.7272,-2.7675,-2.8366,-2.884,-2.9462,-2.9757,-2.964,-2.9547,-2.9253,-2.9077,-2.8785,-2.8893,-2.9201,-2.9681,-3.025,-3.0806,-3.1174,-3.1379,-3.1525,-3.1534,-3.1559,-2.0787,-2.0501,-2.0205,-2.0037,-2.003,-1.9661,-1.9476,-1.9338,-1.8836,-1.8648,-1.8421,-1.8311,-1.8311,-1.8311,-1.8599,-1.8726,-1.8577,-1.847,-1.8425,-1.8313,-1.8337,-1.8362,-1.8562,-1.8501,-1.8527,-1.8502,-1.8508,-1.8903,-1.9006,-1.9234,-1.9263,-1.9721,-1.947,-1.9482,-1.9526,-1.9439,-1.9372,-1.9406,-1.9376,-1.9836,-2.0752,-2.1342,-2.188,-2.271,-2.3368,-2.3935,-2.4023,-2.4388,-2.4627,-2.4875,-2.4564,-2.4243,-2.4208,-2.4016,-2.3908,-2.3786,-2.3799,-2.3596,-2.3736,-2.372,-2.3536,-2.3234,-2.335,-2.326,-2.3041,-2.3145,-2.3204,-2.3503,-2.3993,-2.4355,-2.498,-2.5103,-2.5103,-2.5103,-2.5103,-2.4972,-2.4873,-2.5146,-2.5516,-2.5692,-2.5762,-2.6017,-2.6323,-2.6666,-2.6706,-2.6455,-2.6398,-2.6272,-2.6272,-2.6272,-2.6398,-2.6532,-2.68,-2.6941,-2.7099,-2.7579,-2.8477,-2.9052,-2.963,-2.9901,-2.9909,-2.9707,-2.9362,-2.9244,-2.9144,-2.9226,-2.9585,-3.0087,-3.0309,-3.06,-3.0909,-3.126,-3.1482,-3.1508,-3.1542,-2.0158,-2.0087,-1.978,-1.9681,-1.9562,-1.9305,-1.9187,-1.8862,-1.8551,-1.8311,-1.8083,-1.8089,-1.7954,-1.7966,-1.8355,-1.8258,-1.812,-1.7918,-1.793,-1.8268,-1.808,-1.8233,-1.8289,-1.8447,-1.8478,-1.8404,-1.8619,-1.8772,-1.9073,-1.9151,-1.9574,-1.9735,-1.9581,-1.9529,-1.9713,-1.9519,-1.9366,-1.9392,-1.9409,-2.0007,-2.1003,-2.1524,-2.2085,-2.3079,-2.3451,-2.3885,-2.3949,-2.4298,-2.4752,-2.4659,-2.4877,-2.4923,-2.4723,-2.4307,-2.4178,-2.3885,-2.4178,-2.4216,-2.4232,-2.4232,-2.4092,-2.4108,-2.41,-2.41,-2.3946,-2.3792,-2.3799,-2.3938,-2.4232,-2.4487,-2.498,-2.5103,-2.5103,-2.5103,-2.5103,-2.5103,-2.498,-2.4734,-2.4813,-2.4952,-2.528,-2.5696,-2.5903,-2.6168,-2.609,-2.5993,-2.6077,-2.6003,-2.5876,-2.5876,-2.613,-2.6264,-2.6398,-2.7059,-2.7208,-2.7491,-2.8245,-2.8992,-2.9684,-2.9795,-2.9898,-2.979,-2.963,-2.9781,-2.9713,-2.9594,-2.9534,-2.9847,-3.0087,-3.0352,-3.0635,-3.096,-3.1217,-3.1448,-3.1491,-1.9341,-1.9089,-1.9095,-1.908,-1.9073,-1.8954,-1.8909,-1.8851,-1.8276,-1.82,-1.8188,-1.7824,-1.8058,-1.8415,-1.8292,-1.8219,-1.8171,-1.7954,-1.7915,-1.837,-1.8171,-1.8095,-1.8394,-1.8557,-1.8657,-1.8722,-1.8759,-1.9208,-1.9632,-1.9782,-1.9891,-2.0312,-1.996,-1.9714,-1.9786,-1.9533,-1.9406,-1.9412,-1.9459,-1.9986,-2.0996,-2.1476,-2.2085,-2.3194,-2.3379,-2.3614,-2.4126,-2.4242,-2.4514,-2.5194,-2.5111,-2.5127,-2.5118,-2.4683,-2.4723,-2.4924,-2.4783,-2.4734,-2.4857,-2.4726,-2.4355,-2.4232,-2.4232,-2.4108,-2.4108,-2.4108,-2.4108,-2.4108,-2.4355,-2.4734,-2.498,-2.5103,-2.5103,-2.5103,-2.5103,-2.4988,-2.4734,-2.4757,-2.4843,-2.5117,-2.5242,-2.5233,-2.5311,-2.5482,-2.5558,-2.5499,-2.5665,-2.5517,-2.5464,-2.5599,-2.5734,-2.5869,-2.6003,-2.6792,-2.7451,-2.7584,-2.8014,-2.8832,-2.9355,-2.9616,-2.9727,-2.9864,-2.9907,-2.9813,-2.9701,-2.9547,-2.9564,-2.9667,-2.9907,-3.0198,-3.0438,-3.0669,-3.0977,-3.1268,-3.1345,-1.8159,-1.7993,-1.7904,-1.8027,-1.8152,-1.8152,-1.8152,-1.8133,-1.8022,-1.796,-1.796,-1.7972,-1.7966,-1.8317,-1.8706,-1.8589,-1.82,-1.7966,-1.804,-1.8338,-1.8269,-1.8244,-1.8395,-1.8631,-1.8695,-1.8828,-1.8968,-1.9485,-2.0058,-1.9698,-2.0009,-2.0309,-2.0077,-1.9859,-2.0114,-1.9833,-1.9626,-1.9566,-1.9569,-2.0053,-2.1181,-2.1744,-2.2557,-2.2961,-2.3406,-2.3731,-2.3869,-2.4409,-2.4547,-2.4783,-2.4889,-2.502,-2.5074,-2.5186,-2.5103,-2.5444,-2.5392,-2.5464,-2.5472,-2.5349,-2.5103,-2.4865,-2.4734,-2.461,-2.461,-2.4487,-2.4363,-2.4487,-2.461,-2.4857,-2.5103,-2.5103,-2.5103,-2.5103,-2.5103,-2.4988,-2.4734,-2.4734,-2.4975,-2.5117,-2.461,-2.4482,-2.4494,-2.4637,-2.487,-2.4979,-2.5218,-2.5122,-2.5135,-2.5187,-2.5464,-2.5599,-2.5734,-2.6264,-2.7051,-2.7451,-2.7841,-2.851,-2.9193,-2.9453,-2.9513,-2.9633,-2.9616,-2.9539,-2.9427,-2.9427,-2.9393,-2.9479,-2.9761,-3.0035,-3.0275,-3.0523,-3.084,-3.1071,-3.1088,-1.663,-1.6448,-1.6408,-1.6494,-1.6856,-1.7032,-1.7014,-1.7119,-1.7572,-1.7689,-1.7541,-1.7966,-1.7985,-1.8102,-1.8738,-1.8985,-1.8206,-1.82,-1.8213,-1.8453,-1.8434,-1.8538,-1.8538,-1.8661,-1.8855,-1.9024,-1.9371,-1.967,-1.9911,-1.9665,-1.9957,-2.0316,-2.0093,-2.0021,-2.0461,-2.012,-1.9933,-1.9733,-1.9593,-2.0136,-2.1203,-2.2328,-2.3014,-2.3135,-2.3642,-2.3748,-2.3948,-2.4298,-2.4628,-2.4631,-2.4778,-2.4889,-2.4923,-2.5328,-2.562,-2.5769,-2.5998,-2.6156,-2.6075,-2.5961,-2.5725,-2.5602,-2.5357,-2.5234,-2.5111,-2.4865,-2.4734,-2.4734,-2.4857,-2.5111,-2.5103,-2.5103,-2.5103,-2.5103,-2.5111,-2.4988,-2.4865,-2.4734,-2.4734,-2.4533,-2.3984,-2.3988,-2.4245,-2.4344,-2.4713,-2.4825,-2.4934,-2.5085,-2.4974,-2.5015,-2.5187,-2.5322,-2.5592,-2.5861,-2.6525,-2.7059,-2.7592,-2.8386,-2.8914,-2.9367,-2.9359,-2.9367,-2.9359,-2.9393,-2.947,-2.947,-2.9376,-2.9316,-2.9539,-2.9795,-3.0078,-3.0292,-3.0455,-3.0592,-3.0652,-1.434,-1.4122,-1.4152,-1.4277,-1.4666,-1.5302,-1.5615,-1.5744,-1.6698,-1.7119,-1.7038,-1.7481,-1.7941,-1.8453,-1.8966,-1.9193,-1.903,-1.8544,-1.8544,-1.89,-1.8887,-1.8881,-1.8881,-1.9127,-1.9239,-1.9455,-1.9824,-1.9939,-1.9973,-2.0073,-2.0292,-2.0641,-2.0528,-2.0394,-2.0785,-2.049,-2.0054,-1.986,-1.9898,-2.0323,-2.1254,-2.2472,-2.3159,-2.3376,-2.365,-2.3899,-2.4161,-2.4477,-2.4538,-2.4744,-2.4821,-2.4984,-2.53,-2.5686,-2.598,-2.6236,-2.6447,-2.6571,-2.6571,-2.6449,-2.6205,-2.6083,-2.5717,-2.5602,-2.548,-2.5234,-2.4988,-2.5103,-2.5103,-2.5103,-2.5103,-2.5103,-2.5103,-2.5103,-2.4988,-2.4865,-2.4741,-2.4857,-2.4857,-2.461,-2.4232,-2.4232,-2.4486,-2.4459,-2.4553,-2.4668,-2.4665,-2.4818,-2.4923,-2.4952,-2.5315,-2.5457,-2.5599,-2.5869,-2.6264,-2.68,-2.7459,-2.813,-2.8659,-2.9176,-2.9307,-2.9307,-2.9307,-2.9359,-2.9436,-2.9462,-2.9359,-2.9333,-2.9376,-2.9564,-2.9864,-2.9924,-2.9932,-3.0078,-3.0335,-1.2233,-1.266,-1.2889,-1.2936,-1.3174,-1.3954,-1.4401,-1.4593,-1.556,-1.6063,-1.6366,-1.7165,-1.7701,-1.8027,-1.8219,-1.8453,-1.8655,-1.8532,-1.8655,-1.9127,-1.912,-1.9236,-1.9468,-1.9591,-1.9685,-1.9856,-2.0144,-2.0358,-2.0287,-2.0482,-2.0808,-2.13,-2.1019,-2.1005,-2.1334,-2.1238,-2.1059,-2.1015,-2.1209,-2.1664,-2.212,-2.2941,-2.3561,-2.3705,-2.3929,-2.4153,-2.4393,-2.4599,-2.4599,-2.4821,-2.4821,-2.5001,-2.5465,-2.5835,-2.633,-2.671,-2.721,-2.728,-2.6943,-2.6692,-2.6571,-2.6319,-2.6083,-2.5839,-2.5839,-2.5602,-2.5357,-2.5357,-2.5234,-2.5111,-2.498,-2.498,-2.4857,-2.4857,-2.4865,-2.461,-2.461,-2.4857,-2.498,-2.4726,-2.4479,-2.4479,-2.4479,-2.4113,-2.4215,-2.4322,-2.4342,-2.4509,-2.4693,-2.4827,-2.5212,-2.5727,-2.5869,-2.5869,-2.6272,-2.6666,-2.7193,-2.7857,-2.8535,-2.8922,-2.9176,-2.9307,-2.9307,-2.9307,-2.935,-2.935,-2.9307,-2.9342,-2.9384,-2.9513,-2.965,-2.9718,-2.9804,-3.0112,-3.0395,-1.099,-1.1677,-1.159,-1.165,-1.1768,-1.272,-1.305,-1.3243,-1.4509,-1.5095,-1.5451,-1.6564,-1.7365,-1.7371,-1.7548,-1.794,-1.8429,-1.85,-1.8765,-1.9004,-1.9352,-1.9591,-1.97,-1.9815,-2.0046,-2.0277,-2.0445,-2.0847,-2.1137,-2.1449,-2.1852,-2.1985,-2.1472,-2.1562,-2.1839,-2.1887,-2.1712,-2.1565,-2.2377,-2.2548,-2.2511,-2.3514,-2.3772,-2.3924,-2.4161,-2.4538,-2.4718,-2.483,-2.4915,-2.5198,-2.5327,-2.5475,-2.5718,-2.6416,-2.6775,-2.7116,-2.7568,-2.753,-2.7297,-2.7056,-2.6813,-2.6692,-2.6441,-2.6205,-2.6075,-2.5839,-2.5602,-2.5602,-2.5357,-2.5234,-2.5111,-2.4857,-2.4734,-2.461,-2.461,-2.4363,-2.4355,-2.4734,-2.498,-2.4734,-2.461,-2.4602,-2.4355,-2.386,-2.3761,-2.3985,-2.4141,-2.4338,-2.4714,-2.5039,-2.5366,-2.5943,-2.5869,-2.5869,-2.6272,-2.6666,-2.7193,-2.7716,-2.8263,-2.8799,-2.9185,-2.9307,-2.9307,-2.9307,-2.9307,-2.9307,-2.9307,-2.9342,-2.9384,-2.9444,-2.9513,-2.9624,-2.9778,-3.0078,-3.0292,-1.1135,-1.1038,-1.0071,-0.9865,-1.0212,-1.1127,-1.1659,-1.2018,-1.3565,-1.4173,-1.4632,-1.6069,-1.6879,-1.6934,-1.735,-1.7798,-1.8503,-1.8757,-1.8899,-1.9285,-1.9591,-1.9768,-1.9876,-2.012,-2.0277,-2.0428,-2.0786,-2.1452,-2.2089,-2.2586,-2.2457,-2.1937,-2.1864,-2.188,-2.2131,-2.2402,-2.2267,-2.2335,-2.3029,-2.3055,-2.2912,-2.3478,-2.4244,-2.3836,-2.4203,-2.4863,-2.5631,-2.5396,-2.5473,-2.609,-2.6116,-2.6187,-2.6434,-2.6982,-2.7346,-2.7458,-2.7697,-2.7633,-2.7409,-2.7297,-2.7289,-2.7056,-2.6813,-2.6449,-2.6319,-2.6075,-2.5961,-2.561,-2.548,-2.5357,-2.5103,-2.4857,-2.461,-2.461,-2.461,-2.4479,-2.4479,-2.4734,-2.498,-2.4734,-2.461,-2.4726,-2.4726,-2.4232,-2.3984,-2.4064,-2.4471,-2.4682,-2.531,-2.5669,-2.5722,-2.5889,-2.5846,-2.6003,-2.6138,-2.6666,-2.7193,-2.7584,-2.8122,-2.8659,-2.9193,-2.9185,-2.9307,-2.9307,-2.9307,-2.9307,-2.9307,-2.9325,-2.9342,-2.9325,-2.9384,-2.9521,-2.9607,-2.9804,-3.0083,-1.1787,-1.1568,-1.1021,-1.0472,-1.015,-1.0871,-1.1304,-1.1485,-1.2721,-1.3709,-1.4272,-1.541,-1.6098,-1.6322,-1.6754,-1.741,-1.7872,-1.8069,-1.8492,-1.9011,-1.9419,-1.9756,-2.0039,-2.0415,-2.0622,-2.0881,-2.1364,-2.1671,-2.2208,-2.3126,-2.3233,-2.2852,-2.2682,-2.2959,-2.3084,-2.323,-2.3149,-2.3323,-2.3879,-2.4026,-2.3888,-2.437,-2.4845,-2.4519,-2.4753,-2.529,-2.5761,-2.5926,-2.625,-2.6574,-2.6619,-2.6734,-2.7,-2.7517,-2.7767,-2.7846,-2.7949,-2.7873,-2.753,-2.7418,-2.7185,-2.7185,-2.6943,-2.6822,-2.6571,-2.6327,-2.6075,-2.5839,-2.548,-2.5226,-2.5103,-2.4857,-2.461,-2.461,-2.461,-2.4479,-2.4602,-2.4857,-2.498,-2.4857,-2.4857,-2.4849,-2.4734,-2.461,-2.4479,-2.4293,-2.473,-2.5069,-2.5735,-2.6183,-2.6183,-2.6275,-2.6241,-2.6398,-2.6532,-2.6926,-2.7193,-2.7584,-2.7981,-2.8535,-2.9079,-2.9316,-2.9307,-2.9307,-2.9307,-2.9307,-2.9307,-2.9307,-2.9307,-2.9316,-2.9367,-2.9453,-2.953,-2.9581,-2.9851,-1.2866,-1.2762,-1.2432,-1.1673,-1.0802,-1.1131,-1.1345,-1.1564,-1.2446,-1.3371,-1.4265,-1.4965,-1.5499,-1.5981,-1.6321,-1.6907,-1.7382,-1.7798,-1.8335,-1.8915,-1.9534,-1.9977,-2.0345,-2.0822,-2.1196,-2.1439,-2.1583,-2.1962,-2.2716,-2.3158,-2.3646,-2.3871,-2.3716,-2.3822,-2.3852,-2.4232,-2.4239,-2.4355,-2.4949,-2.4921,-2.4603,-2.5242,-2.5376,-2.5051,-2.5292,-2.5758,-2.6134,-2.6301,-2.6619,-2.6849,-2.7053,-2.7285,-2.7472,-2.7803,-2.7991,-2.8161,-2.814,-2.8011,-2.7521,-2.7297,-2.7081,-2.7081,-2.6943,-2.6952,-2.683,-2.6449,-2.6075,-2.5839,-2.5472,-2.5226,-2.5103,-2.4857,-2.461,-2.461,-2.461,-2.461,-2.461,-2.4857,-2.498,-2.498,-2.498,-2.4988,-2.5075,-2.4999,-2.5219,-2.5133,-2.5422,-2.5908,-2.63,-2.662,-2.637,-2.6628,-2.6784,-2.6934,-2.7193,-2.7059,-2.7059,-2.7576,-2.799,-2.856,-2.8964,-2.907,-2.9307,-2.9307,-2.9307,-2.9307,-2.9307,-2.9307,-2.9307,-2.9307,-2.9359,-2.9402,-2.955,-2.961,-2.9757,-1.4283,-1.4493,-1.3948,-1.2866,-1.1891,-1.1896,-1.2005,-1.211,-1.2772,-1.3532,-1.4315,-1.486,-1.5421,-1.5953,-1.6344,-1.6829,-1.7322,-1.7734,-1.836,-1.9181,-1.9766,-2.0379,-2.0786,-2.1229,-2.1546,-2.1653,-2.1911,-2.2391,-2.3309,-2.374,-2.4269,-2.4511,-2.4262,-2.4193,-2.41,-2.4487,-2.4363,-2.4355,-2.5464,-2.514,-2.4843,-2.5613,-2.5729,-2.5478,-2.5712,-2.6217,-2.6559,-2.6641,-2.6863,-2.7273,-2.7426,-2.7596,-2.7767,-2.7917,-2.8077,-2.8259,-2.7735,-2.7469,-2.7349,-2.7151,-2.7039,-2.6943,-2.6813,-2.6571,-2.6579,-2.6327,-2.5961,-2.5725,-2.548,-2.5357,-2.5103,-2.4857,-2.4734,-2.461,-2.4734,-2.4734,-2.4857,-2.4857,-2.498,-2.5103,-2.5111,-2.5135,-2.5254,-2.5429,-2.5778,-2.5969,-2.6248,-2.6623,-2.6862,-2.6956,-2.6706,-2.6761,-2.7067,-2.7067,-2.7067,-2.6934,-2.6926,-2.7443,-2.7857,-2.8428,-2.8832,-2.9079,-2.9193,-2.9307,-2.9307,-2.9307,-2.9307,-2.9307,-2.9307,-2.9307,-2.9307,-2.9333,-2.9604,-2.9638,-2.9636,-1.5238,-1.5458,-1.5244,-1.4917,-1.4374,-1.3511,-1.3192,-1.3192,-1.3738,-1.4277,-1.4708,-1.5244,-1.5803,-1.6285,-1.6511,-1.6889,-1.7456,-1.7562,-1.8218,-1.9083,-1.988,-2.0413,-2.0877,-2.1451,-2.1873,-2.1995,-2.2237,-2.2397,-2.2874,-2.3549,-2.3824,-2.3976,-2.4241,-2.4384,-2.454,-2.4734,-2.4734,-2.4734,-2.5333,-2.5644,-2.5059,-2.5869,-2.6329,-2.5754,-2.616,-2.6593,-2.6889,-2.6937,-2.7248,-2.7599,-2.7599,-2.7736,-2.7864,-2.7958,-2.7855,-2.7803,-2.7338,-2.6779,-2.6491,-2.6151,-2.6335,-2.647,-2.6449,-2.6327,-2.6205,-2.597,-2.5725,-2.5602,-2.5357,-2.5234,-2.5111,-2.498,-2.498,-2.498,-2.498,-2.498,-2.498,-2.498,-2.5103,-2.5103,-2.5111,-2.531,-2.5461,-2.5771,-2.6112,-2.635,-2.6623,-2.6807,-2.7097,-2.7169,-2.6988,-2.6996,-2.72,-2.7208,-2.7075,-2.6934,-2.68,-2.7059,-2.76,-2.8287,-2.8692,-2.9079,-2.9193,-2.9307,-2.9307,-2.9307,-2.9307,-2.9307,-2.9307,-2.9307,-2.9307,-2.9307,-2.9447,-2.9456,-2.9359,-1.5986,-1.6205,-1.6205,-1.6205,-1.5992,-1.4917,-1.4379,-1.4374,-1.46,-1.4922,-1.5238,-1.5672,-1.6111,-1.6555,-1.6861,-1.7054,-1.7589,-1.7806,-1.8252,-1.9055,-1.9742,-2.0332,-2.087,-2.1369,-2.173,-2.1941,-2.2237,-2.2511,-2.2621,-2.2998,-2.3325,-2.345,-2.3683,-2.3844,-2.4221,-2.4499,-2.4857,-2.4857,-2.5464,-2.5823,-2.5684,-2.6156,-2.6695,-2.6464,-2.6601,-2.6764,-2.6952,-2.714,-2.7349,-2.7519,-2.7467,-2.7586,-2.7577,-2.7577,-2.7388,-2.7094,-2.6831,-2.6227,-2.5873,-2.5542,-2.5761,-2.6181,-2.6075,-2.5961,-2.5839,-2.5602,-2.548,-2.5357,-2.5234,-2.5111,-2.5111,-2.5103,-2.5103,-2.5103,-2.5103,-2.5103,-2.5103,-2.5103,-2.5103,-2.5103,-2.5167,-2.5397,-2.5731,-2.612,-2.6607,-2.6676,-2.6859,-2.7026,-2.7137,-2.7137,-2.702,-2.7012,-2.702,-2.702,-2.7035,-2.6934,-2.68,-2.6666,-2.7342,-2.8014,-2.8543,-2.893,-2.9053,-2.9307,-2.9307,-2.9307,-2.9307,-2.9307,-2.9307,-2.9307,-2.9307,-2.9307,-2.9307,-2.9307,-2.9307,-1.673,-1.673,-1.673,-1.673,-1.6624,-1.6099,-1.5779,-1.5452,-1.5244,-1.5464,-1.5891,-1.5992,-1.6424,-1.6736,-1.7067,-1.749,-1.7799,-1.8325,-1.878,-1.929,-1.9883,-2.0258,-2.0693,-2.1175,-2.1647,-2.1813,-2.201,-2.2299,-2.252,-2.2521,-2.2697,-2.3035,-2.3196,-2.3349,-2.3669,-2.4146,-2.4394,-2.464,-2.5317,-2.5578,-2.5602,-2.6327,-2.6796,-2.6883,-2.7021,-2.6902,-2.6919,-2.6996,-2.6936,-2.6807,-2.6643,-2.6745,-2.6736,-2.6609,-2.6494,-2.6274,-2.6084,-2.5746,-2.5349,-2.5111,-2.5165,-2.5546,-2.5586,-2.5602,-2.5488,-2.5357,-2.5234,-2.5234,-2.5103,-2.5103,-2.5103,-2.5103,-2.5103,-2.5103,-2.5103,-2.5103,-2.5103,-2.5103,-2.5103,-2.5127,-2.5183,-2.5437,-2.5945,-2.6495,-2.6613,-2.6775,-2.6909,-2.6808,-2.6879,-2.6909,-2.6784,-2.6784,-2.68,-2.6823,-2.6706,-2.6534,-2.6416,-2.6119,-2.6902,-2.76,-2.8122,-2.865,-2.8914,-2.9036,-2.9176,-2.9307,-2.9307,-2.9307,-2.9307,-2.9307,-2.9307,-2.9307,-2.9307,-2.9307,-2.9307,-1.716,-1.7371,-1.7371,-1.7371,-1.7265,-1.6955,-1.6643,-1.6411,-1.6205,-1.6305,-1.6524,-1.6942,-1.716,-1.7364,-1.7799,-1.8331,-1.8646,-1.8959,-1.9204,-1.956,-1.9835,-2.032,-2.0741,-2.1018,-2.1549,-2.1873,-2.1964,-2.1911,-2.1925,-2.1933,-2.1911,-2.213,-2.2473,-2.2757,-2.3036,-2.3505,-2.3795,-2.4124,-2.4838,-2.5202,-2.5602,-2.6214,-2.6709,-2.7073,-2.7081,-2.6944,-2.6919,-2.6961,-2.6859,-2.6568,-2.6499,-2.654,-2.6222,-2.6202,-2.5991,-2.5411,-2.5085,-2.4825,-2.4537,-2.444,-2.4643,-2.502,-2.5082,-2.5218,-2.5234,-2.5111,-2.5103,-2.5103,-2.5103,-2.5103,-2.5103,-2.5103,-2.5103,-2.5103,-2.5103,-2.5103,-2.5103,-2.5103,-2.5111,-2.5151,-2.5206,-2.5391,-2.6049,-2.6245,-2.6498,-2.6737,-2.6792,-2.6643,-2.6596,-2.6612,-2.6534,-2.6401,-2.623,-2.623,-2.6067,-2.5896,-2.581,-2.5722,-2.6526,-2.7169,-2.7435,-2.7965,-2.8502,-2.8905,-2.9045,-2.9176,-2.9307,-2.9307,-2.9307,-2.9307,-2.9307,-2.9307,-2.9307,-2.9307,-2.9307,-1.7483,-1.7589,-1.7589,-1.7589,-1.7582,-1.7272,-1.706,-1.7054,-1.6842,-1.6836,-1.7047,-1.7364,-1.7687,-1.8003,-1.8325,-1.8757,-1.9071,-1.9175,-1.9398,-1.9449,-1.9672,-1.9725,-2.0033,-2.0259,-2.0457,-2.0959,-2.1264,-2.1234,-2.1205,-2.1204,-2.1292,-2.1347,-2.1781,-2.1972,-2.2127,-2.2528,-2.2803,-2.3346,-2.4047,-2.4786,-2.5349,-2.5953,-2.6571,-2.6926,-2.7056,-2.6987,-2.6884,-2.6807,-2.6713,-2.6313,-2.6262,-2.6059,-2.5671,-2.5687,-2.5559,-2.5058,-2.5013,-2.4728,-2.4521,-2.434,-2.446,-2.4682,-2.4865,-2.4944,-2.5063,-2.5103,-2.5103,-2.5103,-2.5103,-2.5103,-2.5103,-2.5103,-2.5103,-2.5103,-2.5103,-2.5103,-2.5103,-2.5103,-2.5135,-2.5167,-2.5233,-2.5376,-2.5714,-2.6029,-2.6182,-2.6153,-2.619,-2.6126,-2.608,-2.5988,-2.6036,-2.5858,-2.5789,-2.5611,-2.5434,-2.5317,-2.5476,-2.5582,-2.597,-2.6588,-2.6871,-2.7427,-2.8097,-2.851,-2.8922,-2.9053,-2.9053,-2.9307,-2.9307,-2.9307,-2.9307,-2.9307,-2.9307,-2.9307,-2.9307,-1.7582,-1.7582,-1.7582,-1.7483,-1.7589,-1.7279,-1.7384,-1.7582,-1.7054,-1.716,-1.7582,-1.7687,-1.8003,-1.8429,-1.875,-1.8974,-1.9071,-1.9168,-1.916,-1.9168,-1.8779,-1.8766,-1.887,-1.8739,-1.9304,-1.9576,-1.9939,-2.0348,-2.0562,-2.0605,-2.0564,-2.0587,-2.0845,-2.1075,-2.1438,-2.1722,-2.2006,-2.2345,-2.3315,-2.4255,-2.4941,-2.5692,-2.6277,-2.6745,-2.691,-2.6799,-2.6508,-2.6303,-2.6335,-2.5972,-2.5719,-2.5448,-2.5423,-2.5308,-2.5103,-2.5001,-2.4803,-2.4635,-2.4468,-2.4404,-2.4698,-2.4825,-2.4833,-2.4913,-2.5032,-2.5103,-2.5103,-2.5103,-2.5103,-2.5103,-2.5103,-2.5103,-2.5103,-2.5103,-2.5103,-2.5103,-2.5103,-2.5103,-2.4996,-2.5075,-2.5148,-2.5274,-2.5138,-2.544,-2.5573,-2.5527,-2.5495,-2.5461,-2.5438,-2.5363,-2.5317,-2.5242,-2.5065,-2.4852,-2.4785,-2.4728,-2.5181,-2.533,-2.5703,-2.5859,-2.6126,-2.6839,-2.7833,-2.8238,-2.8518,-2.8667,-2.8799,-2.8922,-2.9045,-2.9185,-2.9185,-2.9185,-2.9307,-2.9307,-2.9307,-1.7279,-1.7279,-1.7054,-1.7054,-1.7285,-1.7279,-1.749,-1.7911,-1.7799,-1.7799,-1.7905,-1.8115,-1.8429,-1.8757,-1.9071,-1.9175,-1.9272,-1.9056,-1.8938,-1.8729,-1.8311,-1.8013,-1.8164,-1.8097,-1.8489,-1.8931,-1.9291,-1.9584,-1.9886,-1.9893,-1.9977,-2.0364,-2.0526,-2.0762,-2.09,-2.1185,-2.1384,-2.1526,-2.219,-2.3305,-2.4217,-2.4801,-2.5551,-2.5963,-2.6109,-2.5932,-2.5688,-2.5704,-2.5486,-2.5252,-2.5126,-2.514,-2.5139,-2.5082,-2.4833,-2.4515,-2.4611,-2.4619,-2.458,-2.4547,-2.4801,-2.4992,-2.5016,-2.504,-2.5079,-2.5095,-2.5103,-2.5103,-2.5103,-2.5103,-2.5103,-2.5103,-2.5103,-2.5103,-2.5103,-2.5103,-2.5103,-2.498,-2.4988,-2.4882,-2.4945,-2.4928,-2.4769,-2.4817,-2.4963,-2.4955,-2.484,-2.4747,-2.4587,-2.4405,-2.4304,-2.413,-2.4029,-2.384,-2.3905,-2.4218,-2.4562,-2.49,-2.5137,-2.5279,-2.5398,-2.6534,-2.7543,-2.7833,-2.8114,-2.8254,-2.8395,-2.8403,-2.8527,-2.893,-2.9062,-2.9053,-2.9176,-2.9307,-2.9307,-1.7067,-1.6955,-1.663,-1.6666,-1.7023,-1.7121,-1.749,-1.7911,-1.8122,-1.8227,-1.8443,-1.8548,-1.8757,-1.9078,-1.9279,-1.9168,-1.9153,-1.8736,-1.8415,-1.8206,-1.7799,-1.7437,-1.7456,-1.7427,-1.7505,-1.7895,-1.8577,-1.8995,-1.9451,-1.9527,-1.9652,-2.0005,-2.0247,-2.0323,-2.0447,-2.0607,-2.076,-2.0865,-2.1074,-2.1904,-2.3185,-2.3831,-2.4795,-2.5329,-2.5595,-2.5378,-2.5302,-2.5235,-2.525,-2.5095,-2.5082,-2.5108,-2.506,-2.506,-2.4843,-2.4787,-2.4714,-2.473,-2.4619,-2.4674,-2.4881,-2.504,-2.5103,-2.5087,-2.5087,-2.5103,-2.5103,-2.5103,-2.5103,-2.5103,-2.5103,-2.5103,-2.5103,-2.5103,-2.5103,-2.5103,-2.4857,-2.461,-2.4487,-2.4533,-2.44,-2.4174,-2.3983,-2.3621,-2.388,-2.4102,-2.4124,-2.4235,-2.3918,-2.3543,-2.3422,-2.3164,-2.3199,-2.3084,-2.3157,-2.3572,-2.4134,-2.43,-2.4705,-2.5189,-2.5629,-2.6573,-2.7262,-2.7559,-2.7849,-2.7973,-2.7981,-2.813,-2.8403,-2.8807,-2.893,-2.893,-2.9053,-2.9307,-2.9307,-1.6785,-1.658,-1.6262,-1.6453,-1.6691,-1.6964,-1.7357,-1.788,-1.8199,-1.8532,-1.888,-1.888,-1.9027,-1.9279,-1.9168,-1.8848,-1.8422,-1.8101,-1.7786,-1.7477,-1.6842,-1.6668,-1.6455,-1.6355,-1.6656,-1.6965,-1.7646,-1.837,-1.9003,-1.9003,-1.9124,-1.9598,-1.97,-1.9707,-1.9815,-1.9965,-2.0219,-2.0302,-2.0586,-2.1047,-2.1864,-2.2819,-2.3959,-2.476,-2.521,-2.5144,-2.501,-2.5041,-2.5128,-2.5165,-2.5052,-2.5197,-2.5138,-2.5138,-2.4944,-2.4897,-2.4936,-2.496,-2.4944,-2.496,-2.5048,-2.5103,-2.5103,-2.5103,-2.5103,-2.5103,-2.5103,-2.5103,-2.5103,-2.5103,-2.5103,-2.5103,-2.5103,-2.498,-2.498,-2.4857,-2.461,-2.4239,-2.4239,-2.4115,-2.3875,-2.3641,-2.326,-2.2885,-2.3001,-2.3218,-2.3355,-2.3485,-2.3529,-2.3128,-2.2801,-2.2638,-2.2503,-2.251,-2.2566,-2.3032,-2.3608,-2.413,-2.4542,-2.5219,-2.5854,-2.6769,-2.7294,-2.731,-2.7584,-2.7716,-2.7716,-2.7857,-2.8263,-2.8543,-2.8667,-2.8667,-2.9062,-2.9185,-2.9307,-1.5995,-1.5676,-1.5676,-1.5952,-1.6394,-1.6471,-1.6887,-1.7587,-1.7909,-1.8419,-1.8942,-1.8913,-1.9008,-1.9272,-1.8743,-1.8429,-1.8213,-1.7575,-1.7147,-1.673,-1.6211,-1.5903,-1.5797,-1.5791,-1.6004,-1.6417,-1.6794,-1.723,-1.8262,-1.8196,-1.8392,-1.908,-1.9107,-1.9229,-1.9482,-1.9611,-1.9638,-1.978,-2.0013,-2.0503,-2.143,-2.2163,-2.2882,-2.3594,-2.3983,-2.3918,-2.3924,-2.4161,-2.4432,-2.4611,-2.5019,-2.5186,-2.5234,-2.5218,-2.5008,-2.4944,-2.5008,-2.4976,-2.4968,-2.504,-2.5079,-2.5103,-2.5103,-2.5103,-2.5103,-2.5103,-2.5103,-2.5103,-2.5103,-2.5111,-2.5111,-2.5103,-2.5103,-2.4734,-2.461,-2.4355,-2.4232,-2.3984,-2.3984,-2.3736,-2.3611,-2.3245,-2.287,-2.262,-2.262,-2.277,-2.2777,-2.2765,-2.2786,-2.2476,-2.2328,-2.218,-2.2026,-2.2009,-2.2146,-2.2646,-2.3147,-2.3707,-2.4386,-2.5084,-2.5988,-2.7067,-2.7467,-2.7459,-2.7326,-2.7451,-2.7584,-2.7724,-2.7857,-2.8263,-2.8271,-2.8535,-2.879,-2.9053,-2.9307]},{"header":{"parameterUnit":"m.s-1","parameterCategory":1,"la1":31.0,"la2":29.5877,"lo1":-88.7671,"lo2":-86.6584,"dy":0.0162,"dx":0.0185,"nx":115,"ny":88,"refTime":"2023-04-01T12:00:00:Z","depth":0,"parameterNumber":3,"parameterNumberName":"V-component_of_WINDS"},"data":[0.0,0.0,0.0,0.0,0.0,0.0,0.0,0.0,0.0,0.0,0.0,0.0,0.0,0.0,0.0,0.0,0.0,0.0,0.0,0.0,0.0,0.0,0.0,0.0,0.0,0.0,0.0,0.0,0.0,0.0,0.0,0.0,0.0,0.0,0.0,0.0,0.0,0.0,0.0,0.0,0.0,0.0,0.0,0.0,0.0,0.0,0.0,0.0,0.0,0.0,0.0,0.0,0.0,0.0,0.0,0.0,0.0,0.0,0.0,0.0,0.0,0.0,0.0,0.0,0.0,0.0,0.0,0.0,0.0,0.0,0.0,0.0,0.0,0.0,0.0,0.0,0.0,0.0,0.0,0.0,0.0,0.0,0.0,0.0,0.0,0.0,0.0,0.0,0.0,0.0,0.0,0.0,0.0,0.0,0.0,0.0,0.0,0.0,0.0,0.0,0.0,0.0,0.0,0.0,0.0,0.0,0.0,0.0,0.0,0.0,0.0,0.0,0.0,0.0,0.0,0.0,0.0,0.0,0.0,0.0,0.0,0.0,0.0,0.0,0.0,0.0,0.0,0.0,0.0,0.0,0.0,0.0,0.0,0.0,0.0,0.0,0.0,0.0,0.0,0.0,0.0,0.0,0.0,0.0,0.0,0.0,0.0,0.0,0.0,0.0,0.0,0.0,0.0,0.0,0.0,0.0,0.0,0.0,0.0,0.0,0.0,0.0,0.0,0.0,0.0,0.0,0.0,0.0,0.0,0.0,0.0,0.0,0.0,0.0,0.0,0.0,0.0,0.0,0.0,0.0,0.0,0.0,0.0,0.0,0.0,0.0,0.0,0.0,0.0,0.0,0.0,0.0,0.0,0.0,0.0,0.0,0.0,0.0,0.0,0.0,0.0,0.0,0.0,0.0,0.0,0.0,0.0,0.0,0.0,0.0,0.0,0.0,0.0,0.0,0.0,0.0,0.0,0.0,0.0,0.0,0.0,0.0,0.0,0.0,0.0,0.0,0.0,0.0,0.0,0.0,0.0,0.0,0.0,0.0,0.0,0.0,0.0,0.0,0.0,0.0,0.0,0.0,0.0,0.0,0.0,0.0,0.0,0.0,0.0,0.0,0.0,0.0,0.0,0.0,0.0,0.0,0.0,0.0,0.0,0.0,0.0,0.0,0.0,0.0,0.0,0.0,0.0,0.0,0.0,0.0,0.0,0.0,0.0,0.0,0.0,0.0,0.0,0.0,0.0,0.0,0.0,0.0,0.0,0.0,0.0,0.0,0.0,0.0,0.0,0.0,0.0,0.0,0.0,0.0,0.0,0.0,0.0,0.0,0.0,0.0,0.0,0.0,0.0,0.0,0.0,0.0,0.0,0.0,0.0,0.0,0.0,0.0,0.0,0.0,0.0,0.0,0.0,0.0,0.0,0.0,0.0,0.0,0.0,0.0,0.0,0.0,0.0,0.0,0.0,0.0,0.0,0.0,0.0,0.0,0.0,0.0,0.0,0.0,0.0,0.0,0.0,0.0,0.0,0.0,0.0,0.0,0.0,0.0,0.0,0.0,0.0,0.0,0.0,0.0,0.0,0.0,0.0,0.0,0.0,0.0,0.0,0.0,0.0,0.0,0.0,0.0,0.0,0.0,0.0,0.0,0.0,0.0,0.0,0.0,0.0,0.0,0.0,0.0,0.0,0.0,0.0,0.0,0.0,0.0,0.0,0.0,0.0,0.0,0.0,0.0,0.0,0.0,0.0,0.0,0.0,0.0,0.0,0.0,0.0,0.0,0.0,0.0,0.0,0.0,0.0,0.0,0.0,0.0,0.0,0.0,0.0,0.0,0.0,0.0,0.0,0.0,0.0,0.0,0.0,0.0,0.0,0.0,0.0,0.0,0.0,0.0,0.0,0.0,0.0,0.0,0.0,0.0,0.0,0.0,0.0,0.0,0.0,0.0,0.0,0.0,0.0,0.0,0.0,0.0,0.0,0.0,0.0,0.0,0.0,0.0,0.0,0.0,0.0,0.0,0.0,0.0,0.0,0.0,0.0,0.0,0.0,0.0,0.0,0.0,0.0,0.0,0.0,0.0,0.0,0.0,0.0,0.0,0.0,0.0,0.0,0.0,0.0,0.0,0.0,0.0,0.0,0.0,0.0,0.0,0.0,0.0,0.0,0.0,0.0,0.0,0.0,0.0,0.0,0.0,0.0,0.0,0.0,0.0,0.0,0.0,0.0,0.0,0.0,0.0,0.0,0.0,0.0,0.0,0.0,0.0,0.0,0.0,0.0,0.0,0.0,0.0,0.0,0.0,0.0,0.0,0.0,0.0,0.0,0.0,0.0,0.0,0.0,0.0,0.0,0.0,0.0,0.0,0.0,0.0,0.0,0.0,0.0,0.0,0.0,0.0,0.0,0.0,0.0,0.0,0.0,0.0,0.0,0.0,0.0,0.0,0.0,0.0,0.0,0.0,0.0,0.0,0.0,0.0,0.0,0.0,0.0,0.0,0.0,0.0,0.0,0.0,0.0,0.0,0.0,0.0,0.0,0.0,0.0,0.0,0.0,0.0,0.0,0.0,0.0,0.0,0.0,0.0,0.0,0.0,0.0,0.0,0.0,0.0,0.0,0.0,0.0,0.0,0.0,0.0,0.0,0.0,0.0,0.0,0.0,0.0,0.0,0.0,0.0,0.0,0.0,0.0,0.0,0.0,0.0,0.0,0.0,0.0,0.0,0.0,0.0,0.0,0.0,0.0,0.0,0.0,0.0,0.0,0.0,0.0,0.0,0.0,0.0,0.0,0.0,0.0,0.0,0.0,0.0,0.0,0.0,0.0,0.0,0.0,0.0,0.0,0.0,0.0,0.0,0.0,0.0,0.0,0.0,0.0,0.0,0.0,0.0,0.0,0.0,0.0,0.0,0.0,0.0,0.0,0.0,0.0,0.0,0.0,0.0,0.0,0.0,0.0,0.0,0.0,0.0,0.0,0.0,0.0,0.0,0.0,0.0,0.0,0.0,0.0,0.0,0.0,0.0,0.0,0.0,0.0,0.0,0.0,0.0,0.0,0.0,0.0,0.0,0.0,0.0,0.0,0.0,0.0,0.0,0.0,0.0,0.0,0.0,0.0,0.0,0.0,0.0,0.0,0.0,0.0,0.0,0.0,0.0,0.0,0.0,0.0,0.0,0.0,0.0,0.0,0.0,0.0,0.0,0.0,0.0,0.0,0.0,0.0,0.0,0.0,0.0,0.0,0.0,0.0,0.0,0.0,0.0,0.0,0.0,0.0,0.0,0.0,0.0,0.0,0.0,0.0,0.0,0.0,0.0,0.0,0.0,0.0,0.0,0.0,0.0,0.0,0.0,0.0,0.0,0.0,0.0,0.0,0.0,0.0,0.0,0.0,0.0,0.0,0.0,0.0,0.0,0.0,0.0,0.0,0.0,0.0,0.0,0.0,0.0,0.0,0.0,0.0,0.0,0.0,0.0,0.0,0.0,0.0,0.0,0.0,0.0,0.0,0.0,0.0,0.0,0.0,0.0,0.0,0.0,0.0,0.0,0.0,0.0,0.0,0.0,0.0,0.0,0.0,0.0,0.0,0.0,0.0,0.0,0.0,0.0,0.0,0.0,0.0,0.0,0.0,0.0,0.0,0.0,0.0,0.0,0.0,0.0,0.0,0.0,0.0,0.0,0.0,0.0,0.0,0.0,0.0,0.0,0.0,0.0,0.0,0.0,0.0,0.0,0.0,0.0,0.0,0.0,0.0,0.0,0.0,0.0,0.0,0.0,0.0,0.0,0.0,0.0,0.0,0.0,0.0,0.0,0.0,0.0,0.0,0.0,0.0,0.0,0.0,0.0,0.0,0.0,0.0,0.0,0.0,0.0,0.0,0.0,0.0,0.0,0.0,0.0,0.0,0.0,0.0,0.0,0.0,0.0,0.0,0.0,0.0,0.0,0.0,0.0,0.0,0.0,0.0,0.0,0.0,0.0,0.0,0.0,0.0,0.0,0.0,0.0,0.0,0.0,0.0,0.0,0.0,0.0,0.0,0.0,0.0,0.0,0.0,0.0,0.0,0.0,0.0,0.0,0.0,0.0,0.0,0.0,0.0,0.0,0.0,0.0,0.0,0.0,0.0,0.0,0.0,0.0,0.0,0.0,0.0,0.0,0.0,0.0,0.0,0.0,0.0,0.0,0.0,0.0,0.0,0.0,0.0,0.0,0.0,0.0,0.0,0.0,0.0,0.0,0.0,0.0,0.0,0.0,0.0,0.0,0.0,0.0,0.0,0.0,0.0,-4.2308,0.0,0.0,0.0,0.0,0.0,0.0,0.0,0.0,0.0,0.0,0.0,0.0,0.0,0.0,0.0,0.0,0.0,0.0,0.0,0.0,0.0,0.0,0.0,0.0,0.0,0.0,0.0,0.0,0.0,0.0,0.0,0.0,0.0,0.0,0.0,0.0,0.0,0.0,0.0,0.0,0.0,0.0,0.0,0.0,0.0,0.0,0.0,0.0,0.0,0.0,0.0,0.0,0.0,0.0,0.0,0.0,0.0,0.0,0.0,0.0,0.0,0.0,0.0,0.0,0.0,0.0,0.0,0.0,0.0,0.0,0.0,0.0,0.0,0.0,0.0,0.0,0.0,0.0,0.0,0.0,0.0,0.0,0.0,0.0,0.0,0.0,0.0,0.0,0.0,0.0,0.0,0.0,0.0,0.0,0.0,0.0,0.0,0.0,0.0,0.0,0.0,0.0,0.0,0.0,0.0,0.0,0.0,0.0,0.0,0.0,-4.4851,-4.4313,-4.4102,-4.3724,-4.309,0.0,0.0,0.0,0.0,0.0,0.0,0.0,0.0,0.0,0.0,0.0,0.0,0.0,0.0,0.0,0.0,0.0,0.0,0.0,0.0,0.0,0.0,0.0,0.0,0.0,0.0,0.0,0.0,0.0,0.0,0.0,0.0,0.0,0.0,0.0,0.0,0.0,0.0,0.0,0.0,0.0,0.0,0.0,0.0,0.0,0.0,0.0,0.0,0.0,0.0,0.0,0.0,0.0,0.0,0.0,0.0,0.0,0.0,0.0,0.0,0.0,0.0,0.0,0.0,0.0,0.0,0.0,0.0,0.0,0.0,0.0,0.0,0.0,0.0,0.0,0.0,0.0,0.0,0.0,0.0,0.0,0.0,0.0,0.0,0.0,0.0,0.0,0.0,0.0,0.0,0.0,0.0,0.0,0.0,0.0,0.0,0.0,0.0,0.0,0.0,0.0,0.0,0.0,0.0,0.0,0.0,0.0,0.0,0.0,0.0,0.0,0.0,-4.427,-4.3974,-4.359,0.0,0.0,0.0,0.0,0.0,0.0,0.0,0.0,0.0,0.0,0.0,0.0,0.0,0.0,0.0,0.0,0.0,0.0,0.0,0.0,0.0,0.0,0.0,0.0,0.0,0.0,0.0,0.0,0.0,0.0,0.0,0.0,0.0,0.0,0.0,0.0,0.0,0.0,0.0,0.0,0.0,0.0,0.0,0.0,0.0,0.0,0.0,0.0,0.0,0.0,0.0,0.0,0.0,0.0,0.0,0.0,0.0,0.0,0.0,0.0,0.0,0.0,0.0,0.0,0.0,0.0,0.0,0.0,0.0,0.0,0.0,0.0,0.0,0.0,0.0,0.0,0.0,0.0,0.0,0.0,0.0,0.0,0.0,0.0,0.0,0.0,0.0,0.0,0.0,0.0,0.0,0.0,0.0,0.0,0.0,0.0,0.0,0.0,0.0,0.0,0.0,0.0,0.0,0.0,0.0,0.0,0.0,0.0,0.0,0.0,-4.4485,-4.417,-4.3868,0.0,-4.2868,0.0,0.0,0.0,0.0,0.0,0.0,0.0,0.0,0.0,0.0,0.0,0.0,0.0,0.0,0.0,0.0,0.0,0.0,0.0,0.0,0.0,0.0,0.0,0.0,0.0,0.0,0.0,0.0,0.0,0.0,0.0,0.0,0.0,0.0,0.0,0.0,0.0,0.0,0.0,0.0,0.0,0.0,0.0,0.0,0.0,0.0,0.0,0.0,0.0,0.0,0.0,0.0,0.0,0.0,0.0,0.0,0.0,0.0,0.0,0.0,0.0,0.0,0.0,0.0,0.0,0.0,0.0,0.0,0.0,0.0,0.0,0.0,0.0,0.0,0.0,0.0,0.0,0.0,0.0,0.0,0.0,0.0,0.0,0.0,0.0,0.0,0.0,0.0,0.0,0.0,0.0,0.0,0.0,0.0,0.0,0.0,0.0,0.0,0.0,0.0,0.0,0.0,0.0,0.0,0.0,0.0,0.0,0.0,0.0,0.0,-4.4191,-4.3693,-4.2775,-4.2032,0.0,0.0,0.0,0.0,0.0,0.0,0.0,0.0,0.0,0.0,0.0,0.0,0.0,0.0,0.0,0.0,0.0,0.0,0.0,0.0,0.0,0.0,0.0,0.0,0.0,0.0,0.0,0.0,0.0,0.0,0.0,0.0,0.0,0.0,0.0,0.0,0.0,0.0,0.0,0.0,0.0,0.0,0.0,0.0,0.0,0.0,0.0,0.0,0.0,0.0,0.0,0.0,0.0,0.0,0.0,0.0,0.0,0.0,0.0,0.0,0.0,0.0,0.0,0.0,0.0,0.0,0.0,0.0,0.0,0.0,0.0,0.0,0.0,0.0,0.0,0.0,0.0,0.0,0.0,0.0,0.0,0.0,0.0,0.0,0.0,0.0,0.0,0.0,0.0,0.0,0.0,0.0,0.0,0.0,0.0,0.0,0.0,0.0,0.0,0.0,0.0,0.0,0.0,0.0,0.0,0.0,0.0,0.0,0.0,0.0,-4.4487,-4.386,-4.2978,-4.1793,-4.0967,-4.0508,0.0,0.0,0.0,0.0,0.0,0.0,0.0,0.0,0.0,0.0,0.0,0.0,0.0,0.0,0.0,0.0,0.0,0.0,0.0,0.0,0.0,0.0,0.0,0.0,0.0,0.0,0.0,0.0,0.0,0.0,0.0,0.0,0.0,0.0,0.0,0.0,0.0,0.0,0.0,0.0,0.0,0.0,0.0,0.0,0.0,0.0,0.0,0.0,0.0,0.0,0.0,0.0,0.0,0.0,0.0,0.0,0.0,0.0,0.0,0.0,0.0,0.0,0.0,0.0,0.0,0.0,0.0,0.0,0.0,0.0,0.0,0.0,0.0,0.0,0.0,0.0,0.0,0.0,0.0,0.0,0.0,0.0,0.0,0.0,0.0,0.0,0.0,0.0,0.0,0.0,0.0,0.0,0.0,0.0,0.0,0.0,0.0,0.0,0.0,0.0,0.0,0.0,0.0,0.0,0.0,0.0,0.0,0.0,-4.4967,-4.4467,-4.3483,-4.2014,-4.1241,-4.0563,0.0,0.0,0.0,0.0,0.0,0.0,0.0,0.0,0.0,0.0,0.0,0.0,0.0,0.0,0.0,0.0,0.0,0.0,0.0,0.0,0.0,0.0,0.0,0.0,0.0,0.0,0.0,0.0,0.0,0.0,0.0,0.0,0.0,0.0,0.0,0.0,0.0,0.0,0.0,0.0,0.0,0.0,0.0,0.0,0.0,0.0,0.0,0.0,0.0,0.0,0.0,0.0,0.0,0.0,0.0,0.0,0.0,0.0,0.0,0.0,0.0,0.0,0.0,0.0,0.0,0.0,0.0,0.0,0.0,0.0,0.0,0.0,0.0,0.0,0.0,0.0,0.0,0.0,0.0,0.0,0.0,0.0,0.0,0.0,0.0,0.0,0.0,0.0,0.0,0.0,0.0,0.0,0.0,0.0,0.0,0.0,0.0,0.0,0.0,0.0,0.0,0.0,0.0,0.0,0.0,0.0,0.0,0.0,0.0,-4.477,-4.3643,-4.2361,-4.0993,-4.0118,-3.9332,0.0,0.0,0.0,0.0,0.0,0.0,0.0,0.0,0.0,0.0,0.0,0.0,0.0,0.0,0.0,0.0,0.0,0.0,0.0,0.0,0.0,0.0,0.0,0.0,0.0,0.0,0.0,0.0,0.0,0.0,0.0,0.0,0.0,0.0,0.0,0.0,0.0,0.0,0.0,0.0,0.0,0.0,0.0,0.0,0.0,0.0,0.0,0.0,0.0,0.0,0.0,0.0,0.0,0.0,0.0,0.0,0.0,0.0,0.0,0.0,0.0,0.0,0.0,0.0,0.0,0.0,0.0,0.0,0.0,0.0,0.0,0.0,0.0,0.0,0.0,0.0,0.0,0.0,0.0,0.0,0.0,0.0,0.0,0.0,0.0,0.0,0.0,0.0,0.0,0.0,0.0,0.0,0.0,0.0,0.0,0.0,0.0,0.0,0.0,0.0,0.0,0.0,0.0,0.0,0.0,0.0,0.0,0.0,0.0,-4.4458,0.0,-4.1795,-4.0483,-3.9527,-3.8623,0.0,0.0,0.0,0.0,0.0,0.0,0.0,0.0,0.0,0.0,0.0,0.0,0.0,0.0,0.0,0.0,0.0,0.0,0.0,0.0,0.0,0.0,0.0,0.0,0.0,0.0,0.0,0.0,0.0,0.0,0.0,0.0,0.0,0.0,0.0,0.0,0.0,0.0,0.0,0.0,0.0,0.0,0.0,0.0,0.0,0.0,0.0,0.0,0.0,0.0,0.0,0.0,0.0,0.0,0.0,0.0,0.0,0.0,0.0,0.0,0.0,0.0,0.0,0.0,0.0,0.0,0.0,0.0,0.0,0.0,0.0,0.0,0.0,0.0,0.0,0.0,0.0,0.0,0.0,0.0,0.0,0.0,0.0,0.0,0.0,0.0,0.0,0.0,0.0,0.0,0.0,0.0,0.0,0.0,0.0,0.0,0.0,0.0,0.0,0.0,0.0,0.0,0.0,0.0,0.0,0.0,0.0,0.0,-4.4732,-4.3986,-4.2996,-4.1843,-4.0642,-3.9578,-3.8662,0.0,0.0,0.0,0.0,0.0,0.0,0.0,0.0,0.0,0.0,0.0,0.0,0.0,0.0,0.0,0.0,0.0,0.0,0.0,0.0,0.0,0.0,0.0,0.0,0.0,0.0,0.0,0.0,0.0,0.0,0.0,0.0,0.0,0.0,0.0,0.0,0.0,0.0,0.0,0.0,0.0,0.0,0.0,0.0,0.0,0.0,0.0,0.0,0.0,0.0,0.0,0.0,0.0,0.0,0.0,0.0,0.0,0.0,0.0,0.0,0.0,0.0,0.0,0.0,0.0,0.0,0.0,0.0,0.0,0.0,0.0,0.0,0.0,0.0,0.0,0.0,0.0,0.0,0.0,0.0,0.0,0.0,0.0,0.0,0.0,0.0,0.0,0.0,0.0,0.0,0.0,0.0,0.0,0.0,0.0,0.0,0.0,0.0,0.0,0.0,0.0,0.0,0.0,0.0,0.0,0.0,0.0,0.0,0.0,-4.3594,-4.27,-4.1619,-4.0408,-3.9492,-3.8662,0.0,0.0,0.0,0.0,0.0,0.0,0.0,0.0,0.0,0.0,0.0,0.0,0.0,0.0,0.0,0.0,0.0,0.0,0.0,0.0,0.0,0.0,0.0,0.0,0.0,0.0,0.0,0.0,0.0,0.0,0.0,0.0,0.0,0.0,0.0,0.0,0.0,0.0,0.0,0.0,0.0,0.0,0.0,0.0,0.0,0.0,0.0,0.0,0.0,0.0,0.0,0.0,0.0,0.0,0.0,0.0,0.0,0.0,0.0,0.0,0.0,0.0,0.0,0.0,0.0,0.0,0.0,0.0,0.0,0.0,0.0,0.0,0.0,0.0,0.0,0.0,0.0,0.0,0.0,0.0,0.0,0.0,0.0,0.0,0.0,0.0,0.0,0.0,0.0,0.0,0.0,0.0,0.0,0.0,0.0,0.0,0.0,0.0,0.0,0.0,0.0,0.0,0.0,0.0,0.0,0.0,0.0,0.0,0.0,-4.4033,-4.2994,-4.189,-4.0753,-3.9918,-3.9086,-3.8446,0.0,0.0,0.0,0.0,0.0,0.0,0.0,0.0,0.0,0.0,0.0,0.0,0.0,0.0,0.0,0.0,0.0,0.0,0.0,0.0,0.0,0.0,0.0,0.0,0.0,0.0,0.0,0.0,0.0,0.0,0.0,0.0,0.0,0.0,0.0,0.0,0.0,0.0,0.0,0.0,0.0,0.0,0.0,0.0,0.0,0.0,0.0,0.0,0.0,0.0,0.0,0.0,0.0,0.0,0.0,0.0,0.0,0.0,0.0,0.0,0.0,0.0,0.0,0.0,0.0,0.0,0.0,0.0,0.0,0.0,0.0,0.0,0.0,0.0,0.0,0.0,0.0,0.0,0.0,0.0,0.0,0.0,0.0,0.0,0.0,0.0,0.0,0.0,0.0,0.0,0.0,0.0,0.0,0.0,0.0,0.0,0.0,0.0,0.0,0.0,0.0,0.0,0.0,0.0,0.0,0.0,0.0,0.0,-4.5226,-4.3775,-4.2621,-4.1672,-4.0664,-3.9901,0.0,0.0,0.0,0.0,0.0,0.0,0.0,0.0,0.0,0.0,0.0,0.0,0.0,0.0,0.0,0.0,0.0,0.0,0.0,0.0,0.0,0.0,0.0,0.0,0.0,0.0,0.0,0.0,0.0,0.0,0.0,0.0,0.0,0.0,0.0,0.0,0.0,0.0,0.0,0.0,0.0,0.0,0.0,0.0,0.0,0.0,0.0,0.0,0.0,0.0,0.0,0.0,0.0,0.0,0.0,0.0,0.0,0.0,0.0,0.0,0.0,0.0,0.0,0.0,0.0,0.0,0.0,0.0,0.0,0.0,0.0,0.0,0.0,0.0,0.0,0.0,0.0,0.0,0.0,0.0,0.0,0.0,0.0,0.0,0.0,0.0,0.0,0.0,0.0,0.0,0.0,0.0,0.0,0.0,0.0,0.0,0.0,0.0,0.0,0.0,0.0,0.0,0.0,0.0,0.0,0.0,0.0,0.0,0.0,-4.5594,-4.5059,-4.423,-4.3153,-4.171,-4.0763,0.0,0.0,0.0,0.0,0.0,0.0,0.0,0.0,0.0,0.0,0.0,0.0,0.0,0.0,0.0,0.0,0.0,0.0,0.0,0.0,0.0,0.0,0.0,0.0,0.0,0.0,0.0,0.0,0.0,0.0,0.0,0.0,0.0,0.0,0.0,0.0,0.0,0.0,0.0,0.0,0.0,0.0,0.0,0.0,0.0,0.0,0.0,0.0,0.0,0.0,0.0,0.0,0.0,0.0,0.0,0.0,0.0,0.0,0.0,0.0,0.0,0.0,0.0,0.0,0.0,0.0,0.0,0.0,0.0,0.0,0.0,0.0,0.0,0.0,0.0,0.0,0.0,0.0,0.0,0.0,0.0,0.0,0.0,0.0,0.0,0.0,0.0,0.0,0.0,0.0,0.0,0.0,0.0,0.0,0.0,0.0,0.0,0.0,0.0,0.0,0.0,0.0,0.0,0.0,0.0,0.0,0.0,0.0,-4.5584,-4.6336,-4.579,-4.544,-4.5406,-4.3445,-4.2017,0.0,0.0,0.0,0.0,0.0,0.0,0.0,0.0,0.0,0.0,0.0,0.0,0.0,0.0,0.0,0.0,0.0,0.0,0.0,0.0,0.0,0.0,0.0,0.0,0.0,0.0,0.0,0.0,0.0,0.0,0.0,0.0,0.0,0.0,0.0,0.0,0.0,0.0,0.0,0.0,0.0,0.0,0.0,0.0,0.0,0.0,0.0,0.0,0.0,0.0,0.0,0.0,0.0,0.0,0.0,0.0,0.0,0.0,0.0,0.0,0.0,0.0,0.0,0.0,0.0,0.0,0.0,0.0,0.0,0.0,0.0,0.0,0.0,0.0,0.0,0.0,0.0,0.0,0.0,0.0,0.0,0.0,0.0,0.0,0.0,0.0,0.0,0.0,0.0,0.0,0.0,0.0,0.0,0.0,0.0,0.0,0.0,0.0,0.0,0.0,0.0,0.0,0.0,0.0,0.0,0.0,0.0,0.0,-4.5946,-4.7202,-4.6317,-4.6421,-4.7519,-4.5241,-4.3386,0.0,0.0,0.0,0.0,0.0,0.0,0.0,0.0,0.0,0.0,0.0,0.0,0.0,0.0,0.0,0.0,0.0,0.0,0.0,0.0,0.0,0.0,0.0,0.0,0.0,0.0,0.0,0.0,0.0,0.0,0.0,0.0,0.0,0.0,0.0,0.0,0.0,0.0,0.0,0.0,0.0,0.0,0.0,0.0,0.0,0.0,0.0,0.0,0.0,0.0,0.0,0.0,0.0,0.0,0.0,0.0,0.0,0.0,0.0,0.0,0.0,0.0,0.0,0.0,0.0,0.0,0.0,0.0,0.0,0.0,0.0,0.0,0.0,0.0,0.0,0.0,0.0,0.0,0.0,0.0,0.0,0.0,0.0,0.0,0.0,0.0,0.0,0.0,0.0,0.0,0.0,0.0,0.0,0.0,0.0,0.0,0.0,0.0,0.0,0.0,0.0,0.0,0.0,0.0,0.0,0.0,0.0,0.0,-4.6806,-4.805,-4.7548,-4.7307,-4.7439,-4.5389,-4.3989,0.0,0.0,0.0,0.0,0.0,0.0,0.0,0.0,0.0,0.0,0.0,0.0,0.0,0.0,0.0,0.0,0.0,0.0,0.0,0.0,0.0,0.0,0.0,0.0,0.0,0.0,0.0,0.0,0.0,0.0,0.0,0.0,0.0,0.0,0.0,0.0,0.0,0.0,0.0,0.0,0.0,0.0,0.0,0.0,0.0,0.0,0.0,0.0,-5.3632,0.0,0.0,0.0,0.0,0.0,0.0,0.0,0.0,0.0,0.0,0.0,0.0,0.0,0.0,0.0,0.0,0.0,0.0,0.0,0.0,0.0,0.0,0.0,0.0,0.0,0.0,0.0,0.0,0.0,0.0,0.0,0.0,0.0,0.0,0.0,0.0,0.0,0.0,0.0,0.0,0.0,0.0,0.0,0.0,0.0,0.0,0.0,0.0,0.0,0.0,0.0,0.0,0.0,0.0,0.0,0.0,0.0,0.0,0.0,-4.7048,-4.8333,-4.7884,-4.7692,-4.7776,-4.6265,-4.4859,0.0,0.0,0.0,0.0,0.0,0.0,0.0,0.0,0.0,0.0,0.0,0.0,0.0,0.0,0.0,0.0,0.0,0.0,0.0,0.0,0.0,0.0,0.0,0.0,0.0,0.0,0.0,0.0,0.0,0.0,0.0,0.0,0.0,0.0,0.0,0.0,0.0,0.0,0.0,0.0,0.0,0.0,0.0,0.0,0.0,0.0,0.0,0.0,0.0,0.0,0.0,0.0,0.0,0.0,0.0,0.0,0.0,0.0,0.0,0.0,0.0,0.0,0.0,0.0,0.0,0.0,0.0,0.0,0.0,0.0,0.0,0.0,0.0,0.0,0.0,0.0,0.0,0.0,0.0,0.0,0.0,0.0,0.0,0.0,0.0,0.0,0.0,0.0,0.0,0.0,0.0,0.0,0.0,0.0,0.0,0.0,0.0,0.0,0.0,0.0,0.0,0.0,0.0,0.0,0.0,0.0,0.0,-4.6647,-4.7163,-4.8428,-4.7923,-4.7811,-4.8252,-4.7157,-4.5701,-4.3817,0.0,0.0,0.0,0.0,0.0,0.0,0.0,0.0,0.0,0.0,0.0,0.0,0.0,0.0,0.0,0.0,0.0,0.0,0.0,0.0,0.0,0.0,0.0,0.0,0.0,0.0,0.0,0.0,0.0,0.0,0.0,0.0,0.0,0.0,0.0,0.0,0.0,0.0,-5.2082,-5.4241,0.0,0.0,0.0,0.0,0.0,0.0,0.0,0.0,-5.5469,0.0,0.0,0.0,0.0,0.0,0.0,0.0,0.0,0.0,0.0,0.0,0.0,0.0,0.0,0.0,0.0,0.0,0.0,0.0,0.0,0.0,0.0,0.0,0.0,0.0,0.0,0.0,0.0,0.0,0.0,0.0,0.0,0.0,0.0,0.0,0.0,0.0,0.0,0.0,0.0,0.0,0.0,0.0,0.0,0.0,0.0,0.0,0.0,0.0,0.0,0.0,0.0,0.0,0.0,0.0,0.0,-4.7778,-4.7144,-4.757,-4.9089,-4.8365,-4.7886,-4.7788,-4.7255,-4.6034,-4.4156,0.0,0.0,0.0,0.0,0.0,0.0,0.0,0.0,0.0,0.0,0.0,0.0,0.0,0.0,0.0,0.0,0.0,0.0,0.0,0.0,0.0,0.0,0.0,0.0,0.0,0.0,0.0,0.0,0.0,0.0,0.0,0.0,0.0,0.0,0.0,0.0,0.0,0.0,0.0,-5.542,-5.6209,0.0,0.0,0.0,0.0,0.0,0.0,0.0,0.0,-5.5643,0.0,0.0,0.0,0.0,0.0,0.0,0.0,0.0,0.0,0.0,0.0,0.0,0.0,0.0,0.0,0.0,0.0,0.0,0.0,0.0,0.0,0.0,0.0,0.0,0.0,0.0,0.0,0.0,0.0,0.0,0.0,0.0,0.0,0.0,0.0,0.0,0.0,0.0,0.0,0.0,0.0,0.0,0.0,0.0,0.0,0.0,0.0,0.0,0.0,0.0,0.0,0.0,0.0,0.0,0.0,-4.7594,-4.7513,-4.7891,-4.8855,-4.8271,-4.777,-4.7511,-4.7007,-4.5893,0.0,0.0,0.0,0.0,0.0,0.0,0.0,0.0,0.0,0.0,0.0,0.0,0.0,0.0,0.0,0.0,0.0,0.0,0.0,0.0,0.0,0.0,0.0,0.0,0.0,0.0,0.0,0.0,0.0,0.0,0.0,0.0,0.0,0.0,0.0,0.0,0.0,0.0,0.0,0.0,-5.6664,-5.7264,-5.7296,0.0,0.0,0.0,0.0,0.0,0.0,-5.6441,-5.6223,0.0,0.0,0.0,0.0,0.0,0.0,0.0,0.0,0.0,0.0,0.0,0.0,0.0,0.0,0.0,0.0,0.0,0.0,0.0,0.0,0.0,0.0,0.0,0.0,0.0,0.0,0.0,0.0,0.0,0.0,0.0,0.0,0.0,0.0,0.0,0.0,0.0,0.0,0.0,0.0,0.0,0.0,0.0,0.0,0.0,0.0,0.0,0.0,0.0,0.0,0.0,0.0,0.0,0.0,0.0,-4.7276,-4.762,-4.8029,-4.8493,-4.798,-4.7633,-4.7447,-4.6849,-4.5729,0.0,0.0,0.0,0.0,0.0,0.0,0.0,0.0,0.0,0.0,0.0,0.0,0.0,0.0,0.0,0.0,0.0,0.0,0.0,0.0,0.0,0.0,0.0,0.0,0.0,0.0,0.0,0.0,0.0,0.0,0.0,0.0,0.0,0.0,0.0,0.0,0.0,0.0,0.0,0.0,0.0,-5.7826,-5.7866,-5.8119,0.0,0.0,0.0,0.0,-5.6947,-5.7285,0.0,0.0,0.0,0.0,0.0,0.0,0.0,0.0,0.0,0.0,0.0,0.0,0.0,0.0,0.0,0.0,0.0,0.0,0.0,0.0,0.0,0.0,0.0,0.0,0.0,0.0,0.0,0.0,0.0,0.0,0.0,0.0,0.0,0.0,0.0,0.0,0.0,0.0,0.0,0.0,0.0,0.0,0.0,0.0,0.0,0.0,0.0,0.0,0.0,0.0,0.0,0.0,0.0,0.0,0.0,0.0,-4.7015,-4.7281,-4.7701,-4.8255,-4.7697,-4.7537,-4.7961,-4.6733,-4.5568,0.0,0.0,0.0,0.0,0.0,0.0,0.0,0.0,0.0,0.0,0.0,0.0,0.0,0.0,0.0,0.0,0.0,0.0,0.0,0.0,0.0,0.0,0.0,0.0,0.0,0.0,0.0,0.0,0.0,0.0,0.0,0.0,0.0,0.0,0.0,0.0,0.0,0.0,0.0,0.0,0.0,-5.6755,-5.7621,-5.7657,-5.7581,0.0,0.0,-5.8534,-5.8129,-5.942,0.0,0.0,0.0,0.0,0.0,0.0,0.0,0.0,0.0,0.0,0.0,0.0,0.0,0.0,0.0,0.0,0.0,0.0,0.0,0.0,0.0,0.0,0.0,0.0,0.0,0.0,0.0,0.0,0.0,0.0,0.0,0.0,0.0,0.0,0.0,0.0,0.0,0.0,0.0,0.0,0.0,0.0,0.0,0.0,0.0,0.0,0.0,0.0,0.0,0.0,0.0,0.0,0.0,0.0,0.0,-4.624,-4.66,-4.7441,-4.7864,-4.7977,-4.8037,-4.8075,-4.8063,-4.7294,-4.6242,0.0,0.0,0.0,0.0,0.0,0.0,0.0,0.0,0.0,0.0,0.0,0.0,0.0,0.0,0.0,0.0,0.0,0.0,0.0,0.0,0.0,0.0,0.0,0.0,0.0,0.0,0.0,0.0,0.0,0.0,0.0,0.0,0.0,0.0,0.0,0.0,0.0,0.0,0.0,0.0,0.0,0.0,-5.815,-5.8297,0.0,0.0,0.0,-5.9048,-5.9332,0.0,0.0,0.0,0.0,0.0,0.0,0.0,0.0,0.0,0.0,0.0,0.0,0.0,0.0,0.0,0.0,0.0,0.0,0.0,0.0,0.0,0.0,0.0,0.0,0.0,0.0,0.0,0.0,0.0,0.0,0.0,0.0,0.0,0.0,0.0,0.0,0.0,0.0,0.0,0.0,0.0,0.0,0.0,0.0,0.0,0.0,0.0,0.0,0.0,0.0,0.0,0.0,0.0,0.0,0.0,0.0,0.0,-4.6242,-4.7518,-4.8083,-4.7983,-4.8351,-4.854,-4.8524,-4.8102,0.0,0.0,0.0,0.0,0.0,0.0,0.0,0.0,0.0,0.0,0.0,0.0,0.0,0.0,0.0,0.0,0.0,0.0,0.0,0.0,0.0,0.0,0.0,0.0,0.0,0.0,0.0,-4.6297,0.0,0.0,0.0,0.0,0.0,0.0,0.0,0.0,0.0,0.0,0.0,0.0,0.0,0.0,-5.7076,-5.8419,-5.8965,-5.9372,0.0,0.0,-6.0224,-6.0438,-6.0956,-6.0949,0.0,0.0,0.0,0.0,0.0,0.0,0.0,0.0,0.0,0.0,0.0,0.0,0.0,0.0,0.0,0.0,0.0,0.0,0.0,0.0,0.0,0.0,0.0,0.0,0.0,0.0,0.0,0.0,0.0,0.0,0.0,0.0,0.0,0.0,0.0,0.0,0.0,0.0,0.0,0.0,0.0,0.0,0.0,0.0,0.0,0.0,0.0,0.0,0.0,0.0,0.0,0.0,0.0,0.0,-4.6028,-4.5993,-4.7192,-4.8091,-4.8594,-4.837,-4.8776,-4.99,-4.9162,-4.8184,0.0,0.0,0.0,0.0,0.0,0.0,0.0,0.0,0.0,0.0,0.0,0.0,0.0,0.0,0.0,0.0,0.0,0.0,0.0,0.0,0.0,0.0,0.0,0.0,0.0,0.0,0.0,0.0,0.0,0.0,0.0,0.0,0.0,0.0,0.0,0.0,0.0,0.0,0.0,0.0,0.0,-5.6559,-5.7923,-5.9349,-6.0331,0.0,-6.2426,-6.3147,-6.1552,-6.3727,-6.4071,-5.9337,0.0,0.0,0.0,0.0,0.0,0.0,0.0,0.0,0.0,0.0,0.0,0.0,0.0,0.0,0.0,0.0,0.0,0.0,0.0,0.0,0.0,0.0,0.0,0.0,0.0,0.0,0.0,0.0,0.0,0.0,0.0,0.0,0.0,0.0,0.0,0.0,0.0,0.0,0.0,0.0,0.0,0.0,0.0,0.0,0.0,0.0,0.0,0.0,0.0,0.0,0.0,0.0,0.0,-4.5865,-4.5716,-4.7171,-4.8127,-4.8578,-4.8946,-4.9502,-5.0229,-4.993,-4.9118,0.0,0.0,0.0,0.0,0.0,0.0,0.0,0.0,0.0,0.0,0.0,0.0,0.0,0.0,0.0,0.0,0.0,0.0,0.0,0.0,0.0,0.0,0.0,0.0,0.0,0.0,0.0,0.0,-4.8216,-4.8182,-4.8239,0.0,0.0,0.0,0.0,0.0,0.0,0.0,0.0,0.0,0.0,-5.7227,-5.9555,-6.0219,0.0,0.0,-6.238,-6.2793,-6.262,-6.2778,-6.2525,-6.1388,-6.0658,0.0,0.0,0.0,0.0,0.0,0.0,0.0,0.0,0.0,0.0,0.0,0.0,0.0,0.0,0.0,0.0,0.0,0.0,0.0,0.0,0.0,0.0,0.0,0.0,0.0,0.0,0.0,0.0,0.0,0.0,0.0,0.0,0.0,0.0,0.0,0.0,0.0,0.0,0.0,0.0,0.0,0.0,0.0,0.0,0.0,0.0,0.0,0.0,0.0,0.0,0.0,0.0,-4.5843,-4.5909,-4.7518,-4.8605,-4.9189,-4.9754,-5.0211,-5.0616,-5.0752,-5.0129,0.0,0.0,0.0,0.0,0.0,0.0,0.0,0.0,0.0,0.0,0.0,0.0,0.0,0.0,0.0,0.0,0.0,0.0,0.0,0.0,0.0,0.0,0.0,0.0,0.0,0.0,0.0,0.0,-4.8476,-4.8226,-4.797,0.0,0.0,0.0,0.0,0.0,0.0,0.0,0.0,0.0,0.0,-5.8328,-6.048,-6.1158,-6.1618,-6.2168,-6.2523,-6.2769,-6.2891,-6.2193,-6.1765,-6.2064,0.0,0.0,0.0,0.0,0.0,0.0,0.0,0.0,0.0,0.0,0.0,0.0,0.0,0.0,0.0,0.0,0.0,0.0,0.0,0.0,0.0,0.0,0.0,0.0,0.0,0.0,0.0,0.0,0.0,0.0,-4.1542,0.0,0.0,0.0,0.0,0.0,0.0,0.0,0.0,0.0,0.0,0.0,0.0,0.0,0.0,0.0,0.0,0.0,0.0,0.0,0.0,0.0,0.0,-4.6061,-4.6666,-4.8152,-4.9567,-5.08,-5.0707,-5.0905,-5.1416,-5.1722,-5.1428,-5.0423,0.0,0.0,0.0,0.0,0.0,0.0,0.0,0.0,0.0,0.0,0.0,0.0,0.0,0.0,0.0,0.0,0.0,0.0,0.0,0.0,0.0,0.0,0.0,0.0,0.0,0.0,-4.8494,-4.8208,-4.797,0.0,0.0,0.0,0.0,0.0,0.0,0.0,0.0,0.0,0.0,-5.7843,-5.9774,-6.0254,-6.2051,-6.2991,-6.2091,-6.3101,-6.3571,-6.2231,-6.2665,-6.2573,0.0,0.0,0.0,0.0,0.0,0.0,0.0,0.0,0.0,0.0,0.0,0.0,0.0,0.0,0.0,0.0,0.0,0.0,0.0,0.0,0.0,0.0,0.0,0.0,0.0,0.0,0.0,-4.2834,-4.3036,0.0,0.0,0.0,0.0,0.0,0.0,0.0,0.0,0.0,0.0,0.0,-4.6434,-4.7279,0.0,0.0,0.0,0.0,0.0,0.0,0.0,0.0,0.0,0.0,0.0,0.0,-4.6022,-4.6822,-4.8338,-4.9798,-5.114,-5.1045,-5.1263,-5.1871,-5.2102,-5.1849,-5.114,0.0,0.0,0.0,0.0,0.0,0.0,0.0,0.0,0.0,0.0,0.0,0.0,0.0,0.0,0.0,0.0,0.0,0.0,0.0,0.0,0.0,0.0,0.0,0.0,0.0,-4.8458,0.0,0.0,0.0,0.0,0.0,0.0,0.0,0.0,0.0,0.0,0.0,-5.5382,-5.7199,-5.8586,-5.9735,-6.0733,-6.1751,-6.2474,0.0,0.0,0.0,0.0,0.0,0.0,0.0,0.0,0.0,0.0,0.0,0.0,0.0,0.0,-6.6319,-6.4685,-6.4196,-6.3997,-6.3997,0.0,0.0,0.0,0.0,0.0,0.0,0.0,0.0,0.0,0.0,0.0,0.0,0.0,0.0,-4.4241,0.0,-4.4273,0.0,0.0,0.0,0.0,0.0,0.0,0.0,0.0,-4.6559,-4.7425,-4.8346,-4.9362,-4.9898,0.0,-4.9973,-4.9508,0.0,0.0,0.0,0.0,0.0,0.0,0.0,0.0,-4.6355,-4.7627,-4.8999,-5.0375,-5.1701,-5.1683,-5.1827,-5.2191,-5.2351,-5.22,-5.1645,-5.0831,-4.9887,0.0,0.0,0.0,0.0,0.0,0.0,0.0,0.0,0.0,0.0,0.0,0.0,0.0,0.0,0.0,0.0,0.0,0.0,0.0,0.0,0.0,0.0,0.0,-4.9266,0.0,0.0,0.0,0.0,0.0,0.0,0.0,0.0,0.0,-5.3529,-5.5096,-5.6784,-5.8294,-5.9258,-6.0276,-6.1458,0.0,0.0,0.0,0.0,0.0,0.0,0.0,-6.3335,-6.4091,-6.4095,-6.4367,-6.5399,-6.7094,-6.8425,-6.8753,0.0,0.0,-6.7239,-6.6623,-6.6424,-6.6442,-6.6424,-6.6442,-6.6442,-6.6306,-6.6007,0.0,0.0,0.0,0.0,0.0,0.0,0.0,0.0,-4.4502,-4.537,0.0,-4.5443,0.0,0.0,0.0,0.0,0.0,-4.4844,0.0,0.0,-4.8534,-4.9427,-5.0356,-5.1638,-5.2473,-5.2698,-5.2661,-5.2661,-5.251,-4.9267,0.0,0.0,0.0,0.0,0.0,0.0,-4.7093,-4.92,-5.0236,-5.1383,-5.2599,-5.2654,-5.2608,-5.2508,-5.269,-5.2615,-5.2155,-5.2238,-5.1656,-5.0248,-5.0101,0.0,0.0,0.0,0.0,0.0,0.0,0.0,0.0,0.0,0.0,0.0,0.0,0.0,0.0,0.0,0.0,0.0,0.0,0.0,0.0,-5.0388,0.0,0.0,0.0,0.0,0.0,0.0,0.0,0.0,0.0,0.0,-5.3228,-5.6164,-5.8508,-5.8614,0.0,0.0,0.0,0.0,-6.2839,-6.324,-6.3344,-6.3289,-6.2868,-6.3463,-6.4071,-6.4379,0.0,0.0,-6.7339,-6.8804,-6.9957,-7.0364,-7.0951,-7.1024,-6.9521,-6.8579,-6.809,-6.8072,-6.8072,-6.809,-6.8072,-6.8072,-6.7915,-4.3756,0.0,0.0,0.0,0.0,-4.3242,-4.3963,-4.4756,-4.6195,-4.6746,-4.6745,-4.6926,0.0,0.0,0.0,0.0,0.0,0.0,-4.6958,-4.8524,-4.9445,-5.0631,-5.199,-5.2958,-5.3776,-5.454,-5.454,-5.4314,-5.3875,-5.2888,-5.0994,-4.824,0.0,0.0,0.0,0.0,-4.8698,-5.0485,-5.1308,-5.2422,-5.394,-5.3909,-5.3891,-5.3891,-5.3445,-5.3125,-5.3127,-5.3207,-5.2843,-5.1955,-5.1899,0.0,0.0,0.0,0.0,0.0,0.0,0.0,0.0,0.0,0.0,0.0,0.0,0.0,0.0,0.0,0.0,0.0,0.0,0.0,-5.0692,-5.0698,-5.0584,0.0,0.0,0.0,0.0,0.0,0.0,0.0,0.0,0.0,-5.7352,-5.7598,-5.837,0.0,0.0,-6.1383,-6.1432,-6.2367,-6.3206,-6.3292,-6.4495,0.0,-6.4468,-6.5198,-6.5716,-6.5279,-6.6524,-6.7927,-6.8938,-7.0093,-7.0952,-7.115,-7.135,-7.1331,-7.0933,-7.0332,-6.9866,-6.9866,-6.9848,-6.9866,-6.9866,-6.9665,-6.9379,-4.5552,-4.524,-4.446,-4.3965,-4.3913,-4.4787,-4.5344,-4.5714,-4.7297,-4.7922,-4.7812,-4.8163,-4.7852,-4.6999,-4.6632,0.0,0.0,0.0,-4.81,-4.9893,-5.0605,-5.1791,-5.3361,-5.4538,-5.5227,-5.5484,-5.5857,-5.5629,-5.4909,-5.4317,-5.2967,-5.0834,0.0,0.0,-4.9232,-4.935,-5.0172,-5.1695,-5.2492,-5.3471,-5.4667,-5.5014,-5.5198,-5.5184,-5.4467,-5.4081,-5.4179,-5.396,-5.3516,-5.2807,-5.2823,-5.2311,0.0,0.0,0.0,0.0,0.0,0.0,0.0,0.0,0.0,0.0,0.0,-4.8438,-4.855,0.0,0.0,0.0,-5.0305,-5.125,-5.1966,-5.1801,0.0,0.0,0.0,0.0,0.0,0.0,0.0,-5.6097,-5.8031,-5.9475,-5.9709,-5.9472,-5.9892,-6.1633,-6.1838,-6.1923,-6.2191,0.0,-6.3362,-6.39,-6.4949,-6.5611,-6.5269,-6.6053,-6.663,-6.6536,-6.7481,-6.8571,-6.9667,-7.0346,-7.0852,-7.1305,-7.1259,-7.106,-7.106,-7.0531,-7.0363,-7.0944,-7.1132,-7.1193,-7.1175,-7.093,-7.0589,-4.6539,-4.6507,-4.5472,-4.4623,-4.4245,-4.5994,-4.6351,-4.5916,-4.7958,-4.8789,-4.8659,-4.9176,-4.9027,-4.8365,-4.7461,0.0,-4.834,-4.8105,-4.9272,-5.1579,-5.1836,-5.2813,-5.4352,-5.6045,-5.6522,-5.5856,-5.6649,-5.6597,-5.572,-5.4427,-5.3694,-5.3562,-5.1833,-5.126,-5.1879,-5.1222,-5.1466,-5.2843,-5.3755,-5.4577,-5.5246,-5.6028,-5.6437,-5.6437,-5.562,-5.523,-5.5267,-5.4503,-5.3809,-5.3241,-5.3136,-5.2738,-5.1944,0.0,0.0,0.0,0.0,0.0,0.0,0.0,0.0,0.0,0.0,0.0,0.0,0.0,0.0,0.0,-5.1565,0.0,-5.3592,-5.3521,0.0,0.0,0.0,-5.4793,-5.6372,-5.7158,-5.786,-5.8605,0.0,0.0,-6.0648,-6.1443,-6.2377,-6.3597,-6.3002,-6.2833,-6.3925,-6.3442,-6.3432,-6.4629,-6.4944,-6.5131,-6.5338,-6.5936,-6.6696,-6.7576,-6.7998,-6.8481,-6.9548,-6.9983,-7.0418,-7.1305,-7.0897,-7.0408,-7.0408,-6.9939,-6.9854,-7.1253,-7.163,-7.1751,-7.1641,-7.1502,-7.1083,-4.7317,-4.6655,-4.6593,-4.617,-4.5636,-4.6228,-4.6603,-4.6874,-4.818,-4.8878,-4.9117,-5.0038,-5.0729,-5.1167,-5.0197,-5.0113,-5.0661,-4.9889,-5.0489,-5.2065,-5.2472,-5.3241,-5.4315,-5.4929,-5.5505,-5.6107,-5.6353,-5.6383,-5.6223,-5.5883,-5.537,-5.4724,-5.4249,-5.3745,-5.3191,-5.2881,-5.322,-5.4115,-5.4859,-5.5934,-5.7322,-5.7566,-5.7641,-5.7529,-5.6033,-5.551,-5.622,-5.4745,-5.4223,-5.4919,-5.374,-5.2705,-5.1989,-5.1123,0.0,0.0,0.0,0.0,0.0,0.0,0.0,0.0,0.0,-4.8864,-4.9566,0.0,-5.0028,0.0,-5.2321,-5.3817,-5.5198,-5.5135,0.0,0.0,-5.5651,-5.6262,-5.7361,-5.8598,-5.9447,-5.963,-6.0853,-6.1818,-6.1966,-6.2567,-6.3329,-6.4233,-6.3699,-6.3367,-6.402,-6.3435,-6.3216,-6.3992,-6.4791,-6.5166,-6.4835,-6.4909,-6.5633,-6.7035,-6.7443,-6.8147,-6.9541,-7.0572,-7.1232,-7.1422,-7.0897,-7.0444,-7.0335,-6.9945,-6.9668,-7.0032,-7.0182,-7.0241,-7.0376,-7.0082,-6.9769,-4.7659,-4.7244,-4.7544,-4.7527,-4.7311,-4.6677,-4.6477,-4.671,-4.7978,-4.873,-4.9101,-4.9832,-5.0698,-5.1518,-5.0898,-5.0893,-5.1359,-5.0805,-5.1195,-5.24,-5.2804,-5.3733,-5.5126,-5.5761,-5.611,-5.6156,-5.6614,-5.6413,-5.5602,-5.5643,-5.5455,-5.5057,-5.5474,-5.5199,-5.4297,-5.4191,-5.472,-5.5882,-5.6573,-5.7495,-5.8702,-5.8778,-5.8554,-5.8014,-5.6668,-5.5846,-5.5565,-5.4186,-5.3551,-5.3818,-5.296,-5.2282,-5.1893,-5.1396,-5.1054,0.0,0.0,0.0,0.0,0.0,0.0,0.0,0.0,0.0,0.0,0.0,-5.1565,-5.275,-5.4285,-5.5558,-5.638,-5.6387,-5.651,-5.6903,-5.7151,-5.7758,-5.8979,-6.0066,-6.0865,-6.1231,-6.1919,-6.2415,-6.2433,-6.3055,-6.3657,-6.413,-6.3703,-6.3526,-6.3814,-6.3304,-6.3129,-6.399,-6.4599,-6.503,-6.4999,-6.508,-6.5411,-6.6342,-6.6684,-6.7285,-6.8643,-6.9345,-6.9922,-7.0309,-6.9883,-6.9339,-6.9321,-6.8831,-6.8484,-6.8523,-6.8599,-6.8986,-6.9776,-6.9675,-6.9332,-4.7941,-4.7948,-4.8257,-4.8487,-4.8635,-4.7219,-4.6667,-4.6657,-4.8043,-4.8879,-4.9272,-4.9599,-5.0202,-5.1055,-5.0759,-5.0966,-5.1528,-5.1211,-5.158,-5.2586,-5.2891,-5.4048,-5.5894,-5.6959,-5.6892,-5.5841,-5.6717,-5.6197,-5.4387,-5.4648,-5.4917,-5.516,-5.594,-5.6093,-5.5579,-5.5446,-5.6064,-5.7498,-5.818,-5.8902,-5.9613,-5.9537,-5.9072,-5.8194,-5.7223,-5.5972,-5.4495,-5.3417,-5.2541,-5.1868,-5.1787,-5.1746,-5.1746,-5.1746,-5.175,0.0,-5.1756,0.0,0.0,0.0,0.0,0.0,0.0,0.0,0.0,-5.275,-5.3528,-5.5084,-5.6566,-5.7511,-5.7513,-5.7605,-5.7876,-5.8467,-5.8633,-5.9224,-6.0434,-6.1095,-6.1741,-6.2567,-6.2457,-6.2339,-6.2467,-6.3069,-6.3489,-6.3454,-6.3293,-6.3255,-6.3387,-6.2977,-6.2977,-6.4009,-6.4197,-6.4367,-6.5153,-6.5421,-6.5538,-6.5806,-6.6066,-6.6477,-6.7569,-6.7945,-6.8233,-6.8945,-6.8645,-6.8108,-6.7975,-6.7502,-6.7131,-6.732,-6.7487,-6.8055,-6.9247,-6.939,-6.9052,-4.8744,-4.8104,-4.8545,-4.8332,-4.7709,-4.7997,-4.8704,-4.9693,-5.0144,-5.0657,-5.1185,-5.1338,-5.1843,-5.2461,-5.2067,-5.2284,-5.2985,-5.1434,-5.1559,-5.3105,-5.2847,-5.3379,-5.4623,-5.5012,-5.481,-5.4306,-5.4893,-5.472,-5.3728,-5.439,-5.5082,-5.5794,-5.5996,-5.6708,-5.7832,0.0,0.0,0.0,-5.8342,-5.9115,-5.9874,-5.9241,-5.8642,-5.8175,-5.6624,0.0,-5.5007,-5.3479,-5.2623,-5.2472,-5.191,0.0,0.0,0.0,0.0,0.0,0.0,0.0,0.0,0.0,0.0,0.0,-5.5749,-5.5577,-5.3907,-5.4816,-5.5906,-5.677,-5.7733,-5.8566,-5.927,-5.9786,-5.9907,-5.9446,-5.9835,-6.002,-5.9632,-6.021,-6.0933,-6.1722,-6.1783,-6.1972,-6.2595,-6.2801,-6.2771,-6.2826,-6.2563,-6.2422,-6.2495,-6.2176,-6.2063,-6.2719,-6.3101,-6.3358,-6.4136,-6.4297,-6.462,-6.513,-6.597,-6.6722,-6.7486,-6.8331,-6.8887,-6.9122,-6.8543,-6.7981,-6.7981,-6.7564,-6.7154,-6.721,-6.747,-6.7779,-6.8072,-6.7909,-6.7593,-4.9384,0.0,-4.9509,-4.9472,0.0,-4.9973,-5.0713,-5.1318,-5.0672,-5.0777,-5.1394,-5.1509,-5.1918,-5.2549,-5.2321,-5.2665,-5.33,-5.2348,-5.2508,-5.3468,-5.3254,-5.3812,-5.5003,-5.5103,-5.4994,-5.4742,-5.5151,-5.4831,-5.3903,-5.4315,-5.4781,-5.5174,-5.5984,-5.6639,-5.7125,-5.7536,-5.7843,-5.8053,-5.8856,-5.9417,-5.9763,-5.937,-5.8786,-5.8051,-5.676,0.0,0.0,0.0,0.0,0.0,0.0,0.0,0.0,-5.24,0.0,-5.3237,-5.4131,-5.4802,-5.5193,-5.5641,-5.5921,-5.5959,-5.6925,-5.7218,-5.6381,-5.746,-5.8126,-5.8021,-5.8725,-5.9375,-5.982,-6.0166,-6.0196,-5.9826,-6.0034,-5.9973,-5.9669,-6.0112,-6.0625,-6.0992,-6.1055,-6.1318,-6.2108,-6.2168,-6.2283,-6.2631,-6.2603,-6.2449,-6.2415,-6.2024,-6.1981,-6.2583,-6.3064,-6.3405,-6.3705,-6.3872,-6.4166,-6.4957,-6.5563,-6.6241,-6.712,-6.771,-6.81,-6.8105,-6.7796,-6.76,-6.7586,-6.7466,-6.7341,-6.7266,-6.7396,-6.7524,-6.7506,-6.7396,-6.7341,-4.9784,-4.9993,-5.038,-5.0749,-5.0999,-5.1772,-5.2132,-5.2185,0.0,0.0,0.0,-5.1274,-5.1643,-5.2143,-5.2309,-5.2629,-5.3091,-5.3004,-5.3175,-5.3508,-5.3399,-5.4094,-5.531,-5.5379,-5.5337,-5.5191,-5.5475,-5.5018,-5.3975,-5.4222,-5.4518,-5.4844,-5.6152,-5.6659,-5.6415,-5.7742,-5.8525,-5.8736,-5.9341,-5.9681,-5.9597,-5.9465,-5.8928,-5.7903,-5.7024,-5.5993,-5.4803,-5.4192,-5.3785,-5.3542,-5.3048,-5.2846,-5.2995,-5.3534,-5.3925,-5.4111,-5.5266,-5.6069,-5.62,-5.6424,-5.6704,-5.7094,-5.767,-5.8244,-5.8679,-5.9394,-5.9547,-5.8754,-5.9441,-5.9905,-5.9924,-6.0072,-6.0072,-5.9918,-5.9814,-5.977,-5.9553,-5.9899,-6.0148,-6.0314,-6.0294,-6.0493,-6.1312,-6.1392,-6.1612,-6.2187,-6.237,-6.2627,-6.2567,-6.2291,-6.2241,-6.2673,-6.3065,-6.3451,-6.35,-6.3626,-6.4063,-6.4788,-6.5154,-6.5687,-6.6551,-6.6903,-6.6983,-6.7092,-6.7117,-6.7192,-6.7249,-6.7396,-6.7414,-6.7266,-6.7341,-6.7488,-6.7341,-6.7341,-6.7359,-4.959,-4.9767,-5.038,-5.0694,-5.0857,-5.1622,-5.2005,-5.2108,-5.1653,-5.153,-5.171,-5.1752,-5.1825,-5.1888,-5.2357,-5.2589,-5.2644,-5.1988,-5.2131,-5.2864,-5.2399,-5.2776,-5.3849,-5.3866,-5.3609,-5.3267,-5.3824,-5.3714,-5.3068,-5.3811,-5.4928,-5.6198,-5.6753,-5.7629,-5.8958,-5.9279,-5.9427,-5.9446,-5.959,-5.9681,-5.9681,-5.8971,-5.8328,-5.7828,-5.6967,-5.5897,-5.4617,-5.4566,-5.4197,-5.3474,-5.345,-5.3788,-5.4513,-5.4204,-5.4298,-5.4932,-5.4652,-5.4745,-5.5417,-5.5936,-5.7115,-5.8968,-5.9515,-5.9473,-5.8772,-5.8809,-5.8828,-5.8754,-5.9422,-5.9924,-5.9961,-6.05,-6.0568,-5.9906,-5.9789,-5.9423,-5.86,-5.861,-5.8915,-5.9523,-5.9485,-5.9769,-6.0588,-6.0669,-6.0713,-6.0885,-6.1618,-6.2053,-6.2558,-6.25,-6.2346,-6.2349,-6.2386,-6.2422,-6.2549,-6.2947,-6.3579,-6.4375,-6.5062,-6.5714,-6.6569,-6.6867,-6.6983,-6.6983,-6.7079,-6.7192,-6.7174,-6.7341,-6.7414,-6.7396,-6.7433,-6.7433,-6.7359,-6.7285,-6.721,-4.9171,-4.9632,-5.0211,-5.0492,-5.0675,-5.1384,-5.1758,-5.1853,-5.1813,-5.191,-5.2072,-5.2134,-5.216,-5.2222,-5.2453,-5.2608,-5.2572,-5.2272,-5.2397,-5.2769,-5.2492,-5.2682,-5.3222,-5.3359,-5.3339,-5.3256,-5.3665,-5.3684,-5.3442,-5.3814,-5.4429,-5.5175,-5.6108,-5.7473,-5.9008,-5.9177,-5.9215,-5.9215,-5.9543,-5.9696,-5.9715,-5.915,-5.8746,-5.8368,-5.7388,-5.6774,-5.6553,-5.6227,-5.6127,-5.6284,-5.5943,-5.5744,-5.5628,-5.5432,-5.5229,-5.5135,-5.5638,-5.6105,-5.6457,-5.7082,-5.7905,-5.8887,-5.9103,-5.8998,-5.8585,-5.9022,-5.9162,-5.8772,-5.9051,-5.9255,-5.9274,-5.9627,-5.964,-5.9263,-5.9122,-5.8843,-5.8452,-5.8575,-5.8915,-5.9246,-5.9208,-5.952,-6.0404,-6.0449,-6.0621,-6.0958,-6.1759,-6.2401,-6.275,-6.2723,-6.2552,-6.2449,-6.2362,-6.2257,-6.2168,-6.2368,-6.2912,-6.3579,-6.4375,-6.5229,-6.6007,-6.654,-6.6964,-6.7001,-6.7115,-6.721,-6.7192,-6.7285,-6.7285,-6.7229,-6.7229,-6.719,-6.7134,-6.7019,-6.7001,-4.8702,-4.9291,-4.9872,-5.0258,-5.0637,-5.1193,-5.1556,-5.1658,-5.2005,-5.2131,-5.2185,-5.225,-5.2408,-5.2445,-5.2499,-5.2581,-5.2608,-5.2672,-5.2735,-5.2735,-5.2717,-5.2806,-5.2937,-5.3091,-5.33,-5.3484,-5.3676,-5.3793,-5.3813,-5.3847,-5.3958,-5.4316,-5.5804,-5.7162,-5.8185,-5.849,-5.8641,-5.8681,-5.9063,-5.937,-5.9578,-5.9383,-5.9121,-5.8812,-5.7928,-5.7698,-5.8201,-5.774,-5.774,-5.828,-5.7806,-5.7175,-5.6559,-5.6172,-5.5763,-5.535,-5.6073,-5.6778,-5.7126,-5.7807,-5.824,-5.8319,-5.8375,-5.8349,-5.8342,-5.8998,-5.9258,-5.8744,-5.8651,-5.8651,-5.867,-5.867,-5.8614,-5.8614,-5.8523,-5.8541,-5.8644,-5.8998,-5.9347,-5.9475,-5.9483,-5.9758,-6.0236,-6.0401,-6.0694,-6.1447,-6.2163,-6.2535,-6.2768,-6.2823,-6.2755,-6.2654,-6.25,-6.2415,-6.2203,-6.2168,-6.2495,-6.298,-6.3832,-6.474,-6.55,-6.6377,-6.6928,-6.7001,-6.7097,-6.721,-6.7192,-6.7192,-6.7154,-6.7115,-6.7058,-6.6943,-6.6863,-6.6863,-6.6863,-4.8429,-4.8597,-4.9067,-4.9899,-5.1034,-5.1246,-5.1402,-5.1612,-5.2388,-5.2401,-5.1893,-5.2036,-5.2198,-5.2311,-5.2358,-5.2387,-5.2526,-5.2544,-5.2544,-5.2544,-5.2544,-5.2554,-5.2635,-5.2787,-5.298,-5.3212,-5.3318,-5.344,-5.3561,-5.3697,-5.426,-5.5231,-5.6799,-5.7246,-5.6911,-5.749,-5.7845,-5.7826,-5.7978,-5.8447,-5.9197,-5.9215,-5.908,-5.8739,-5.8479,-5.8307,-5.8186,-5.8123,-5.7906,-5.745,-5.7241,-5.7149,-5.7029,-5.5706,-5.5147,-5.5641,-5.463,-5.446,-5.5871,-5.6817,-5.7449,-5.784,-5.8051,-5.807,-5.7886,-5.807,-5.8289,-5.8349,-5.8437,-5.8437,-5.8437,-5.8418,-5.8462,-5.8468,-5.84,-5.8626,-5.9108,-5.9338,-5.967,-6.0378,-6.0265,-6.0375,-6.0496,-6.0522,-6.0786,-6.1612,-6.1893,-6.2173,-6.2713,-6.2823,-6.2823,-6.2755,-6.2654,-6.2603,-6.2482,-6.2344,-6.2512,-6.3185,-6.3909,-6.4613,-6.5374,-6.6192,-6.6983,-6.6867,-6.704,-6.7154,-6.7136,-6.7192,-6.721,-6.704,-6.7001,-6.6961,-6.6863,-6.6804,-6.6804,-4.8224,-4.9186,-4.9493,-5.0175,-5.1034,-5.1246,-5.1668,-5.2198,-5.2243,-5.2362,-5.2484,-5.2202,-5.215,-5.2168,-5.2264,-5.2376,-5.2498,-5.2498,-5.2498,-5.2498,-5.2554,-5.2563,-5.259,-5.2806,-5.2999,-5.3085,-5.317,-5.3295,-5.34,-5.3521,-5.4086,-5.4962,-5.6113,-5.6726,-5.6948,-5.7728,-5.8136,-5.8136,-5.82,-5.8449,-5.8747,-5.8747,-5.8646,-5.8498,-5.8168,-5.7767,-5.7426,-5.7326,-5.6985,-5.6393,-5.6319,-5.6074,-5.5589,-5.5009,-5.4585,-5.4414,-5.4289,-5.4718,-5.5784,-5.6184,-5.6632,-5.718,-5.7253,-5.7372,-5.7642,-5.7726,-5.7792,-5.7904,-5.8042,-5.8197,-5.8242,-5.8305,-5.8331,-5.8375,-5.8331,-5.8389,-5.862,-5.9476,-6.0018,-5.9879,-6.0577,-6.0878,-6.0651,-6.0853,-6.141,-6.2108,-6.2297,-6.2443,-6.2787,-6.2823,-6.2823,-6.2805,-6.2755,-6.2705,-6.2585,-6.2449,-6.2439,-6.2676,-6.3488,-6.4368,-6.4671,-6.5772,-6.6572,-6.659,-6.675,-6.675,-6.6632,-6.6809,-6.6943,-6.6885,-6.6885,-6.6863,-6.6804,-6.6727,-6.6668,-4.8254,-4.9447,-4.9936,-5.0509,-5.1141,-5.1298,-5.1721,-5.2375,-5.2273,-5.2426,-5.2741,-5.2551,-5.233,-5.218,-5.2228,-5.2358,-5.2498,-5.2498,-5.2498,-5.248,-5.2563,-5.2608,-5.2635,-5.2893,-5.2999,-5.3042,-5.3146,-5.323,-5.3295,-5.3378,-5.3713,-5.4359,-5.5318,-5.6018,-5.6498,-5.742,-5.7973,-5.7936,-5.8024,-5.8116,-5.8194,-5.8194,-5.8183,-5.8227,-5.7784,-5.7375,-5.7043,-5.6694,-5.6291,-5.5687,-5.565,-5.5239,-5.4436,-5.4448,-5.4105,-5.334,-5.381,-5.4533,-5.5325,-5.5331,-5.5702,-5.6502,-5.6556,-5.6791,-5.7352,-5.7534,-5.7553,-5.7504,-5.7667,-5.7857,-5.7997,-5.8042,-5.8088,-5.8205,-5.8133,-5.8162,-5.8511,-5.953,-5.9924,-5.9703,-6.0529,-6.119,-6.0951,-6.1429,-6.2144,-6.264,-6.2787,-6.2823,-6.2823,-6.2823,-6.2823,-6.2823,-6.2823,-6.2755,-6.2636,-6.25,-6.231,-6.2495,-6.3217,-6.4112,-6.4081,-6.534,-6.633,-6.6452,-6.6452,-6.6452,-6.6512,-6.665,-6.6709,-6.659,-6.659,-6.6668,-6.6626,-6.6548,-6.647,-4.8786,-4.9054,-5.0233,-5.0928,-5.1298,-5.1402,-5.1541,-5.1805,-5.2577,-5.2633,-5.2258,-5.2967,-5.299,-5.2325,-5.2322,-5.2358,-5.2498,-5.2498,-5.2498,-5.2526,-5.2563,-5.259,-5.259,-5.2893,-5.2999,-5.306,-5.3146,-5.3206,-5.3206,-5.3206,-5.3225,-5.3371,-5.4828,-5.5251,-5.5048,-5.6206,-5.6885,-5.7004,-5.6977,-5.7134,-5.7528,-5.7468,-5.7594,-5.7739,-5.7565,-5.7401,-5.7382,-5.681,-5.6136,-5.5592,-5.5357,-5.4983,-5.4243,-5.4044,-5.3634,-5.2977,-5.2904,-5.3269,-5.4008,-5.4117,-5.4665,-5.5902,-5.6132,-5.6576,-5.7071,-5.7229,-5.7266,-5.7257,-5.7234,-5.7315,-5.7601,-5.7649,-5.7708,-5.7822,-5.7849,-5.8234,-5.8977,-5.9106,-5.963,-6.0015,-6.0298,-6.0805,-6.141,-6.2254,-6.2603,-6.2787,-6.2823,-6.2823,-6.2823,-6.2823,-6.2823,-6.2823,-6.2823,-6.2823,-6.2755,-6.25,-6.2362,-6.2477,-6.3127,-6.4188,-6.4613,-6.5089,-6.579,-6.6276,-6.6125,-6.6168,-6.6416,-6.653,-6.6512,-6.6452,-6.6409,-6.6409,-6.6427,-6.6348,-6.6269,-4.9249,-5.0018,-5.0822,-5.1228,-5.1402,-5.1454,-5.1841,-5.2371,-5.2408,-5.2592,-5.2762,-5.2864,-5.2705,-5.2444,-5.2415,-5.2452,-5.248,-5.2554,-5.2563,-5.2563,-5.2761,-5.285,-5.2893,-5.306,-5.3121,-5.3146,-5.3146,-5.3206,-5.3206,-5.3206,-5.3206,-5.3371,-5.4271,-5.4895,-5.5225,-5.5739,-5.6253,-5.673,-5.6804,-5.6575,-5.6252,-5.6861,-5.7053,-5.6514,-5.6935,-5.6903,-5.6446,-5.5801,-5.5116,-5.4428,-5.3854,-5.3436,-5.3163,-5.309,-5.3026,-5.286,-5.2806,-5.2933,-5.3188,-5.3243,-5.3654,-5.4498,-5.4691,-5.528,-5.6169,-5.6495,-5.6677,-5.6971,-5.6599,-5.6663,-5.7216,-5.7411,-5.751,-5.766,-5.7679,-5.7807,-5.8202,-5.867,-5.9011,-5.8908,-5.9493,-6.0616,-6.1398,-6.231,-6.2787,-6.2823,-6.2823,-6.2823,-6.2805,-6.2805,-6.2755,-6.2823,-6.2823,-6.2823,-6.2823,-6.25,-6.2294,-6.2495,-6.296,-6.35,-6.4028,-6.4524,-6.5125,-6.5402,-6.5438,-6.5564,-6.574,-6.61,-6.6179,-6.633,-6.6269,-6.6225,-6.6269,-6.6146,-6.6083,-5.0076,-5.0839,-5.1263,-5.1505,-5.1574,-5.1556,-5.1961,-5.2541,-5.2238,-5.2456,-5.2828,-5.2622,-5.2498,-5.2498,-5.2498,-5.2498,-5.2498,-5.2563,-5.2608,-5.2654,-5.2893,-5.2999,-5.3017,-5.3164,-5.3206,-5.3206,-5.3206,-5.3206,-5.3206,-5.3206,-5.3206,-5.3261,-5.4014,-5.4656,-5.5152,-5.5445,-5.5886,-5.6353,-5.64,-5.6081,-5.5694,-5.6345,-5.6548,-5.6111,-5.6559,-5.6665,-5.614,-5.5469,-5.4936,-5.4399,-5.3458,-5.277,-5.2534,-5.2554,-5.2627,-5.269,-5.2672,-5.2672,-5.269,-5.269,-5.3008,-5.3707,-5.3816,-5.435,-5.5468,-5.5631,-5.5921,-5.6161,-5.5952,-5.5794,-5.6201,-5.64,-5.6736,-5.7261,-5.7437,-5.7486,-5.7504,-5.8075,-5.8093,-5.7966,-5.8835,-5.9993,-6.0951,-6.1757,-6.2288,-6.2599,-6.2672,-6.2672,-6.2654,-6.2654,-6.2654,-6.2672,-6.2672,-6.2654,-6.2552,-6.231,-6.215,-6.2258,-6.2594,-6.3077,-6.3357,-6.3885,-6.4314,-6.4492,-6.4671,-6.4876,-6.5144,-6.56,-6.5878,-6.6092,-6.6083,-6.6039,-6.6021,-6.5958,-6.5895,-5.1263,-5.1333,-5.1589,-5.1708,-5.174,-5.174,-5.1808,-5.1979,-5.2071,-5.2252,-5.2437,-5.2452,-5.248,-5.248,-5.2526,-5.2498,-5.2635,-5.2754,-5.2726,-5.2654,-5.2893,-5.2999,-5.306,-5.3164,-5.3206,-5.3206,-5.3206,-5.3206,-5.3206,-5.3206,-5.3206,-5.3353,-5.3922,-5.4344,-5.4436,-5.5078,-5.5489,-5.5606,-5.5618,-5.5679,-5.6104,-5.6006,-5.6082,-5.6313,-5.6492,-5.6599,-5.6704,-5.6019,-5.5617,-5.5654,-5.449,-5.3367,-5.2806,-5.2643,-5.2552,-5.2653,-5.2552,-5.2552,-5.2498,-5.2544,-5.287,-5.3385,-5.3639,-5.3929,-5.4689,-5.4888,-5.4961,-5.5093,-5.4855,-5.4774,-5.486,-5.4846,-5.535,-5.6812,-5.7043,-5.7043,-5.722,-5.7307,-5.7406,-5.7515,-5.8323,-5.9133,-5.9917,-6.0828,-6.1613,-6.2214,-6.2415,-6.2397,-6.2415,-6.2415,-6.2415,-6.2415,-6.2415,-6.2449,-6.2257,-6.2114,-6.2005,-6.2022,-6.2411,-6.2767,-6.2845,-6.3171,-6.3563,-6.3796,-6.4206,-6.4367,-6.476,-6.5216,-6.5591,-6.5779,-6.5806,-6.575,-6.5786,-6.5768,-6.5768,-5.1211,-5.1589,-5.1758,-5.1889,-5.1987,-5.1987,-5.1987,-5.2054,-5.2216,-5.2246,-5.2311,-5.2452,-5.2526,-5.2599,-5.2581,-5.2936,-5.3518,-5.3608,-5.3353,-5.2915,-5.3017,-5.3164,-5.3146,-5.3164,-5.3206,-5.3206,-5.3206,-5.3206,-5.3206,-5.3206,-5.3206,-5.328,-5.3463,-5.3885,-5.4308,-5.4142,-5.4161,-5.4736,-5.4766,-5.4481,-5.3935,-5.4796,-5.5207,-5.5022,-5.5576,-5.6167,-5.6704,-5.6124,-5.5812,-5.5862,-5.5021,-5.4418,-5.4128,-5.3621,-5.3331,-5.3331,-5.3331,-5.3059,-5.257,-5.2534,-5.2661,-5.2842,-5.2915,-5.3259,-5.3929,-5.4092,-5.4279,-5.4574,-5.4179,-5.4093,-5.4957,-5.4574,-5.4789,-5.5962,-5.6122,-5.6428,-5.6843,-5.6951,-5.7087,-5.7329,-5.7913,-5.8761,-5.9611,-6.0461,-6.1242,-6.2022,-6.2203,-6.2132,-6.2203,-6.215,-6.215,-6.215,-6.2203,-6.2203,-6.2132,-6.2168,-6.2273,-6.2143,-6.2292,-6.2295,-6.2338,-6.2385,-6.2778,-6.3242,-6.3635,-6.3966,-6.4421,-6.4867,-6.5215,-6.5347,-6.5255,-6.5361,-6.5539,-6.5593,-6.551,-5.1297,-5.1758,-5.1858,-5.2005,-5.2084,-5.2084,-5.2132,-5.2246,-5.2358,-5.2405,-5.248,-5.2554,-5.2808,-5.3054,-5.3135,-5.3636,-5.4392,-5.46,-5.4326,-5.3788,-5.3634,-5.3518,-5.3261,-5.3206,-5.3206,-5.3206,-5.3206,-5.3206,-5.3206,-5.3206,-5.3206,-5.3206,-5.3206,-5.3445,-5.3885,-5.3518,-5.35,-5.3904,-5.394,-5.3701,-5.339,-5.3997,-5.4412,-5.4371,-5.4753,-5.5398,-5.608,-5.5859,-5.5887,-5.6097,-5.5672,-5.5214,-5.4907,-5.4418,-5.4146,-5.4146,-5.411,-5.3911,-5.3458,-5.3476,-5.3403,-5.3367,-5.3114,-5.315,-5.3603,-5.3646,-5.3869,-5.4043,-5.3968,-5.4065,-5.475,-5.4506,-5.449,-5.5328,-5.5845,-5.6132,-5.667,-5.6742,-5.6974,-5.7331,-5.787,-5.8646,-5.9709,-6.0251,-6.101,-6.1715,-6.1877,-6.1877,-6.195,-6.1895,-6.1895,-6.184,-6.1877,-6.1969,-6.206,-6.2237,-6.2501,-6.2364,-6.2301,-6.2057,-6.1867,-6.1771,-6.1968,-6.2688,-6.3109,-6.3476,-6.3886,-6.45,-6.4917,-6.4841,-6.4782,-6.5184,-6.5397,-6.5331,-6.5313,-5.1538,-5.1907,-5.1925,-5.2054,-5.2132,-5.218,-5.2322,-5.248,-5.2526,-5.2618,-5.2735,-5.2761,-5.317,-5.3754,-5.3772,-5.4346,-5.5113,-5.524,-5.5385,-5.5184,-5.4796,-5.4167,-5.3482,-5.328,-5.3206,-5.3206,-5.3206,-5.3188,-5.3206,-5.3206,-5.3206,-5.3206,-5.3206,-5.3206,-5.3316,-5.3225,-5.3243,-5.3316,-5.3298,-5.3463,-5.3709,-5.3634,-5.3767,-5.4223,-5.4146,-5.4437,-5.5276,-5.5453,-5.6019,-5.6884,-5.6247,-5.554,-5.5196,-5.5015,-5.4943,-5.4961,-5.4961,-5.487,-5.487,-5.4635,-5.4599,-5.4418,-5.3892,-5.3657,-5.3548,-5.3526,-5.3586,-5.3616,-5.3922,-5.4217,-5.4309,-5.4258,-5.4563,-5.5223,-5.6045,-5.6492,-5.6582,-5.66,-5.703,-5.7549,-5.7963,-5.861,-5.9993,-6.0336,-6.0768,-6.1382,-6.1577,-6.1559,-6.1633,-6.1633,-6.1577,-6.1559,-6.1615,-6.1672,-6.1764,-6.2547,-6.2749,-6.2475,-6.2463,-6.2342,-6.1753,-6.1539,-6.1379,-6.2003,-6.262,-6.2986,-6.3387,-6.3964,-6.4315,-6.4309,-6.4592,-6.507,-6.5216,-6.5131,-6.5114,-5.1604,-5.2198,-5.2311,-5.2369,-5.2472,-5.2581,-5.2627,-5.2735,-5.2735,-5.2779,-5.2806,-5.2806,-5.2996,-5.3321,-5.3924,-5.4645,-5.5375,-5.5548,-5.5978,-5.6397,-5.5779,-5.4969,-5.4141,-5.3553,-5.3314,-5.3332,-5.3272,-5.3254,-5.3206,-5.3206,-5.3206,-5.3206,-5.3206,-5.3206,-5.3206,-5.3206,-5.3206,-5.3206,-5.3225,-5.3152,-5.3097,-5.3035,-5.3085,-5.3536,-5.3494,-5.4074,-5.5186,-5.5452,-5.6019,-5.6855,-5.5853,-5.5703,-5.6355,-5.6011,-5.5703,-5.5703,-5.5703,-5.545,-5.507,-5.4979,-5.4707,-5.4074,-5.4037,-5.344,-5.2878,-5.3338,-5.3496,-5.3513,-5.3922,-5.4556,-5.4847,-5.4902,-5.5294,-5.5937,-5.6312,-5.6455,-5.6435,-5.6807,-5.7234,-5.743,-5.8003,-5.8902,-5.9745,-6.0196,-6.0447,-6.1131,-6.1346,-6.127,-6.1328,-6.1328,-6.1328,-6.127,-6.1328,-6.1368,-6.1691,-6.263,-6.2956,-6.2574,-6.2709,-6.3066,-6.231,-6.1646,-6.1397,-6.1414,-6.2096,-6.2506,-6.2754,-6.3187,-6.3412,-6.3723,-6.4397,-6.4926,-6.5046,-6.4997,-6.4979,-5.1983,-5.2893,-5.2987,-5.309,-5.3208,-5.3253,-5.3178,-5.2948,-5.2937,-5.2999,-5.3005,-5.3023,-5.3268,-5.3763,-5.4161,-5.5048,-5.6055,-5.5852,-5.6209,-5.6768,-5.6184,-5.5557,-5.4967,-5.4244,-5.3815,-5.3801,-5.3484,-5.3295,-5.323,-5.3188,-5.3206,-5.3206,-5.3206,-5.3206,-5.3206,-5.3206,-5.3206,-5.3261,-5.3463,-5.3433,-5.2798,-5.2963,-5.2814,-5.2821,-5.2723,-5.3322,-5.4631,-5.5255,-5.5915,-5.6415,-5.5938,-5.5858,-5.687,-5.6772,-5.6482,-5.65,-5.65,-5.6283,-5.5993,-5.5866,-5.5667,-5.5214,-5.4925,-5.4472,-5.42,-5.4369,-5.4507,-5.4535,-5.4978,-5.5434,-5.5669,-5.5759,-5.5919,-5.6258,-5.6383,-5.6346,-5.629,-5.6647,-5.7196,-5.7712,-5.8356,-5.9086,-6.0201,-6.038,-6.067,-6.1068,-6.1288,-6.1211,-6.1193,-6.1152,-6.1152,-6.1152,-6.1152,-6.127,-6.1408,-6.2164,-6.2763,-6.2505,-6.2639,-6.3144,-6.2639,-6.1768,-6.1537,-6.1404,-6.1734,-6.1956,-6.2132,-6.2411,-6.2929,-6.3397,-6.4142,-6.4618,-6.4825,-6.4929,-6.4911,-5.2443,-5.3577,-5.3733,-5.3826,-5.3972,-5.4036,-5.3723,-5.3262,-5.3182,-5.3212,-5.3277,-5.33,-5.3631,-5.4548,-5.4404,-5.5294,-5.6614,-5.5876,-5.6269,-5.6491,-5.6269,-5.5923,-5.5997,-5.5138,-5.4806,-5.47,-5.3916,-5.3728,-5.3663,-5.3487,-5.328,-5.3353,-5.3335,-5.3206,-5.3206,-5.3206,-5.3206,-5.3298,-5.3708,-5.3481,-5.2862,-5.2963,-5.2821,-5.2202,-5.2183,-5.2901,-5.4098,-5.4865,-5.5632,-5.651,-5.6127,-5.6194,-5.684,-5.7087,-5.7102,-5.7065,-5.7029,-5.7062,-5.7134,-5.6971,-5.6989,-5.6627,-5.612,-5.5939,-5.5595,-5.5478,-5.5573,-5.5487,-5.6257,-5.642,-5.6403,-5.6384,-5.6329,-5.6383,-5.6383,-5.6383,-5.6401,-5.6454,-5.7041,-5.8431,-5.8699,-5.9554,-6.0522,-6.1093,-6.1093,-6.1122,-6.127,-6.127,-6.127,-6.127,-6.1211,-6.1152,-6.1152,-6.1152,-6.1397,-6.1747,-6.2141,-6.2284,-6.2539,-6.2764,-6.2563,-6.1972,-6.1679,-6.1608,-6.1512,-6.1343,-6.1217,-6.1682,-6.2363,-6.3176,-6.4039,-6.446,-6.4706,-6.4775,-6.4775,-5.2405,-5.2917,-5.3754,-5.4117,-5.4143,-5.425,-5.4228,-5.3989,-5.3492,-5.3277,-5.33,-5.34,-5.3529,-5.3691,-5.4303,-5.4857,-5.5225,-5.512,-5.5443,-5.6191,-5.6191,-5.651,-5.6737,-5.608,-5.5784,-5.5544,-5.497,-5.481,-5.487,-5.4073,-5.3603,-5.4032,-5.3592,-5.3225,-5.3261,-5.3243,-5.3206,-5.3243,-5.3408,-5.3237,-5.2763,-5.2717,-5.2539,-5.1961,-5.2365,-5.3385,-5.4456,-5.4509,-5.4991,-5.5812,-5.5883,-5.5859,-5.6577,-5.6915,-5.6948,-5.693,-5.7087,-5.7138,-5.7087,-5.712,-5.6935,-5.6446,-5.6197,-5.574,-5.5214,-5.5726,-5.5894,-5.5938,-5.6343,-5.6617,-5.6492,-5.6437,-5.6383,-5.6383,-5.6383,-5.6437,-5.66,-5.6882,-5.7484,-5.8338,-5.9069,-5.9888,-6.0879,-6.0986,-6.1081,-6.1176,-6.1328,-6.1386,-6.1386,-6.1386,-6.1328,-6.127,-6.1211,-6.1152,-6.1254,-6.1437,-6.153,-6.1848,-6.2117,-6.2388,-6.2141,-6.1947,-6.1676,-6.1305,-6.1033,-6.0917,-6.0878,-6.1536,-6.2367,-6.3161,-6.3916,-6.4337,-6.4636,-6.4653,-6.4706,-5.2436,-5.3407,-5.4041,-5.4312,-5.4294,-5.4387,-5.4246,-5.386,-5.3562,-5.34,-5.3499,-5.3558,-5.3558,-5.3558,-5.4016,-5.4386,-5.4726,-5.4803,-5.5066,-5.5535,-5.5609,-5.6095,-5.6707,-5.6521,-5.6184,-5.611,-5.5717,-5.5688,-5.5591,-5.5078,-5.4778,-5.4926,-5.4228,-5.3891,-5.3647,-5.3408,-5.3225,-5.3316,-5.3597,-5.3408,-5.2681,-5.2824,-5.2498,-5.2229,-5.2794,-5.376,-5.3956,-5.4456,-5.467,-5.4901,-5.4848,-5.5097,-5.6008,-5.6579,-5.6667,-5.6379,-5.6755,-5.6966,-5.6951,-5.6915,-5.6822,-5.644,-5.6371,-5.6154,-5.597,-5.6223,-5.6368,-5.6392,-5.6525,-5.6689,-5.6437,-5.6383,-5.6383,-5.6383,-5.6383,-5.642,-5.6527,-5.6812,-5.7311,-5.8045,-5.8548,-5.948,-6.0178,-6.0603,-6.1055,-6.1207,-6.1444,-6.1519,-6.1519,-6.1519,-6.1444,-6.1386,-6.127,-6.1229,-6.1224,-6.1223,-6.1069,-6.1252,-6.143,-6.1647,-6.1664,-6.1589,-6.1559,-6.1312,-6.1101,-6.0931,-6.0996,-6.1687,-6.2143,-6.274,-6.3372,-6.4092,-6.4548,-6.4601,-6.4671,-5.2514,-5.4085,-5.4344,-5.4442,-5.4485,-5.4515,-5.4183,-5.3635,-5.3496,-5.3558,-5.3656,-5.3674,-5.3658,-5.3695,-5.3687,-5.4174,-5.455,-5.474,-5.4777,-5.4994,-5.483,-5.5294,-5.5872,-5.5943,-5.6036,-5.6225,-5.6051,-5.6103,-5.6187,-5.6016,-5.5662,-5.573,-5.4914,-5.4393,-5.4161,-5.3628,-5.3206,-5.328,-5.3689,-5.3511,-5.2645,-5.294,-5.2666,-5.2452,-5.2671,-5.3333,-5.3476,-5.394,-5.4313,-5.3797,-5.3654,-5.4063,-5.4884,-5.5901,-5.6276,-5.5594,-5.6276,-5.6706,-5.6742,-5.6742,-5.6758,-5.6794,-5.6776,-5.6776,-5.6757,-5.6737,-5.6755,-5.6739,-5.6742,-5.6653,-5.6437,-5.6383,-5.6383,-5.6383,-5.6383,-5.6383,-5.6437,-5.6546,-5.7065,-5.7729,-5.814,-5.8747,-5.9573,-6.0182,-6.0726,-6.1235,-6.1433,-6.1633,-6.1708,-6.1708,-6.1559,-6.1501,-6.1444,-6.1135,-6.1111,-6.1027,-6.0919,-6.0783,-6.0862,-6.109,-6.13,-6.1418,-6.143,-6.1401,-6.126,-6.1014,-6.0891,-6.1195,-6.1687,-6.2231,-6.281,-6.3477,-6.4004,-6.4478,-6.4566,-5.2425,-5.3534,-5.4299,-5.4635,-5.4617,-5.4658,-5.4529,-5.4363,-5.3838,-5.3616,-5.3579,-5.366,-5.3582,-5.3481,-5.3502,-5.3672,-5.3915,-5.4049,-5.4329,-5.4507,-5.4306,-5.4475,-5.4973,-5.5062,-5.5358,-5.5955,-5.6066,-5.6182,-5.6614,-5.6252,-5.6172,-5.6187,-5.5214,-5.4534,-5.4363,-5.3665,-5.3316,-5.3335,-5.3463,-5.3102,-5.2626,-5.2495,-5.2666,-5.2401,-5.2511,-5.2727,-5.3246,-5.3194,-5.3176,-5.3419,-5.3545,-5.358,-5.3865,-5.4795,-5.5205,-5.5329,-5.5991,-5.6546,-5.6492,-5.6528,-5.6689,-5.6742,-5.6742,-5.6794,-5.6794,-5.6794,-5.6794,-5.6794,-5.6689,-5.6546,-5.6437,-5.6383,-5.6383,-5.6383,-5.6383,-5.6455,-5.6546,-5.66,-5.6796,-5.7423,-5.7709,-5.8033,-5.8914,-5.9669,-6.021,-6.0807,-6.1204,-6.1604,-6.1858,-6.1802,-6.1746,-6.169,-6.1633,-6.1252,-6.0938,-6.0878,-6.0767,-6.0448,-6.0522,-6.0721,-6.0949,-6.123,-6.1318,-6.1125,-6.0897,-6.0581,-6.0616,-6.0826,-6.1318,-6.1915,-6.2406,-6.288,-6.3512,-6.4109,-6.4267,-5.1999,-5.3006,-5.3901,-5.4272,-5.4251,-5.4251,-5.4251,-5.4195,-5.3862,-5.3676,-5.3676,-5.3714,-5.3695,-5.3576,-5.3566,-5.3607,-5.3616,-5.3695,-5.3917,-5.4023,-5.382,-5.3746,-5.4189,-5.4109,-5.4293,-5.4681,-5.5087,-5.619,-5.7438,-5.6405,-5.6503,-5.6956,-5.5919,-5.5312,-5.5262,-5.4491,-5.3922,-5.3757,-5.3402,-5.293,-5.2426,-5.2173,-5.2189,-5.2183,-5.2264,-5.2375,-5.2376,-5.2644,-5.2342,-5.2252,-5.2181,-5.2161,-5.2568,-5.3402,-5.4453,-5.4877,-5.5717,-5.6199,-5.6217,-5.6273,-5.6383,-5.651,-5.6546,-5.66,-5.66,-5.6653,-5.6707,-5.6653,-5.66,-5.6492,-5.6383,-5.6383,-5.6383,-5.6383,-5.6383,-5.6455,-5.6546,-5.6546,-5.676,-5.7082,-5.7281,-5.7675,-5.8412,-5.9114,-5.9673,-6.0305,-6.0882,-6.1407,-6.1824,-6.195,-6.1858,-6.1802,-6.1746,-6.1501,-6.1117,-6.0938,-6.074,-6.045,-6.0188,-6.0388,-6.051,-6.0756,-6.0721,-6.0563,-6.0335,-6.0335,-6.0265,-6.044,-6.102,-6.1581,-6.2073,-6.2582,-6.3231,-6.3705,-6.3741,-5.1564,-5.2565,-5.3252,-5.3532,-5.346,-5.3609,-5.3554,-5.3479,-5.3682,-5.3643,-5.3589,-5.3695,-5.3751,-5.3711,-5.3658,-5.3613,-5.3635,-5.3616,-5.3653,-5.3592,-5.3536,-5.3459,-5.3459,-5.3437,-5.3617,-5.4096,-5.4325,-5.5546,-5.662,-5.6313,-5.6749,-5.6974,-5.6349,-5.6147,-5.6216,-5.528,-5.4766,-5.4216,-5.383,-5.3149,-5.248,-5.1969,-5.169,-5.1658,-5.2179,-5.2109,-5.1652,-5.1812,-5.1634,-5.1351,-5.1085,-5.1031,-5.1384,-5.2511,-5.3714,-5.4638,-5.5437,-5.5773,-5.5918,-5.5993,-5.6123,-5.6179,-5.629,-5.6346,-5.6401,-5.651,-5.6546,-5.6546,-5.6492,-5.6401,-5.6383,-5.6383,-5.6383,-5.6383,-5.6401,-5.6455,-5.651,-5.6546,-5.6546,-5.6761,-5.6847,-5.7205,-5.7818,-5.8411,-5.8934,-5.9565,-6.0196,-6.0937,-6.1426,-6.1915,-6.195,-6.1895,-6.1784,-6.1672,-6.1368,-6.1135,-6.0896,-6.053,-6.028,-6.0212,-6.0194,-6.0212,-6.0194,-6.0265,-6.0423,-6.0423,-6.023,-6.0107,-6.0563,-6.109,-6.1669,-6.2108,-6.2441,-6.2722,-6.2845,-5.1275,-5.2246,-5.2359,-5.2366,-5.2441,-5.293,-5.2716,-5.2311,-5.3366,-5.3479,-5.2828,-5.3403,-5.3621,-5.3592,-5.3557,-5.3456,-5.3369,-5.3477,-5.3477,-5.3373,-5.3336,-5.3318,-5.3318,-5.3272,-5.3584,-5.3818,-5.4099,-5.4411,-5.5251,-5.5526,-5.6132,-5.6712,-5.64,-5.6033,-5.6722,-5.5915,-5.5097,-5.4564,-5.4301,-5.3642,-5.2607,-5.1992,-5.1711,-5.1592,-5.1596,-5.1545,-5.1229,-5.1317,-5.1158,-5.1015,-5.0891,-5.1224,-5.1874,-5.2664,-5.3563,-5.4394,-5.5138,-5.5706,-5.5706,-5.5764,-5.5879,-5.5936,-5.6106,-5.6179,-5.6235,-5.6346,-5.6455,-5.6383,-5.6383,-5.6383,-5.6383,-5.6383,-5.6383,-5.6383,-5.6455,-5.651,-5.6564,-5.6492,-5.6492,-5.66,-5.6742,-5.6742,-5.6994,-5.7621,-5.8196,-5.8826,-5.9547,-6.0287,-6.0919,-6.1371,-6.1877,-6.184,-6.1802,-6.169,-6.1501,-6.127,-6.0956,-6.0671,-6.0423,-6.0153,-6.0089,-6.0089,-6.0089,-6.0194,-6.0352,-6.0405,-6.0194,-6.0142,-6.023,-6.0616,-6.123,-6.1353,-6.1371,-6.1669,-6.2196,-5.0954,-5.1735,-5.2182,-5.2371,-5.2352,-5.2534,-5.2372,-5.2177,-5.2529,-5.2541,-5.2304,-5.2828,-5.3289,-5.3489,-5.3672,-5.3592,-5.3418,-5.344,-5.3418,-5.3272,-5.3254,-5.3212,-5.3127,-5.3103,-5.336,-5.3463,-5.3522,-5.3734,-5.4261,-5.5147,-5.6026,-5.6969,-5.6594,-5.6557,-5.706,-5.6428,-5.5953,-5.5469,-5.4893,-5.3958,-5.3075,-5.2448,-5.2001,-5.142,-5.1316,-5.1211,-5.1141,-5.0998,-5.0998,-5.0891,-5.0891,-5.1259,-5.1924,-5.2678,-5.3392,-5.4163,-5.4874,-5.5319,-5.5549,-5.5648,-5.5706,-5.5804,-5.5936,-5.6049,-5.6049,-5.6179,-5.629,-5.629,-5.6346,-5.6401,-5.6437,-5.6437,-5.6492,-5.6492,-5.651,-5.66,-5.66,-5.6492,-5.6437,-5.6528,-5.6635,-5.6635,-5.6635,-5.7153,-5.7745,-5.8357,-5.9131,-5.9907,-6.0359,-6.0684,-6.1244,-6.1728,-6.169,-6.169,-6.1519,-6.1328,-6.1075,-6.0775,-6.0503,-6.0297,-6.0153,-6.0089,-6.0089,-6.0089,-6.0177,-6.0177,-6.0089,-6.0159,-6.0247,-6.051,-6.0791,-6.0932,-6.1107,-6.1739,-6.2319,-5.0617,-5.1085,-5.1745,-5.2012,-5.2005,-5.1982,-5.186,-5.167,-5.1876,-5.179,-5.1746,-5.2139,-5.266,-5.3069,-5.3216,-5.323,-5.3145,-5.3348,-5.3359,-5.3295,-5.317,-5.3103,-5.3042,-5.2999,-5.2912,-5.2824,-5.3261,-5.3609,-5.4355,-5.5156,-5.6193,-5.7273,-5.6674,-5.6912,-5.7266,-5.7018,-5.6562,-5.6179,-5.5039,-5.4102,-5.3356,-5.2814,-5.2163,-5.1598,-5.1229,-5.1158,-5.1245,-5.0908,-5.0801,-5.1097,-5.1077,-5.1374,-5.1864,-5.2695,-5.341,-5.4091,-5.4695,-5.5217,-5.5354,-5.5472,-5.559,-5.5648,-5.5746,-5.5879,-5.5918,-5.6049,-5.6179,-5.6179,-5.629,-5.6346,-5.6401,-5.6492,-5.6546,-5.66,-5.66,-5.6707,-5.6689,-5.6546,-5.6437,-5.6546,-5.66,-5.6582,-5.6689,-5.6899,-5.7363,-5.7905,-5.8643,-5.9491,-6.0034,-6.0449,-6.0863,-6.149,-6.169,-6.169,-6.1519,-6.1328,-6.1075,-6.0818,-6.0609,-6.0378,-6.0171,-6.0089,-6.0089,-6.0089,-6.0089,-6.0089,-6.0089,-6.0159,-6.0247,-6.037,-6.051,-6.0739,-6.1055,-6.1669,-6.2108,-5.0226,-5.0307,-5.0629,-5.0749,-5.076,-5.1247,-5.1009,-5.0544,-5.1525,-5.1544,-5.1029,-5.1353,-5.1565,-5.1732,-5.2233,-5.2432,-5.225,-5.2968,-5.3001,-5.2986,-5.3103,-5.2871,-5.2809,-5.2758,-5.2824,-5.287,-5.3108,-5.3769,-5.4671,-5.5207,-5.5934,-5.6412,-5.6587,-5.6999,-5.7279,-5.7237,-5.6891,-5.634,-5.5256,-5.4313,-5.3652,-5.3044,-5.229,-5.1704,-5.1317,-5.1261,-5.1689,-5.1217,-5.1092,-5.1481,-5.1533,-5.1673,-5.2161,-5.2956,-5.3669,-5.4182,-5.4652,-5.5122,-5.5277,-5.5354,-5.5336,-5.5472,-5.559,-5.5764,-5.5804,-5.5918,-5.5993,-5.6197,-5.6235,-5.629,-5.6383,-5.6492,-5.66,-5.66,-5.66,-5.6635,-5.6635,-5.6546,-5.6437,-5.6546,-5.66,-5.6528,-5.6528,-5.6742,-5.6847,-5.7385,-5.8358,-5.9222,-6.0357,-6.0842,-6.0968,-6.1364,-6.1636,-6.1633,-6.1577,-6.1328,-6.1075,-6.0878,-6.0653,-6.0423,-6.0188,-6.0171,-6.0089,-6.0089,-6.0089,-6.0089,-6.0089,-6.0124,-6.0159,-6.0124,-6.0247,-6.0528,-6.0704,-6.1107,-6.134,-5.0057,-5.0108,-5.0231,-5.0348,-5.0454,-5.0603,-5.0468,-5.0247,-5.0553,-5.0719,-5.0604,-5.08,-5.1057,-5.1376,-5.1565,-5.1657,-5.154,-5.174,-5.186,-5.188,-5.1938,-5.2145,-5.2204,-5.2498,-5.269,-5.2672,-5.2878,-5.3302,-5.3947,-5.4813,-5.5404,-5.5858,-5.6495,-5.6826,-5.7134,-5.7138,-5.6939,-5.6657,-5.5915,-5.5256,-5.4613,-5.41,-5.3281,-5.1988,-5.2483,-5.214,-5.1952,-5.2,-5.2079,-5.2155,-5.2242,-5.2468,-5.2705,-5.3428,-5.3914,-5.4357,-5.4852,-5.5,-5.5217,-5.5294,-5.5431,-5.5431,-5.5549,-5.5607,-5.5706,-5.5822,-5.5918,-5.6049,-5.6235,-5.6328,-5.6383,-5.6492,-5.66,-5.66,-5.66,-5.6635,-5.6582,-5.6492,-5.6437,-5.6492,-5.6492,-5.6474,-5.6546,-5.66,-5.6635,-5.6885,-5.7909,-5.906,-6.0262,-6.0942,-6.0942,-6.1157,-6.1448,-6.1444,-6.1386,-6.1193,-6.1075,-6.0878,-6.0696,-6.0503,-6.0287,-6.0107,-6.0089,-6.0089,-6.0089,-6.0089,-6.0089,-6.0089,-6.0089,-6.0107,-6.0212,-6.0388,-6.0546,-6.0651,-6.0867,-4.975,-4.9797,-4.986,-5.0063,-5.0278,-5.0207,-5.0139,-5.0089,-4.9917,-4.99,-5.0159,-5.0118,-5.0303,-5.0685,-5.0987,-5.0898,-5.0841,-5.0966,-5.1066,-5.1271,-5.156,-5.1704,-5.1981,-5.2191,-5.2462,-5.2405,-5.243,-5.2696,-5.3842,-5.4227,-5.5038,-5.5897,-5.6557,-5.6809,-5.6881,-5.6742,-5.676,-5.6689,-5.6366,-5.5972,-5.5259,-5.4755,-5.4111,-5.2817,-5.3027,-5.3106,-5.2704,-5.2752,-5.2811,-5.2979,-5.3095,-5.3262,-5.3627,-5.3983,-5.4348,-5.4678,-5.493,-5.4974,-5.5199,-5.5354,-5.5525,-5.5525,-5.5549,-5.5566,-5.5625,-5.5764,-5.5918,-5.6049,-5.6217,-5.6328,-5.6383,-5.6492,-5.66,-5.66,-5.66,-5.66,-5.66,-5.6492,-5.6437,-5.6437,-5.6437,-5.6455,-5.6652,-5.6814,-5.7314,-5.7458,-5.8121,-5.923,-6.0486,-6.0858,-6.0648,-6.0876,-6.1234,-6.1211,-6.1075,-6.1135,-6.1135,-6.0861,-6.0714,-6.0556,-6.0385,-6.0269,-6.0089,-6.0089,-6.0089,-6.0089,-6.0089,-6.0089,-6.0089,-6.0089,-6.0194,-6.0282,-6.0253,-6.0376,-6.0674,-4.9402,-4.9321,-4.9457,-4.975,-5.0012,-5.0031,-5.0005,-4.9959,-4.9835,-4.9634,-4.9515,-4.9375,-4.9284,-4.9464,-4.9932,-4.9936,-4.9953,-5.043,-5.0787,-5.0963,-5.1158,-5.1736,-5.21,-5.2216,-5.234,-5.2275,-5.2252,-5.2749,-5.3928,-5.3953,-5.483,-5.5705,-5.6133,-5.6652,-5.6776,-5.6653,-5.6707,-5.6689,-5.6199,-5.581,-5.5472,-5.4927,-5.4247,-5.3717,-5.3605,-5.3752,-5.3562,-5.3434,-5.3585,-5.3816,-5.3826,-5.387,-5.3914,-5.4496,-5.4809,-5.4869,-5.5026,-5.5094,-5.5154,-5.5361,-5.5437,-5.5549,-5.559,-5.5706,-5.5724,-5.5822,-5.5993,-5.6123,-5.6235,-5.629,-5.6383,-5.6492,-5.6546,-5.66,-5.6546,-5.6546,-5.6492,-5.6492,-5.6437,-5.6383,-5.6401,-5.6454,-5.6722,-5.7114,-5.7899,-5.8328,-5.8609,-5.9447,-6.0688,-6.0902,-6.0693,-6.0818,-6.1152,-6.1152,-6.1152,-6.1211,-6.1193,-6.0921,-6.0775,-6.0618,-6.0448,-6.0287,-6.0188,-6.0089,-6.0089,-6.0089,-6.0089,-6.0089,-6.0089,-6.0089,-6.0089,-6.0142,-6.0031,-6.0101,-6.0428,-4.9075,-4.9027,-4.9094,-4.9174,-4.9315,-4.9558,-4.9665,-4.9665,-4.9537,-4.9384,-4.9257,-4.9094,-4.8999,-4.9026,-4.8992,-4.9049,-4.8954,-4.8915,-4.9383,-4.9391,-5.0148,-5.0524,-5.1031,-5.1788,-5.2162,-5.2132,-5.2071,-5.2131,-5.2605,-5.3205,-5.351,-5.4169,-5.5419,-5.608,-5.6438,-5.6546,-5.6546,-5.6546,-5.6237,-5.5946,-5.5954,-5.5476,-5.4891,-5.4299,-5.4539,-5.4524,-5.4227,-5.4028,-5.4353,-5.446,-5.446,-5.4435,-5.4392,-5.487,-5.4966,-5.4861,-5.4832,-5.4303,-5.4314,-5.4521,-5.5213,-5.5495,-5.5764,-5.5822,-5.5879,-5.6011,-5.6123,-5.6179,-5.629,-5.6346,-5.6401,-5.6437,-5.6437,-5.6437,-5.6437,-5.6437,-5.6437,-5.6437,-5.6383,-5.6383,-5.6401,-5.6847,-5.7186,-5.7882,-5.8649,-5.9184,-5.9447,-5.9857,-6.0861,-6.1022,-6.0974,-6.0992,-6.1093,-6.1111,-6.117,-6.1211,-6.127,-6.1135,-6.0914,-6.0662,-6.0494,-6.0287,-6.0188,-6.0089,-6.0089,-6.0089,-6.0089,-6.0089,-6.0089,-6.0089,-6.0089,-6.0089,-6.0043,-6.006,-6.0194,-4.8837,-4.8785,-4.8785,-4.8785,-4.8855,-4.9174,-4.9334,-4.9315,-4.9289,-4.9193,-4.9075,-4.8959,-4.8857,-4.877,-4.8624,-4.8495,-4.8324,-4.8265,-4.8495,-4.8374,-4.9173,-5.0009,-5.0697,-5.1272,-5.182,-5.2006,-5.2071,-5.2082,-5.2651,-5.2892,-5.3325,-5.3931,-5.4468,-5.5165,-5.5704,-5.6009,-5.6492,-5.6492,-5.6199,-5.6014,-5.6035,-5.5773,-5.5344,-5.5173,-5.515,-5.518,-5.4653,-5.4734,-5.5154,-5.4895,-5.479,-5.473,-5.4712,-5.4712,-5.4633,-5.4343,-5.4408,-5.4073,-5.4243,-5.4464,-5.5246,-5.5826,-5.5918,-5.5993,-5.6049,-5.6179,-5.6235,-5.629,-5.6346,-5.6401,-5.6401,-5.6383,-5.6383,-5.6383,-5.6383,-5.6383,-5.6383,-5.6383,-5.6383,-5.6383,-5.6525,-5.7043,-5.7792,-5.8667,-5.9412,-5.9916,-6.0326,-6.0701,-6.095,-6.095,-6.1045,-6.1027,-6.1045,-6.1045,-6.1081,-6.1211,-6.127,-6.1328,-6.1052,-6.0767,-6.0521,-6.0315,-6.0234,-6.0089,-6.0089,-6.0089,-6.0089,-6.0089,-6.0089,-6.0089,-6.0089,-6.0089,-6.0089,-6.0089,-6.0089,-4.8587,-4.8587,-4.8587,-4.8587,-4.8623,-4.882,-4.8925,-4.9008,-4.9094,-4.9046,-4.8909,-4.8855,-4.8732,-4.8605,-4.8532,-4.8381,-4.8247,-4.805,-4.8293,-4.8659,-4.8905,-4.9828,-5.0579,-5.112,-5.1622,-5.2018,-5.2168,-5.2215,-5.3055,-5.2736,-5.3149,-5.394,-5.4317,-5.4676,-5.5091,-5.5864,-5.6438,-5.6331,-5.6201,-5.6126,-5.6179,-5.5822,-5.5555,-5.5426,-5.5402,-5.5156,-5.4887,-5.5045,-5.4922,-5.4659,-5.4326,-5.4233,-5.4215,-5.4256,-5.3725,-5.3572,-5.4077,-5.4282,-5.4361,-5.4471,-5.522,-5.5733,-5.6144,-5.6179,-5.6253,-5.629,-5.6346,-5.6346,-5.6383,-5.6383,-5.6383,-5.6383,-5.6383,-5.6383,-5.6383,-5.6383,-5.6383,-5.6383,-5.6383,-5.6436,-5.6561,-5.7132,-5.8274,-5.9162,-5.9773,-6.0492,-6.0795,-6.0925,-6.1086,-6.0795,-6.0872,-6.0872,-6.0907,-6.0961,-6.1055,-6.1024,-6.1117,-6.116,-6.114,-6.0914,-6.0653,-6.0405,-6.028,-6.0199,-6.0153,-6.0089,-6.0089,-6.0089,-6.0089,-6.0089,-6.0089,-6.0089,-6.0089,-6.0089,-6.0089,-4.8458,-4.8382,-4.8382,-4.8382,-4.842,-4.855,-4.8679,-4.8695,-4.8785,-4.8731,-4.8678,-4.8514,-4.8458,-4.8364,-4.8247,-4.8068,-4.7947,-4.7824,-4.7832,-4.8109,-4.8482,-4.936,-5.0073,-5.0741,-5.1387,-5.1844,-5.206,-5.1934,-5.1652,-5.167,-5.2252,-5.2774,-5.3922,-5.4269,-5.4936,-5.6052,-5.6057,-5.615,-5.6116,-5.6274,-5.6179,-5.5897,-5.5683,-5.5507,-5.5525,-5.5244,-5.5191,-5.5279,-5.5069,-5.4472,-5.4331,-5.4116,-5.3467,-5.402,-5.4187,-5.3576,-5.3794,-5.385,-5.3531,-5.394,-5.4706,-5.5543,-5.6007,-5.631,-5.6346,-5.6401,-5.6383,-5.6383,-5.6383,-5.6383,-5.6383,-5.6383,-5.6383,-5.6383,-5.6383,-5.6383,-5.6383,-5.6383,-5.6401,-5.649,-5.6615,-5.7366,-5.8506,-5.9295,-5.9866,-6.0764,-6.1252,-6.1275,-6.1167,-6.084,-6.0662,-6.0719,-6.0687,-6.0687,-6.0672,-6.0639,-6.0804,-6.0968,-6.1006,-6.1022,-6.0903,-6.0661,-6.0432,-6.0262,-6.0216,-6.0153,-6.0089,-6.0089,-6.0089,-6.0089,-6.0089,-6.0089,-6.0089,-6.0089,-6.0089,-4.8363,-4.8324,-4.8324,-4.8324,-4.8306,-4.8438,-4.8513,-4.8495,-4.8569,-4.855,-4.8476,-4.8364,-4.8267,-4.8151,-4.805,-4.7925,-4.7801,-4.7759,-4.7711,-4.7838,-4.8085,-4.8822,-4.9582,-5.0144,-5.0633,-5.123,-5.1654,-5.1581,-5.1192,-5.1509,-5.2043,-5.2506,-5.3573,-5.3707,-5.4086,-5.4724,-5.5392,-5.5674,-5.5971,-5.6331,-5.6273,-5.5975,-5.5706,-5.5514,-5.5472,-5.5332,-5.5121,-5.5268,-5.5074,-5.4552,-5.4446,-5.4327,-5.382,-5.4158,-5.45,-5.4044,-5.4258,-5.426,-5.4118,-5.4349,-5.4937,-5.5437,-5.5847,-5.6026,-5.6294,-5.6383,-5.6383,-5.6383,-5.6383,-5.6383,-5.6383,-5.6383,-5.6383,-5.6383,-5.6383,-5.6383,-5.6383,-5.6383,-5.6454,-5.6525,-5.7009,-5.7672,-5.844,-5.9155,-5.9856,-6.0508,-6.096,-6.1178,-6.107,-6.0855,-6.0601,-6.0549,-6.0388,-6.0336,-6.0284,-6.0375,-6.0753,-6.1006,-6.1181,-6.1149,-6.1068,-6.0885,-6.06,-6.045,-6.0297,-6.0234,-6.0234,-6.0089,-6.0089,-6.0089,-6.0089,-6.0089,-6.0089,-6.0089,-6.0089,-4.8306,-4.8306,-4.8306,-4.8363,-4.8324,-4.8457,-4.8419,-4.8306,-4.8495,-4.8458,-4.8306,-4.8267,-4.8151,-4.801,-4.7907,-4.7861,-4.7801,-4.7741,-4.7723,-4.7741,-4.7979,-4.8571,-4.9159,-4.946,-5.0289,-5.0666,-5.0944,-5.1328,-5.1538,-5.1647,-5.1873,-5.2599,-5.2917,-5.3162,-5.3396,-5.4103,-5.481,-5.5305,-5.5941,-5.6455,-5.6348,-5.6052,-5.5716,-5.5449,-5.5174,-5.4946,-5.4653,-5.4838,-5.5213,-5.4758,-5.4532,-5.4573,-5.452,-5.4272,-5.4453,-5.4543,-5.4741,-5.4688,-5.4634,-5.4813,-5.5473,-5.5758,-5.5776,-5.5955,-5.6222,-5.6383,-5.6383,-5.6383,-5.6383,-5.6383,-5.6383,-5.6383,-5.6383,-5.6383,-5.6383,-5.6383,-5.6383,-5.6383,-5.6473,-5.6652,-5.7153,-5.7781,-5.8159,-5.8858,-5.9524,-6.0138,-6.0428,-6.0717,-6.0663,-6.0483,-6.0375,-6.0195,-6.0142,-5.9998,-5.9835,-6.007,-6.0792,-6.1153,-6.1294,-6.1292,-6.1178,-6.0997,-6.0722,-6.0556,-6.0468,-6.0441,-6.0378,-6.0297,-6.0216,-6.0171,-6.0171,-6.0171,-6.0089,-6.0089,-6.0089,-4.8457,-4.8457,-4.8495,-4.8495,-4.8475,-4.8457,-4.8381,-4.8226,-4.8247,-4.8247,-4.8208,-4.813,-4.801,-4.7925,-4.7801,-4.7759,-4.7699,-4.7765,-4.777,-4.7852,-4.8014,-4.8501,-4.9237,-4.9386,-5.0116,-5.0973,-5.1255,-5.1019,-5.1468,-5.1486,-5.1704,-5.2707,-5.3126,-5.339,-5.3399,-5.4127,-5.4636,-5.5,-5.562,-5.6263,-5.6366,-5.5705,-5.5107,-5.4741,-5.4433,-5.4063,-5.3855,-5.3891,-5.4038,-5.3845,-5.3883,-5.4221,-5.4845,-5.4721,-5.4491,-5.4421,-5.4955,-5.4973,-5.4884,-5.5134,-5.5705,-5.6133,-5.6186,-5.624,-5.6329,-5.6365,-5.6383,-5.6383,-5.6383,-5.6383,-5.6383,-5.6383,-5.6383,-5.6383,-5.6383,-5.6383,-5.6383,-5.6437,-5.6455,-5.6886,-5.737,-5.7675,-5.7999,-5.8466,-5.9168,-5.9511,-5.9601,-5.9745,-5.9727,-5.9654,-5.9779,-5.9724,-5.9849,-5.9756,-5.954,-5.9941,-6.0792,-6.1245,-6.1443,-6.1407,-6.1315,-6.1024,-6.0789,-6.0722,-6.0635,-6.0591,-6.0547,-6.0565,-6.0485,-6.0315,-6.0252,-6.0234,-6.0153,-6.0089,-6.0089,-4.8532,-4.855,-4.8642,-4.8402,-4.8071,-4.8347,-4.8381,-4.8226,-4.8148,-4.8108,-4.8046,-4.8006,-4.7925,-4.7819,-4.7717,-4.7741,-4.7705,-4.787,-4.7974,-4.8053,-4.8247,-4.8566,-4.8954,-4.9212,-4.9433,-5.0186,-5.0354,-5.0469,-5.1341,-5.1542,-5.1871,-5.2802,-5.3441,-5.3642,-5.3616,-5.4036,-5.4437,-5.4711,-5.5259,-5.5607,-5.5974,-5.5468,-5.5044,-5.4628,-5.3964,-5.3505,-5.3649,-5.381,-5.4148,-5.4435,-5.4721,-5.5095,-5.5632,-5.5632,-5.5472,-5.5347,-5.5508,-5.5544,-5.5294,-5.5419,-5.5883,-5.624,-5.6383,-5.6347,-5.6347,-5.6383,-5.6383,-5.6383,-5.6383,-5.6383,-5.6383,-5.6383,-5.6383,-5.6383,-5.6383,-5.6383,-5.6492,-5.66,-5.6653,-5.6761,-5.7137,-5.7297,-5.7546,-5.7738,-5.837,-5.8913,-5.8967,-5.9238,-5.9198,-5.9012,-5.9081,-5.9183,-5.9274,-5.9361,-5.9165,-5.9841,-6.0879,-6.1296,-6.1534,-6.157,-6.1494,-6.1113,-6.0873,-6.0825,-6.0757,-6.0679,-6.0696,-6.0671,-6.0565,-6.0396,-6.0315,-6.0315,-6.0234,-6.0089,-6.0089,-4.8403,-4.8494,-4.8601,-4.8124,-4.7463,-4.7905,-4.8014,-4.7821,-4.7722,-4.7656,-4.7625,-4.7625,-4.7692,-4.7717,-4.7741,-4.7847,-4.7992,-4.8093,-4.821,-4.8344,-4.8569,-4.8753,-4.8825,-4.8879,-4.9066,-4.927,-4.9487,-5.0472,-5.1509,-5.1509,-5.1839,-5.2767,-5.3042,-5.306,-5.2999,-5.3047,-5.3368,-5.3942,-5.4336,-5.4474,-5.4803,-5.509,-5.4774,-5.4331,-5.3757,-5.3313,-5.3635,-5.4008,-5.4506,-5.522,-5.5614,-5.5934,-5.6132,-5.6132,-5.6026,-5.5919,-5.6008,-5.6062,-5.6026,-5.6062,-5.6258,-5.6383,-5.6383,-5.6383,-5.6383,-5.6383,-5.6383,-5.6383,-5.6383,-5.6383,-5.6383,-5.6383,-5.6383,-5.6437,-5.6437,-5.6492,-5.66,-5.676,-5.676,-5.6812,-5.6935,-5.7075,-5.721,-5.7361,-5.7651,-5.8196,-5.854,-5.8867,-5.8976,-5.8714,-5.8633,-5.8591,-5.8622,-5.864,-5.8786,-5.9611,-6.0708,-6.1258,-6.1515,-6.1642,-6.1654,-6.1198,-6.0945,-6.098,-6.0878,-6.0818,-6.0818,-6.0775,-6.0609,-6.0521,-6.0441,-6.0441,-6.0252,-6.0171,-6.0089,-4.7805,-4.789,-4.789,-4.7675,-4.7277,-4.6837,-4.6397,-4.6116,-4.6054,-4.6168,-4.659,-4.6812,-4.7047,-4.7699,-4.7888,-4.801,-4.8072,-4.8288,-4.8421,-4.8587,-4.8804,-4.8946,-4.898,-4.8962,-4.8892,-4.9065,-4.9473,-5.0398,-5.1216,-5.1385,-5.1937,-5.3143,-5.3217,-5.3193,-5.3164,-5.3158,-5.3231,-5.3616,-5.3884,-5.4117,-5.3715,-5.3839,-5.358,-5.2993,-5.2324,-5.2483,-5.2802,-5.3016,-5.3922,-5.4955,-5.5864,-5.6239,-5.6346,-5.631,-5.6169,-5.6026,-5.6169,-5.6097,-5.6079,-5.624,-5.6329,-5.6383,-5.6383,-5.6383,-5.6383,-5.6383,-5.6383,-5.6383,-5.6383,-5.6401,-5.6401,-5.6383,-5.6383,-5.6546,-5.66,-5.6689,-5.6742,-5.6847,-5.6847,-5.6951,-5.7003,-5.7174,-5.7325,-5.7424,-5.7424,-5.7806,-5.7824,-5.8164,-5.8219,-5.8172,-5.8166,-5.816,-5.8135,-5.8476,-5.8841,-5.9383,-6.03,-6.0963,-6.1514,-6.1697,-6.1597,-6.1152,-6.0974,-6.0956,-6.1016,-6.0938,-6.0878,-6.0836,-6.0775,-6.0609,-6.0627,-6.0503,-6.036,-6.0234,-6.0089]}]]